[[{"header":{"parameterUnit":"m.s-1","parameterCategory":1,"la1":30.6,"la2":28.766,"lo1":-90.7593,"lo2":-88.6598,"dx":0.0162,"dy":0.0183,"nx":116,"ny":114,"refTime":"2023-01-03T06:00:00:Z","depth":0,"parameterNumber":2,"parameterNumberName":"U-component_of_WINDS"},"data":[0.0,0.0,0.0,0.0,0.0,0.0,0.0,0.0,0.0,0.0,0.0,0.0,0.0,0.0,0.0,0.0,0.0,0.0,0.0,0.0,0.0,0.0,0.0,0.0,0.0,0.0,0.0,0.0,0.0,0.0,0.0,0.0,0.0,0.0,0.0,0.0,0.0,0.0,0.0,0.0,0.0,0.0,0.0,0.0,0.0,0.0,0.0,0.0,0.0,0.0,0.0,0.0,0.0,0.0,0.0,0.0,0.0,0.0,0.0,0.0,0.0,0.0,0.0,0.0,0.0,0.0,0.0,0.0,0.0,0.0,0.0,0.0,0.0,0.0,0.0,0.0,0.0,0.0,0.0,0.0,0.0,0.0,0.0,0.0,0.0,0.0,0.0,0.0,0.0,0.0,0.0,0.0,0.0,0.0,0.0,0.0,0.0,0.0,0.0,0.0,0.0,0.0,0.0,0.0,0.0,0.0,0.0,0.0,0.0,0.0,0.0,0.0,0.0,0.0,0.0,0.0,0.0,0.0,0.0,0.0,0.0,0.0,0.0,0.0,0.0,0.0,0.0,0.0,0.0,0.0,0.0,0.0,0.0,0.0,0.0,0.0,0.0,0.0,0.0,0.0,0.0,0.0,0.0,0.0,0.0,0.0,0.0,0.0,0.0,0.0,0.0,0.0,0.0,0.0,0.0,0.0,0.0,0.0,0.0,0.0,0.0,0.0,0.0,0.0,0.0,0.0,0.0,0.0,0.0,0.0,0.0,0.0,0.0,0.0,0.0,0.0,0.0,0.0,0.0,0.0,0.0,0.0,0.0,0.0,0.0,0.0,0.0,0.0,0.0,0.0,0.0,0.0,0.0,0.0,0.0,0.0,0.0,0.0,0.0,0.0,0.0,0.0,0.0,0.0,0.0,0.0,0.0,0.0,0.0,0.0,0.0,0.0,0.0,0.0,0.0,0.0,0.0,0.0,0.0,0.0,0.0,0.0,0.0,0.0,0.0,0.0,0.0,0.0,0.0,0.0,0.0,0.0,0.0,0.0,0.0,0.0,0.0,0.0,0.0,0.0,0.0,0.0,0.0,0.0,0.0,0.0,0.0,0.0,0.0,0.0,0.0,0.0,0.0,0.0,0.0,0.0,0.0,0.0,0.0,0.0,0.0,0.0,0.0,0.0,0.0,0.0,0.0,0.0,0.0,0.0,0.0,0.0,0.0,0.0,0.0,0.0,0.0,0.0,0.0,0.0,0.0,0.0,0.0,0.0,0.0,0.0,0.0,0.0,0.0,0.0,0.0,0.0,0.0,0.0,0.0,0.0,0.0,0.0,0.0,0.0,0.0,0.0,0.0,0.0,0.0,0.0,0.0,0.0,0.0,0.0,0.0,0.0,0.0,0.0,0.0,0.0,0.0,0.0,0.0,0.0,0.0,0.0,0.0,0.0,0.0,0.0,0.0,0.0,0.0,0.0,0.0,0.0,0.0,0.0,0.0,0.0,0.0,0.0,0.0,0.0,0.0,0.0,0.0,0.0,0.0,0.0,0.0,0.0,0.0,0.0,0.0,0.0,0.0,0.0,0.0,0.0,0.0,0.0,0.0,0.0,0.0,0.0,0.0,0.0,0.0,0.0,0.0,0.0,0.0,0.0,0.0,0.0,0.0,0.0,0.0,0.0,0.0,0.0,0.0,0.0,0.0,0.0,0.0,0.0,0.0,0.0,0.0,0.0,0.0,0.0,0.0,0.0,0.0,0.0,0.0,0.0,0.0,0.0,0.0,0.0,0.0,0.0,0.0,0.0,0.0,0.0,0.0,0.0,0.0,0.0,0.0,0.0,0.0,0.0,0.0,0.0,0.0,0.0,0.0,0.0,0.0,0.0,0.0,0.0,0.0,0.0,0.0,0.0,0.0,0.0,0.0,0.0,0.0,0.0,0.0,0.0,0.0,0.0,0.0,0.0,0.0,0.0,0.0,0.0,0.0,0.0,0.0,0.0,0.0,0.0,0.0,0.0,0.0,0.0,0.0,0.0,0.0,0.0,0.0,0.0,0.0,0.0,0.0,0.0,0.0,0.0,0.0,0.0,0.0,0.0,0.0,0.0,0.0,0.0,0.0,0.0,0.0,0.0,0.0,0.0,0.0,0.0,0.0,0.0,0.0,0.0,0.0,0.0,0.0,0.0,0.0,0.0,0.0,0.0,0.0,0.0,0.0,0.0,0.0,0.0,0.0,0.0,0.0,0.0,0.0,0.0,0.0,0.0,0.0,0.0,0.0,0.0,0.0,0.0,0.0,0.0,0.0,0.0,0.0,0.0,0.0,0.0,0.0,0.0,0.0,0.0,0.0,0.0,0.0,0.0,0.0,0.0,0.0,0.0,0.0,0.0,0.0,0.0,0.0,0.0,0.0,0.0,0.0,0.0,0.0,0.0,0.0,0.0,0.0,0.0,0.0,0.0,0.0,0.0,0.0,0.0,0.0,0.0,0.0,0.0,0.0,0.0,0.0,0.0,0.0,0.0,0.0,0.0,0.0,0.0,0.0,0.0,0.0,0.0,0.0,0.0,0.0,0.0,0.0,0.0,0.0,0.0,0.0,0.0,0.0,0.0,0.0,0.0,0.0,0.0,0.0,0.0,0.0,0.0,0.0,0.0,0.0,0.0,0.0,0.0,0.0,0.0,0.0,0.0,0.0,0.0,0.0,0.0,0.0,0.0,0.0,0.0,0.0,0.0,0.0,0.0,0.0,0.0,0.0,0.0,0.0,0.0,0.0,0.0,0.0,0.0,0.0,0.0,0.0,0.0,0.0,0.0,0.0,0.0,0.0,0.0,0.0,0.0,0.0,0.0,0.0,0.0,0.0,0.0,0.0,0.0,0.0,0.0,0.0,0.0,0.0,0.0,0.0,0.0,0.0,0.0,0.0,0.0,0.0,0.0,0.0,0.0,0.0,0.0,0.0,0.0,0.0,0.0,0.0,0.0,0.0,0.0,0.0,0.0,0.0,0.0,0.0,0.0,0.0,0.0,0.0,0.0,0.0,0.0,0.0,0.0,0.0,0.0,0.0,0.0,0.0,0.0,0.0,0.0,0.0,0.0,0.0,0.0,0.0,0.0,0.0,0.0,0.0,0.0,0.0,0.0,0.0,0.0,0.0,0.0,0.0,0.0,0.0,0.0,0.0,0.0,0.0,0.0,0.0,0.0,0.0,0.0,0.0,0.0,0.0,0.0,0.0,0.0,0.0,0.0,0.0,0.0,0.0,0.0,0.0,0.0,0.0,0.0,0.0,0.0,0.0,0.0,0.0,0.0,0.0,0.0,0.0,0.0,0.0,0.0,0.0,0.0,0.0,0.0,0.0,0.0,0.0,0.0,0.0,0.0,0.0,0.0,0.0,0.0,0.0,0.0,0.0,0.0,0.0,0.0,0.0,0.0,0.0,0.0,0.0,0.0,0.0,0.0,0.0,0.0,0.0,0.0,0.0,0.0,0.0,0.0,0.0,0.0,0.0,0.0,0.0,0.0,0.0,0.0,0.0,0.0,0.0,0.0,0.0,0.0,0.0,0.0,0.0,0.0,0.0,0.0,0.0,0.0,0.0,0.0,0.0,0.0,0.0,0.0,0.0,0.0,0.0,0.0,0.0,0.0,0.0,0.0,0.0,0.0,0.0,0.0,0.0,0.0,0.0,0.0,0.0,0.0,0.0,0.0,0.0,0.0,0.0,0.0,0.0,0.0,0.0,0.0,0.0,0.0,0.0,0.0,0.0,0.0,0.0,0.0,0.0,0.0,0.0,0.0,0.0,0.0,0.0,0.0,0.0,0.0,0.0,0.0,0.0,0.0,0.0,0.0,0.0,0.0,0.0,0.0,0.0,0.0,0.0,0.0,0.0,0.0,0.0,0.0,0.0,0.0,0.0,0.0,0.0,0.0,0.0,0.0,0.0,0.0,0.0,0.0,0.0,0.0,0.0,0.0,0.0,0.0,0.0,0.0,0.0,0.0,0.0,0.0,0.0,0.0,0.0,0.0,0.0,0.0,0.0,0.0,0.0,0.0,0.0,0.0,0.0,0.0,0.0,0.0,0.0,0.0,0.0,0.0,0.0,0.0,0.0,0.0,0.0,0.0,0.0,0.0,0.0,0.0,0.0,0.0,0.0,0.0,0.0,0.0,0.0,0.0,0.0,0.0,0.0,0.0,0.0,0.0,0.0,0.0,0.0,0.0,0.0,0.0,0.0,0.0,0.0,0.0,0.0,0.0,0.0,0.0,0.0,0.0,0.0,0.0,0.0,0.0,0.0,0.0,0.0,0.0,0.0,0.0,0.0,0.0,0.0,0.0,0.0,0.0,0.0,0.0,0.0,0.0,0.0,0.0,0.0,0.0,0.0,0.0,0.0,0.0,0.0,0.0,0.0,0.0,0.0,0.0,0.0,0.0,0.0,0.0,0.0,0.0,0.0,0.0,0.0,0.0,0.0,0.0,0.0,0.0,0.0,0.0,0.0,0.0,0.0,0.0,0.0,0.0,0.0,0.0,0.0,0.0,0.0,0.0,0.0,0.0,0.0,0.0,0.0,0.0,0.0,0.0,0.0,0.0,0.0,0.0,0.0,0.0,0.0,0.0,0.0,0.0,0.0,0.0,0.0,0.0,0.0,0.0,0.0,0.0,0.0,0.0,0.0,0.0,0.0,0.0,0.0,0.0,0.0,0.0,0.0,0.0,0.0,0.0,0.0,0.0,0.0,0.0,0.0,0.0,0.0,0.0,0.0,0.0,0.0,0.0,0.0,0.0,0.0,0.0,0.0,0.0,0.0,0.0,0.0,0.0,0.0,0.0,0.0,0.0,0.0,0.0,0.0,0.0,0.0,0.0,0.0,0.0,0.0,0.0,0.0,0.0,0.0,0.0,0.0,0.0,0.0,0.0,0.0,0.0,0.0,0.0,0.0,0.0,0.0,0.0,0.0,0.0,0.0,0.0,0.0,0.0,0.0,0.0,0.0,0.0,0.0,0.0,0.0,0.0,0.0,0.0,0.0,0.0,0.0,0.0,0.0,0.0,0.0,0.0,0.0,0.0,0.0,0.0,0.0,0.0,0.0,0.0,0.0,0.0,0.0,0.0,0.0,0.0,0.0,0.0,0.0,0.0,0.0,0.0,0.0,0.0,0.0,0.0,0.0,0.0,0.0,0.0,0.0,0.0,0.0,0.0,0.0,0.0,0.0,0.0,0.0,0.0,0.0,0.0,0.0,0.0,0.0,0.0,0.0,0.0,0.0,0.0,0.0,0.0,0.0,0.0,0.0,0.0,0.0,0.0,0.0,0.0,0.0,0.0,0.0,0.0,0.0,0.0,0.0,0.0,0.0,0.0,0.0,0.0,0.0,0.0,0.0,0.0,0.0,0.0,0.0,0.0,0.0,0.0,0.0,0.0,0.0,0.0,0.0,0.0,0.0,0.0,0.0,0.0,0.0,0.0,0.0,0.0,0.0,0.0,0.0,0.0,0.0,0.0,0.0,0.0,0.0,0.0,0.0,0.0,0.0,0.0,0.0,0.0,0.0,0.0,0.0,0.0,0.0,0.0,0.0,0.0,0.0,0.0,0.0,0.0,0.0,0.0,0.0,0.0,0.0,0.0,0.0,0.0,0.0,0.0,0.0,0.0,0.0,0.0,0.0,0.0,0.0,0.0,0.0,0.0,0.0,0.0,0.0,0.0,0.0,0.0,0.0,0.0,0.0,0.0,0.0,0.0,0.0,0.0,0.0,0.0,0.0,0.0,0.0,0.0,0.0,0.0,0.0,0.0,0.0,0.0,0.0,0.0,0.0,0.0,0.0,0.0,0.0,0.0,0.0,0.0,0.0,0.0,0.0,0.0,0.0,0.0,0.0,0.0,0.0,0.0,0.0,0.0,0.0,0.0,0.0,0.0,0.0,0.0,0.0,0.0,0.0,0.0,0.0,0.0,0.0,0.0,0.0,0.0,0.0,0.0,0.0,0.0,0.0,0.0,0.0,0.0,0.0,0.0,0.0,0.0,0.0,0.0,0.0,0.0,0.0,0.0,0.0,0.0,0.0,0.0,0.0,0.0,0.0,0.0,0.0,0.0,0.0,0.0,0.0,0.0,0.0,0.0,-7.3152,-7.2921,0.0,0.0,0.0,0.0,0.0,0.0,0.0,0.0,0.0,0.0,0.0,0.0,0.0,0.0,0.0,0.0,0.0,0.0,0.0,0.0,0.0,0.0,0.0,0.0,0.0,0.0,0.0,0.0,0.0,0.0,0.0,0.0,0.0,0.0,0.0,0.0,-6.1285,-6.2101,-6.3444,-6.4846,-6.6281,-6.4532,-6.2824,-6.1091,0.0,0.0,0.0,0.0,0.0,0.0,0.0,0.0,0.0,0.0,0.0,0.0,0.0,0.0,0.0,0.0,0.0,0.0,0.0,0.0,0.0,0.0,0.0,0.0,0.0,0.0,0.0,0.0,0.0,0.0,0.0,0.0,0.0,0.0,0.0,0.0,0.0,0.0,0.0,0.0,0.0,0.0,0.0,0.0,0.0,0.0,0.0,0.0,0.0,0.0,0.0,0.0,0.0,0.0,0.0,0.0,0.0,0.0,0.0,0.0,0.0,0.0,0.0,0.0,0.0,0.0,0.0,0.0,0.0,0.0,-7.589,-7.5297,0.0,0.0,0.0,0.0,0.0,0.0,0.0,0.0,0.0,0.0,0.0,0.0,0.0,0.0,0.0,0.0,0.0,0.0,0.0,0.0,0.0,0.0,0.0,-6.0505,-6.097,-6.0918,-6.1337,-6.13,0.0,0.0,0.0,0.0,0.0,0.0,-6.063,-6.0893,-6.1547,-6.2556,-6.4436,-6.5772,-6.6626,-6.4705,-6.3497,-6.2744,-5.9841,0.0,0.0,0.0,0.0,0.0,0.0,0.0,0.0,0.0,0.0,0.0,0.0,0.0,0.0,0.0,0.0,0.0,0.0,0.0,0.0,0.0,0.0,0.0,0.0,0.0,0.0,0.0,0.0,0.0,0.0,0.0,0.0,0.0,0.0,0.0,0.0,0.0,0.0,0.0,0.0,0.0,0.0,0.0,0.0,0.0,0.0,0.0,0.0,0.0,0.0,0.0,0.0,0.0,0.0,0.0,0.0,0.0,0.0,0.0,0.0,0.0,0.0,0.0,-7.6035,-7.7009,-7.8672,-7.7969,-7.8398,-7.9648,-7.8807,-7.7916,-7.7112,-7.7696,0.0,0.0,0.0,0.0,0.0,0.0,0.0,0.0,0.0,0.0,0.0,0.0,0.0,0.0,0.0,0.0,0.0,0.0,0.0,-5.7339,-5.8747,-5.9587,-6.0499,-6.1562,-6.2162,-6.2414,-6.23,0.0,0.0,0.0,0.0,0.0,-5.9946,-6.1224,-6.2767,-6.4454,-6.7016,-6.7522,-6.6068,-6.5165,-6.4652,-6.4368,-6.1395,-6.0397,-6.0848,0.0,0.0,0.0,0.0,0.0,0.0,0.0,0.0,0.0,0.0,0.0,0.0,0.0,0.0,0.0,0.0,0.0,0.0,0.0,0.0,0.0,0.0,0.0,0.0,0.0,0.0,0.0,0.0,0.0,0.0,0.0,0.0,0.0,0.0,0.0,0.0,0.0,0.0,0.0,0.0,0.0,-6.8035,-7.0057,0.0,0.0,0.0,0.0,0.0,0.0,0.0,0.0,0.0,0.0,0.0,0.0,0.0,-7.5273,-7.5128,-7.5318,-7.585,-7.6727,-7.7683,-7.8632,-7.9531,-7.9414,-7.9492,-7.9726,-8.0349,0.0,-7.8975,-7.8394,0.0,0.0,0.0,0.0,0.0,0.0,0.0,0.0,0.0,0.0,0.0,0.0,0.0,0.0,0.0,0.0,0.0,0.0,0.0,0.0,0.0,-6.1731,-6.2446,-6.3299,-6.3604,-6.3318,-6.2399,-6.217,0.0,0.0,0.0,-6.0626,-6.1208,-6.2791,-6.4733,-6.7061,-6.7634,-6.7509,-6.6723,-6.5419,-6.4823,-6.4748,-6.3886,-6.3446,-6.3365,-6.3217,0.0,0.0,0.0,0.0,0.0,0.0,0.0,0.0,0.0,0.0,0.0,0.0,0.0,0.0,0.0,0.0,0.0,0.0,0.0,0.0,0.0,0.0,0.0,0.0,0.0,0.0,0.0,0.0,0.0,0.0,0.0,0.0,0.0,0.0,0.0,0.0,0.0,0.0,0.0,-6.9581,-7.0636,-7.2824,-7.3008,-7.324,0.0,0.0,0.0,0.0,0.0,0.0,0.0,0.0,0.0,-7.6327,-7.6484,-7.6545,-7.6421,-7.7087,-7.7648,-7.8141,-7.8731,-7.9522,-8.0469,-8.0937,-8.1445,-8.1914,-8.2304,-8.2186,-8.1667,-8.03,-7.9701,-7.9551,0.0,0.0,0.0,0.0,-7.6141,-7.5533,0.0,0.0,0.0,0.0,0.0,0.0,0.0,0.0,0.0,0.0,0.0,0.0,-6.2314,-6.3106,-6.3685,-6.4206,-6.4282,-6.3666,-6.2216,-6.2101,-6.1624,-6.0536,-6.0819,-6.1328,-6.2065,-6.4183,-6.6279,-6.8356,-6.7755,-6.7235,-6.6667,-6.5631,-6.5076,-6.5047,-6.5758,-6.5871,-6.5474,-6.5537,-6.5077,-6.4297,0.0,0.0,0.0,0.0,0.0,0.0,0.0,0.0,0.0,0.0,0.0,0.0,0.0,0.0,0.0,0.0,0.0,0.0,0.0,0.0,0.0,0.0,0.0,0.0,0.0,0.0,0.0,0.0,0.0,0.0,0.0,0.0,0.0,0.0,0.0,0.0,0.0,-7.1876,-7.2712,-7.4752,-7.4757,-7.4819,0.0,0.0,0.0,0.0,0.0,0.0,-7.6627,-7.7011,-7.7014,-7.6552,-7.7367,-7.7795,-7.7673,-7.8479,-7.9095,-7.9501,-7.9955,-8.0686,-8.1679,-8.2578,-8.332,-8.3906,-8.3711,-8.3594,-8.3515,-8.2187,-8.1523,-8.125,-8.0447,-7.9221,-7.7935,-7.7695,-7.6953,-7.6339,0.0,0.0,0.0,0.0,0.0,0.0,0.0,0.0,0.0,0.0,0.0,-6.0204,-6.0767,-6.1945,-6.2859,-6.3321,-6.3346,-6.3012,-6.2178,-6.2101,-6.1406,-5.983,-6.0562,-6.1186,-6.1527,-6.4801,-6.6706,-6.71,-6.7844,-6.7157,-6.5127,-6.5693,-6.5817,-6.5596,-6.6274,-6.6564,-6.6551,-6.6745,-6.6971,-6.6961,-6.454,0.0,0.0,0.0,0.0,0.0,0.0,0.0,0.0,0.0,0.0,0.0,0.0,0.0,0.0,0.0,0.0,0.0,0.0,0.0,0.0,0.0,0.0,0.0,0.0,0.0,0.0,0.0,0.0,0.0,0.0,0.0,0.0,0.0,0.0,0.0,0.0,0.0,0.0,-7.4717,-7.5883,0.0,0.0,0.0,0.0,-7.6899,-7.7656,-7.7654,-7.6638,-7.809,-7.8428,-7.7304,-7.8006,-7.8525,-7.8723,-7.8949,-7.9585,-8.0626,-8.167,-8.2617,-8.3515,-8.4375,-8.4804,-8.4804,-8.3945,-8.3594,-8.3594,-8.3515,-8.2969,-8.2226,-8.2187,-8.1601,-8.0703,-7.9843,-8.0039,-8.0781,0.0,0.0,0.0,-5.8791,-5.8767,-5.8767,-5.8767,-5.8327,-5.8097,-5.8418,-5.9641,-6.1032,-6.2575,-6.3432,-6.429,-6.5197,-6.4776,-6.397,-6.2813,-6.2527,-6.2208,-6.1726,-6.1871,-6.3136,-6.5677,-6.6887,-6.8186,-6.9594,-6.8373,-6.7887,-6.8067,-6.7016,-6.7014,-6.7959,-6.8612,-6.8995,-6.9117,-6.9063,-6.8721,-6.8104,-6.6641,-6.477,0.0,0.0,0.0,0.0,0.0,0.0,0.0,0.0,0.0,0.0,0.0,0.0,0.0,0.0,0.0,0.0,0.0,0.0,0.0,0.0,0.0,0.0,0.0,0.0,0.0,0.0,0.0,0.0,0.0,0.0,0.0,0.0,0.0,0.0,0.0,0.0,0.0,-7.7412,-7.7011,0.0,-7.677,-7.7555,-7.8039,-7.7957,-7.8702,-7.8943,-7.8433,-7.8871,-7.8823,-7.8283,-7.9069,-7.9557,-7.9637,-8.1095,-8.1992,-8.2386,-8.3469,-8.414,-8.4453,-8.5351,-8.5429,-8.4883,-8.457,-8.4101,-8.3594,-8.3594,-8.3086,-8.2304,-8.2304,-8.1758,-8.0976,-8.0664,-8.039,-8.0273,0.0,-5.8858,0.0,-5.9184,-5.9404,-5.9588,-5.9588,-5.9039,-5.8961,-5.9847,-6.1016,-6.2542,-6.4542,-6.5264,-6.5944,-6.6755,-6.6096,-6.5075,-6.3596,-6.3187,-6.2677,-6.2002,-6.2865,-6.4876,-6.8052,-6.8637,-6.9438,-7.0612,-6.9084,-6.8794,-6.9694,-6.8581,-6.878,-7.0054,-7.077,-7.1354,-7.1774,-7.139,-7.0637,-6.9616,-6.8458,-6.67,-6.4647,0.0,0.0,0.0,0.0,0.0,0.0,0.0,0.0,0.0,0.0,0.0,0.0,0.0,0.0,0.0,0.0,0.0,0.0,0.0,0.0,0.0,0.0,0.0,0.0,0.0,0.0,0.0,0.0,0.0,0.0,0.0,0.0,0.0,0.0,-7.6271,-7.7662,-7.9052,-7.828,-7.7714,-7.7815,-7.8367,-7.8772,-7.8906,-7.9687,-7.9916,-7.9424,-8.0124,-8.0177,-7.9369,-8.0485,-8.1107,-8.1191,-8.2574,-8.3494,-8.3833,-8.4879,-8.5351,-8.5351,-8.5937,-8.6054,-8.5742,-8.4844,-8.4453,-8.4414,-8.3515,-8.3164,-8.3164,-8.2851,-8.2383,-8.1836,-8.1562,-8.1054,-8.0742,-5.796,-5.8621,-5.9148,-5.9184,-5.9869,-6.037,-6.037,-6.01,-6.0485,-6.223,-6.3323,-6.4573,-6.6322,-6.7136,-6.7583,-6.7605,-6.7089,-6.6065,-6.4368,-6.3955,-6.2771,-6.0531,-6.3529,-6.6195,-6.8223,-6.9771,-7.0376,-6.9967,-6.9972,-6.986,-6.9706,-7.0376,-7.108,-7.1917,-7.2565,-7.342,-7.4282,-7.3627,-7.2724,-7.1618,-6.9904,-6.8639,-6.7463,0.0,0.0,0.0,0.0,0.0,0.0,0.0,0.0,0.0,0.0,0.0,0.0,0.0,0.0,0.0,0.0,0.0,0.0,0.0,0.0,0.0,0.0,0.0,0.0,0.0,0.0,0.0,0.0,0.0,0.0,0.0,0.0,0.0,-7.5683,-7.7063,-7.8572,-7.9349,-7.9599,-7.9726,-7.9726,-7.9726,-7.9765,-7.9805,-8.0586,-8.0658,-7.9622,-8.1957,-8.2489,-8.0581,-8.217,-8.315,-8.3358,-8.3362,-8.3914,-8.4961,-8.5859,-8.6289,-8.6289,-8.6289,-8.6758,-8.7383,-8.4804,-8.4648,-8.6015,-8.3437,-8.3398,-8.4804,-8.3945,-8.3633,-8.3554,-8.2695,-8.2383,-8.2617,-5.7152,-5.7776,-5.851,-5.9074,-5.9663,-6.0061,-6.0061,-5.9754,-6.0505,-6.3141,-6.3731,-6.5138,-6.8426,-6.8059,-6.7694,-6.7941,-6.6879,-6.5367,-6.3336,-6.2918,-6.2834,-6.3129,-6.6275,-6.8565,-6.9764,-7.0198,-7.0785,-7.1558,-7.1468,-7.229,-7.3865,-7.3889,-7.4712,-7.6068,-7.5051,-7.4592,-7.4527,-7.4335,-7.371,-7.2689,-7.086,-6.9493,-6.843,0.0,0.0,0.0,0.0,0.0,0.0,0.0,0.0,0.0,0.0,0.0,0.0,0.0,0.0,0.0,0.0,0.0,0.0,0.0,0.0,0.0,0.0,0.0,0.0,0.0,0.0,0.0,0.0,0.0,0.0,0.0,-7.8045,-7.888,-7.8412,-7.9423,-8.0308,-8.0542,-8.0038,-7.9961,-8.0586,-8.0625,-8.1172,-8.2422,-8.2734,-8.3046,-8.3354,-8.3942,-8.4013,-8.3474,-8.3898,-8.4191,-8.4259,-8.5019,-8.5544,-8.5859,-8.7304,-8.8008,-8.8008,-8.8008,-8.8125,-8.8242,-8.6328,-8.5742,-8.6094,-8.4726,-8.4453,-8.4804,-8.3945,-8.3984,-8.4492,-8.4258,-8.4179,-8.4258,-5.6345,-5.7354,-5.8452,-5.891,-5.9938,-6.0693,-6.0693,-6.0712,-6.1744,-6.4588,-6.4924,-6.6147,-6.9489,-6.8762,-6.7929,-6.7733,-6.6469,-6.4861,-6.2881,-6.2479,-6.299,-6.4505,-6.7767,-7.0256,-7.1812,-7.2886,-7.3823,-7.4642,-7.5296,-7.6429,-7.8011,-7.7913,-7.8421,-7.9369,-7.8015,-7.699,-7.6211,-7.5859,-7.5195,-7.4219,-7.2411,-7.129,-7.0661,-6.9806,-6.88,-6.7759,-6.7401,-6.7124,-6.7013,-6.7475,0.0,0.0,0.0,0.0,0.0,0.0,0.0,0.0,0.0,0.0,0.0,0.0,0.0,0.0,0.0,0.0,0.0,0.0,0.0,0.0,0.0,0.0,0.0,0.0,-7.931,-8.0299,-8.1109,-8.1402,-8.1679,-8.2031,-8.164,-8.1679,-8.2539,-8.2617,-8.3047,-8.4062,-8.414,-8.4375,-8.4883,-8.5146,-8.509,-8.4739,-8.509,-8.5288,-8.5288,-8.5543,-8.6015,-8.6758,-8.7344,-8.8008,-8.8672,-8.8359,-8.8398,-8.8594,-8.6914,-8.6406,-8.664,-8.539,-8.5312,-8.5859,0.0,0.0,0.0,0.0,-8.5117,-8.5429,-5.5721,-5.7043,-5.8341,-5.8527,-6.0173,-6.1482,-6.1596,-6.2043,-6.3375,-6.6052,-6.6178,-6.7026,-6.9728,-6.8865,-6.7778,-6.7083,-6.5843,-6.4374,-6.281,-6.2475,-6.3195,-6.5085,-6.8466,-7.1468,-7.3951,-7.6422,-7.7911,-7.8371,-8.0015,-8.1165,-8.1785,-8.1958,-8.207,-8.2084,-8.112,-7.9954,-7.8711,-7.7773,-7.6836,-7.5898,-7.4258,-7.3476,-7.3203,-7.2304,-7.1354,-7.0363,-6.9596,-6.9159,-6.9,-6.9192,0.0,0.0,0.0,0.0,0.0,0.0,0.0,0.0,0.0,0.0,0.0,0.0,0.0,0.0,0.0,0.0,0.0,0.0,0.0,0.0,0.0,0.0,0.0,0.0,-8.0334,-8.1647,-8.3359,-8.3008,-8.289,-8.3633,-8.375,-8.4101,-8.4961,-8.4961,-8.4961,-8.5195,-8.5117,-8.5039,-8.5039,-8.5859,0.0,0.0,0.0,-8.6289,-8.6211,-8.5547,-8.5937,-8.7344,-8.6875,-8.7422,-8.8828,-8.8125,-8.8242,-8.8906,-8.7109,-8.6875,-8.7656,-8.6015,-8.6289,-8.7617,-8.5859,-8.5195,-8.5195,-8.5195,-8.5664,-8.6367,-5.5633,-5.5653,-5.6143,-5.7484,-5.8655,-5.9627,-6.0327,-6.0849,-6.2374,-6.5878,-6.5075,-6.5538,-6.8981,-6.6994,-6.561,-6.6025,-6.4875,-6.3733,-6.2679,-6.2681,-6.3537,-6.541,-6.9344,-7.2515,-7.4741,-7.6711,-7.8479,-8.0038,-8.1538,-8.2698,-8.3542,-8.4665,-8.5057,-8.4699,-8.3134,-8.1699,-8.0429,-7.8906,-7.7734,-7.6875,-7.582,-7.4531,-7.3203,-7.2163,-7.195,-7.2196,-7.1908,-7.2113,-7.2745,-7.4091,-7.4284,-7.4168,-7.5438,-7.5091,0.0,0.0,0.0,0.0,0.0,0.0,0.0,0.0,0.0,0.0,0.0,0.0,0.0,0.0,0.0,0.0,0.0,0.0,0.0,-8.1174,-8.2234,-8.3162,-8.3554,-8.4062,-8.4453,-8.4648,-8.4648,-8.5,-8.5859,-8.5312,-8.5469,-8.6875,-8.6367,-8.5937,-8.5937,-8.6797,-8.6836,-8.5976,-8.6797,-8.6914,-8.6211,-8.6719,-8.6797,-8.6484,-8.8359,0.0,-8.9726,-8.9609,-8.9961,-9.0664,-8.8281,-8.8125,-8.9453,-8.8398,-8.8594,-8.9336,-8.7656,-8.6992,-8.6992,-8.6992,-8.7109,-8.7265,-5.5556,-5.5862,-5.6251,-5.7114,-5.8677,-5.9752,-5.9536,-6.0056,-6.1082,-6.274,-6.266,-6.3163,-6.5114,-6.3691,-6.2611,-6.2506,-6.1852,-6.1485,-6.1452,-6.2658,-6.4194,-6.6112,-7.0195,-7.3818,-7.6675,-7.89,-8.0898,-8.2686,-8.4276,-8.5281,-8.5721,-8.6432,-8.625,-8.53,-8.4094,-8.2557,-8.0801,-8.0076,-7.9023,-7.7773,-7.6788,-7.5373,-7.373,-7.3228,-7.3091,-7.3246,-7.3625,-7.392,-7.4322,-7.5553,-7.6015,-7.6082,-7.661,-7.6791,-7.6405,0.0,0.0,0.0,0.0,0.0,0.0,0.0,0.0,0.0,0.0,0.0,0.0,0.0,0.0,-8.0439,-8.0439,0.0,-8.1746,-8.2256,-8.2986,-8.3778,-8.4765,-8.5273,-8.5547,-8.5547,-8.5547,-8.5898,-8.6758,-8.6445,-8.6562,-8.7422,-8.7109,-8.6836,-8.6836,-8.7265,-8.7109,-8.6211,-8.7031,-8.707,-8.6211,-8.707,-8.7461,-8.7461,-8.875,-8.957,-9.0,-9.0,-9.0234,-9.0586,-8.9297,-8.9219,-8.9961,-8.9531,-8.9609,-8.9922,-8.9062,-8.875,-8.875,-8.875,-8.875,-8.875,-5.5516,-5.6339,-5.6941,-5.7175,-5.9057,-6.0224,-5.9272,-5.9616,-5.9815,-5.9434,-6.0026,-6.0534,-6.0654,-6.0315,-5.991,-5.9441,-5.9518,-5.9972,-6.0909,-6.3081,-6.5195,-6.7192,-7.1103,-7.4845,-7.8233,-8.0793,-8.2855,-8.4435,-8.6088,-8.6901,-8.6901,-8.7055,-8.647,-8.5151,-8.4456,-8.2925,-8.087,-8.0712,-7.9755,-7.8268,-7.7078,-7.5707,-7.4441,-7.4426,-7.4141,-7.3795,-7.4629,-7.4938,-7.513,-7.613,-7.6938,-7.7473,-7.7159,-7.7833,-7.8413,-7.6333,-7.5636,0.0,0.0,0.0,0.0,0.0,0.0,0.0,0.0,-8.1093,-8.1093,-8.1093,-8.1093,-8.1131,-8.1285,-8.149,-8.1973,-8.3057,-8.3393,-8.4095,-8.5702,-8.6094,-8.6211,-8.6211,-8.6367,-8.6719,-8.7422,-8.7656,-8.7656,-8.75,-8.7656,-8.7539,-8.7031,-8.7304,-8.7031,-8.5976,-8.7109,-8.7383,-8.6679,-8.7539,-8.832,-8.8945,-8.8945,-8.9414,-9.0234,-9.0078,-9.0078,-9.0234,-9.0234,-9.0234,-9.0273,-9.0429,-9.0508,-9.0508,-9.0508,-9.0508,-9.0469,-9.0117,-9.0,-9.0,-5.5516,-5.6073,-5.6743,-5.7884,-5.8953,-5.9713,-5.9932,-5.9495,-5.8971,-5.8566,-5.8168,-5.7947,-5.8119,-5.8149,-5.8744,-6.0047,-6.0815,-6.1835,-6.3317,-6.4946,-6.6761,-6.8836,-7.2046,-7.5025,-7.7643,-8.0,-8.1774,-8.2856,-8.4419,-8.517,-8.5209,-8.5901,-8.5853,-8.5163,-8.4297,-8.3048,-8.1499,-7.9955,-7.8793,-7.7819,-7.6151,-7.5261,-7.4926,-7.4906,-7.44,-7.3812,-7.4487,-7.5197,-7.6092,-7.7669,-7.8284,-7.8512,-7.939,-7.9254,-7.8762,-7.8452,-7.7871,-7.7454,-7.8041,-7.8707,-7.9131,-7.8631,-7.9746,-8.0977,0.0,-8.1093,-8.1093,-8.1093,-8.1093,-8.1323,-8.2016,-8.2339,-8.2826,-8.3904,-8.4284,-8.46,-8.4999,-8.5703,-8.6211,-8.6211,-8.6875,-8.7383,-8.75,-8.8164,-8.8281,-8.7539,-8.8164,-8.7578,-8.5312,-8.664,-8.6758,-8.5117,-8.7344,-8.8515,-8.8437,-8.9297,-8.9765,-8.9844,-8.9844,-9.0312,-9.1133,-9.0351,-9.0429,-9.1133,-9.1133,-9.1133,-9.1211,-9.1992,-9.2304,-9.2304,-9.2304,-9.2304,-9.2109,-9.0586,-9.0,-9.0,-5.5455,-5.604,-5.691,-5.8839,-5.9736,-6.0038,-5.9744,-5.9197,-5.8348,-5.7012,-5.6558,-5.6286,-5.5917,-5.6767,-5.8164,-6.0268,-6.1163,-6.2422,-6.4424,-6.6862,-6.8945,-7.0656,-7.4174,-7.7198,-7.9594,-8.0607,-8.1531,-8.2424,-8.2594,-8.2708,-8.2708,-8.3016,-8.2763,-8.2052,-8.1787,-8.0788,-7.9301,-7.9189,-7.8387,-7.7088,-7.6756,-7.5973,-7.5044,-7.5426,-7.5041,-7.4436,-7.5764,-7.6438,0.0,-7.8092,-7.8169,-7.7896,-7.8474,-7.8413,-7.8104,-7.8104,-7.7871,-7.7608,-7.7771,-7.8784,-7.9592,-7.8707,-7.9823,-8.1093,-8.1093,-8.1093,-8.1246,-8.1708,-8.1785,-8.2054,-8.2901,-8.3117,-8.3579,-8.4773,-8.4628,-8.4683,-8.5545,-8.5849,-8.6142,-8.6647,-8.7386,-8.7943,-8.8163,-8.8388,-8.837,-8.8058,-8.8433,-8.7732,-8.5559,-8.7184,-8.7187,-8.4961,-8.8359,-8.9492,-8.8008,-9.0351,-9.1015,-9.0,-9.1015,-9.1172,-9.0547,-9.0703,-9.0976,-9.1328,-9.1836,-9.207,-9.207,-9.2461,-9.2617,-9.2617,-9.2617,-9.2617,-9.25,-9.1797,-9.1523,-9.1523,-5.5701,-5.6414,-5.7444,-5.9536,-6.0451,-6.0639,-5.9984,-5.9205,-5.8217,-5.6809,-5.6217,-5.6015,-5.622,-5.741,-5.9135,-6.1379,-6.2429,-6.3788,-6.5685,-6.862,-7.0809,-7.2075,-7.5241,-7.7847,-7.9764,-8.0049,-8.0317,-8.0663,-8.0469,-8.0285,-8.0054,-8.0136,-7.9857,-7.9204,-7.9214,-7.8378,-7.7095,-7.7843,-7.7318,-7.6018,-7.6469,-7.6029,-7.508,-7.5586,-7.5311,-7.4899,-7.6399,-7.6784,-7.6707,-7.7515,-7.7246,-7.6664,-7.7082,-7.7252,-7.7368,-7.8065,-7.8433,-7.8426,-7.7781,-7.8707,-7.9669,-7.9015,-8.0169,-8.1439,-8.1439,-8.1439,-8.167,-8.2477,-8.2477,-8.2631,-8.3747,-8.3939,-8.4368,-8.5658,-8.5143,-8.4832,-8.5649,-8.5975,-8.6268,-8.6618,-8.7666,-8.8461,-8.8828,-8.8748,-8.8573,-8.8339,-8.8458,-8.7735,-8.5895,-8.7594,-8.7692,-8.5664,-8.9297,-9.039,-8.8554,-9.125,-9.1953,-9.0742,-9.1758,-9.1719,-9.0742,-9.1367,-9.164,-9.1679,-9.2344,-9.2617,-9.2617,-9.2617,-9.2617,-9.2617,-9.2617,-9.2617,-9.2617,-9.2617,-9.2734,-9.2969,-5.6584,-5.7404,-5.8347,-5.9651,-6.0847,-6.1453,-6.1124,-5.9761,-5.8835,-5.8899,-5.7701,-5.7763,-6.0068,-6.1054,-6.2187,-6.383,-6.5433,-6.6716,-6.755,-7.0177,-7.2121,-7.2935,-7.4372,-7.5605,-7.6539,-7.7378,-7.7378,-7.6577,-7.7905,-7.8169,-7.7438,-7.767,-7.7778,-7.776,-7.7152,-7.6387,-7.5572,-7.5594,-7.514,-7.4363,-7.4379,-7.4672,-7.5107,-7.5127,-7.4927,-7.4822,-7.5707,-7.5515,-7.4899,-7.5784,-7.5515,-7.4956,-7.6011,-7.6333,-7.6837,-7.9304,-8.0459,-8.0608,-7.8915,-7.9131,-7.9785,-7.9785,-8.1016,-8.2247,-8.2247,-8.2247,-8.2516,-8.3362,-8.2901,-8.2824,-8.4555,-8.4863,-8.528,-8.6543,-8.603,-8.529,-8.4716,-8.6051,-8.6662,-8.5673,-8.7597,-8.9054,-8.9268,-8.9285,-8.8965,-8.8179,-8.8117,-8.7429,-8.5886,-8.746,-8.8126,-8.7422,-8.9922,-9.125,-9.1172,-9.2148,-9.2578,-9.25,-9.1719,-9.1758,-9.2539,-9.2539,-9.2578,-9.2578,-9.2578,-9.2617,-9.2617,-9.2617,-9.2617,-9.2617,-9.2617,-9.2617,-9.2617,-9.2617,-9.3125,-9.3867,-5.6759,-5.7007,-5.7858,-5.9878,-6.1016,-6.2051,-6.3424,-6.1947,-6.0691,-6.0775,-6.0375,0.0,0.0,0.0,0.0,0.0,-6.6182,-6.7237,-6.8977,-7.1321,-7.3036,-7.3846,-7.5759,-7.6751,-7.6676,-7.588,-7.5311,-7.4988,-7.4352,-7.4182,-7.4448,-7.4538,-7.4912,-7.546,-7.5232,-7.4654,-7.3856,-7.4444,-7.4218,-7.3484,-7.3855,-7.4448,-7.5145,-7.5551,-7.5626,-7.5592,0.0,-7.5091,-7.3937,-7.4245,-7.4514,-7.476,-7.5129,-7.6018,-7.7368,-7.9321,-8.0082,-8.0131,-7.9515,-7.9592,-7.9939,-8.0516,-8.1477,-8.2285,-8.2285,-8.2285,-8.2362,-8.267,-8.3439,-8.4362,-8.5478,-8.617,-8.6748,-8.7301,-8.6234,-8.5544,-8.618,-8.6128,-8.6342,-8.7128,-8.778,-8.8326,-8.8836,-8.9009,-8.8739,-8.7886,-8.7982,-8.7355,-8.5701,-8.7921,-8.8711,-8.7539,-9.0547,-9.1875,-9.1328,-9.2148,-9.2304,-9.1719,-9.1445,-9.1758,-9.2617,-9.2617,-9.2617,-9.2617,-9.2617,-9.2617,-9.2617,-9.2617,-9.2617,-9.2617,-9.2617,-9.2617,-9.2617,-9.2617,-9.3164,-9.3906,0.0,0.0,0.0,-6.1319,-6.2707,0.0,0.0,0.0,0.0,0.0,0.0,0.0,0.0,0.0,0.0,0.0,0.0,-6.8528,-6.9956,-7.1654,-7.2885,-7.3393,-7.4619,-7.5102,-7.4726,-7.341,-7.2973,-7.3575,-7.2364,-7.2222,-7.2973,-7.2815,-7.3004,-7.353,-7.3335,-7.3065,-7.2854,-7.3439,-7.3664,-7.3688,-7.3727,-7.4498,-7.5665,-7.5659,-7.5434,0.0,-7.513,-7.4207,-7.3091,-7.3399,-7.363,-7.3976,-7.4899,-7.6784,-7.8746,-7.9208,-7.9785,-8.0246,-8.0246,-8.0246,-8.0554,-8.1708,-8.2631,-8.3131,-8.2824,-8.2747,-8.2747,-8.2747,-8.3901,-8.517,-8.594,-8.7055,-8.805,-8.8545,-8.7733,-8.711,-8.7423,-8.7393,-8.7383,-8.7625,-8.7946,-8.8209,-8.8352,-8.8403,-8.8204,-8.7624,-8.7447,-8.7096,-8.6458,-8.8151,-8.8912,-8.8398,-9.0508,-9.1406,-9.0859,-9.1719,-9.1992,-9.1758,-9.1758,-9.207,-9.2617,-9.2617,-9.2617,-9.2617,-9.2617,-9.2617,-9.2617,-9.2617,-9.2617,-9.2617,-9.2617,-9.2617,-9.2617,-9.2617,-9.3164,-9.3906,0.0,0.0,0.0,0.0,0.0,0.0,0.0,0.0,0.0,0.0,0.0,0.0,0.0,0.0,0.0,0.0,0.0,0.0,-7.0499,-7.1216,-7.1669,-7.1706,-7.1266,-7.1007,-7.0945,-7.0225,-7.056,-7.21,-7.1779,-7.21,-7.2962,-7.2443,-7.2249,-7.2236,-7.1664,-7.1835,-7.2496,-7.2496,-7.3406,-7.4742,-7.3755,-7.467,-7.6488,-7.5456,-7.4484,-7.363,-7.3553,-7.2976,-7.2437,-7.3283,-7.3091,-7.2937,-7.5399,-7.8438,-8.0708,-7.9092,-7.9823,-8.117,-8.117,-8.1208,-8.1631,-8.3247,-8.4247,-8.4632,-8.3824,-8.3632,-8.3593,-8.3593,-8.4362,-8.5247,-8.6017,-8.7555,-8.9035,-9.0052,-9.0145,-8.9615,-8.8291,-8.9445,-8.9523,-8.7144,-8.8085,-8.8545,-8.7719,-8.7464,-8.738,-8.7396,-8.6665,-8.6707,-8.7967,-8.8117,-8.8718,-8.9882,-8.9961,-9.0039,-9.0078,-9.0937,-9.1797,-9.2617,-9.2617,-9.2617,-9.2617,-9.2617,-9.2617,-9.2617,-9.2617,-9.2617,-9.2617,-9.2617,-9.2617,-9.2617,-9.2617,-9.2617,-9.2617,-9.2617,-9.3125,-9.3828,0.0,0.0,0.0,0.0,0.0,0.0,0.0,0.0,0.0,0.0,0.0,0.0,0.0,0.0,0.0,0.0,0.0,0.0,-7.0465,-6.9804,-6.9611,-7.0284,-7.1352,-7.1378,-7.0337,-7.0153,-7.0227,-7.0669,-6.9969,-7.0676,-7.261,-7.2494,-7.2742,-7.3295,-7.317,-7.2863,-7.2496,-7.2496,-7.2991,-7.3744,-7.3307,-7.4061,-7.5475,-7.496,-7.5042,-7.5207,-7.3937,-7.3745,-7.4091,-7.4322,-7.5515,-7.713,-7.8438,-7.9438,-8.0169,-8.0362,-8.117,-8.1977,-8.1977,-8.2477,-8.3208,-8.4286,-8.4247,-8.4055,-8.4478,-8.4055,-8.3593,-8.3593,-8.5286,-8.6824,-8.7017,-8.794,-8.8799,-8.9051,-8.8027,-8.7378,-8.801,-8.7906,-8.7807,-8.7983,-8.7604,-8.7233,-8.6853,-8.6577,-8.6778,-8.7536,-8.7408,-8.7239,-8.715,-8.8521,-8.9196,-8.9023,-8.9648,-9.0312,-9.0976,-9.1836,-9.2383,-9.2617,-9.2617,-9.2617,-9.2617,-9.2617,-9.2617,-9.2617,-9.2617,-9.2617,-9.2617,-9.2617,-9.2617,-9.2617,-9.2617,-9.2617,-9.2617,-9.2617,-9.2734,-9.2929,0.0,0.0,0.0,0.0,0.0,0.0,0.0,0.0,0.0,0.0,0.0,0.0,0.0,0.0,0.0,0.0,0.0,0.0,0.0,-6.9857,-6.9466,-6.9243,-7.0548,-7.0729,-6.9596,-6.9229,-6.9743,-7.1138,-6.9302,-6.9596,-7.1982,-7.1615,-7.1688,-7.2129,-7.2496,-7.2606,-7.2524,-7.2789,-7.3474,0.0,0.0,-7.4828,-7.6081,-7.5503,-7.5361,-7.5361,-7.4822,-7.5361,-7.6361,-7.6361,-7.7323,-7.8592,-7.9092,-7.9746,-8.0554,-8.1362,-8.1939,-8.2477,-8.3247,-8.3785,-8.4362,-8.5209,-8.5055,-8.4632,-8.4401,-8.4247,-8.4055,-8.367,-8.5632,-8.7517,-8.7902,-8.8671,-8.9479,-9.0248,-8.9248,-8.8629,-8.946,-8.9265,-8.8998,-8.8794,-8.825,-8.7652,-8.7086,-8.7156,-8.7233,-8.7165,-8.719,-8.7425,-8.8027,-8.8399,-8.8594,-8.8711,-8.9179,-9.0039,-9.1289,-9.2148,-9.2617,-9.2617,-9.2617,-9.2617,-9.2617,-9.2617,-9.2617,-9.2617,-9.2617,-9.2617,-9.2617,-9.2617,-9.2617,-9.2617,-9.2617,-9.2617,-9.2617,-9.2617,-9.2617,-9.2617,0.0,0.0,0.0,0.0,0.0,0.0,0.0,0.0,0.0,0.0,-7.1668,-7.136,-7.2129,-7.2206,0.0,0.0,0.0,0.0,0.0,0.0,-7.0115,-6.8591,-6.9663,-6.9926,-6.9229,-6.8641,-6.9706,-7.2496,-6.9706,-6.9449,-7.1615,-7.0917,-7.0587,-7.0624,-7.1321,-7.2075,-7.2805,-7.3346,-7.4462,-7.5832,-7.5451,-7.6139,-7.7357,0.0,-7.5668,-7.5284,-7.6053,-7.7207,-7.8323,-7.8323,-7.8554,-7.8823,-7.8707,-7.9785,-8.1246,-8.2054,-8.2362,-8.2824,-8.4478,-8.4978,-8.5247,-8.594,-8.6017,-8.5593,-8.4247,-8.4516,-8.4901,-8.4247,-8.6055,-8.794,-8.8709,-8.9517,-9.0517,-9.1941,-9.1518,-9.1055,-9.1163,-9.1268,-9.0849,-8.9445,-8.9155,-8.8799,-8.7999,-8.8305,-8.8089,-8.7003,-8.6681,-8.737,-8.9242,-8.8057,-8.7782,-8.8828,-8.8867,-8.9726,-9.1445,-9.2226,-9.2617,-9.2617,-9.2617,-9.2617,-9.2617,-9.2617,-9.2617,-9.2617,-9.2617,-9.2617,-9.2617,-9.2617,-9.2617,-9.2617,-9.2617,-9.2617,-9.2617,-9.2617,-9.2617,-9.2617,0.0,0.0,0.0,0.0,0.0,0.0,0.0,0.0,0.0,0.0,-7.2937,-7.2014,0.0,0.0,0.0,0.0,0.0,0.0,0.0,0.0,0.0,-6.8867,-7.0275,-7.1027,-7.0917,-7.1394,-7.1945,-7.2496,-7.1945,-7.2202,-7.3266,-7.312,-7.3083,-7.3083,-7.323,-7.3637,-7.4242,-7.4334,-7.5108,-7.6292,-7.6217,-7.662,-7.7255,-7.6331,0.0,0.0,-7.8015,-7.7823,-7.7515,-7.7515,-7.89,-8.0516,-7.9785,-8.0285,-8.1246,-8.2054,-8.2824,-8.3593,-8.4632,-8.5401,-8.594,-8.6055,-8.5593,-8.5209,-8.5593,-8.5786,-8.6055,-8.6632,-8.8209,-8.9517,-8.9671,-9.0402,-9.0825,-9.0441,-9.021,-8.9976,-8.9513,-8.8842,-8.8662,-8.9233,-8.8533,-8.8274,-8.8954,-8.8193,-8.8052,-8.9079,-8.7643,-8.6989,-8.7529,-8.8106,-8.8827,-8.9765,-8.9765,-9.0625,-9.2344,-9.2539,-9.2617,-9.2617,-9.2617,-9.2617,-9.2617,-9.2617,-9.2617,-9.2617,-9.2617,-9.2617,-9.2617,-9.2617,-9.2617,-9.2617,-9.2617,-9.2617,-9.2617,-9.2617,-9.2617,-9.2617,0.0,0.0,0.0,0.0,0.0,0.0,0.0,-7.4591,-7.3783,-7.4591,-7.4014,-7.3514,-7.3514,-7.3514,-7.3822,0.0,0.0,0.0,0.0,0.0,0.0,-7.022,-7.1688,-7.2349,-7.1945,-7.2716,-7.334,-7.3744,0.0,-7.2312,-7.3083,-7.2642,-7.2459,-7.2459,-7.2899,-7.3647,-7.4597,-7.4945,-7.5836,-7.7111,-7.7399,-7.7652,-7.7861,-7.7438,0.0,0.0,-7.9669,-7.9592,-7.9323,-7.9746,-8.0439,-8.0862,-7.9554,-8.0323,-8.19,-8.2708,-8.3593,-8.4478,-8.5286,-8.5824,-8.6094,-8.6094,-8.5824,-8.5517,-8.5478,-8.5786,-8.6363,-8.7209,-8.8055,-8.8863,-8.9748,-8.9902,-8.9902,-8.9902,-8.9902,-8.997,-9.0142,-8.9884,-8.9837,-9.0236,-8.994,-8.9488,-8.9023,-8.8938,-8.8713,-8.8222,-8.7858,-8.7731,-8.7909,-8.8435,-8.9101,-8.9961,-9.0429,-9.1289,-9.2578,-9.2617,-9.2617,-9.2617,-9.2617,-9.2617,-9.2617,-9.2617,-9.2617,-9.2617,-9.2617,-9.2617,-9.2617,-9.2617,-9.2617,-9.2617,-9.2617,-9.2617,-9.2617,-9.2617,-9.2617,-9.2617,0.0,0.0,0.0,0.0,0.0,0.0,0.0,-7.4707,-7.4053,-7.4861,-7.4976,-7.4976,-7.4976,-7.4822,-7.4861,0.0,0.0,0.0,0.0,0.0,0.0,0.0,0.0,0.0,-7.3266,0.0,0.0,-7.5175,-7.3083,0.0,0.0,0.0,0.0,0.0,-7.2459,-7.3729,-7.5346,-7.581,-7.6834,0.0,0.0,-7.9169,-7.9361,0.0,0.0,0.0,0.0,-8.1631,-8.167,-8.1939,-8.1862,-8.1285,-7.9361,-8.0285,-8.2285,-8.3516,-8.4247,-8.4824,-8.5824,-8.6094,-8.6055,-8.5901,-8.5863,-8.5709,-8.5247,-8.567,-8.6401,-8.744,-8.7671,-8.8132,-8.9633,-8.9556,-8.944,-9.0094,-9.0479,-9.0748,-9.0902,-9.1045,-9.1083,-9.0937,-9.0736,-9.0199,-8.9161,-8.9445,-8.897,-8.7228,-8.7726,-8.8237,-8.8437,-8.8437,-8.8906,-8.9961,-9.0664,-9.1523,-9.2578,-9.2617,-9.2617,-9.2617,-9.2617,-9.2617,-9.2617,-9.2617,-9.2617,-9.2617,-9.2617,-9.2617,-9.2617,-9.2617,-9.2617,-9.2617,-9.2617,-9.2617,-9.2617,-9.2617,-9.2617,-9.2617,0.0,0.0,0.0,0.0,0.0,0.0,0.0,-7.5207,-7.4899,-7.5784,-7.5861,-7.5861,-7.5861,-7.5168,-7.5361,0.0,0.0,0.0,0.0,0.0,0.0,0.0,0.0,0.0,0.0,0.0,0.0,-7.5983,-7.5065,0.0,0.0,0.0,0.0,0.0,0.0,-7.5139,-7.7681,-7.7764,0.0,0.0,0.0,0.0,0.0,0.0,0.0,0.0,0.0,-8.3362,-8.3131,-8.1708,-8.217,-8.2939,-8.0477,-8.04,-8.167,-8.4093,-8.4286,-8.4055,-8.567,-8.6094,-8.594,-8.5209,-8.5016,-8.517,-8.5863,-8.6055,-8.6555,-8.8248,-8.8556,-8.8863,-8.9748,-9.0479,-9.0979,-9.1056,-9.2364,-9.2556,-9.0325,-9.0052,-9.0052,-9.0017,-8.8705,-8.8421,-9.0016,-8.8637,-8.7751,-8.7958,-8.7498,-8.7342,-8.7617,-8.7617,-8.8359,-8.9961,-9.0078,-9.0937,-9.2578,-9.2617,-9.2617,-9.2617,-9.2617,-9.2617,-9.2617,-9.2617,-9.2617,-9.2617,-9.2617,-9.2617,-9.2617,-9.2617,-9.2617,-9.2617,-9.2617,-9.2617,-9.2617,-9.2617,-9.2617,-9.2617,0.0,0.0,0.0,0.0,0.0,0.0,-7.5861,-7.5245,-7.5014,-7.5899,-7.6015,-7.6015,-7.6015,-7.5707,-7.5745,-7.6476,0.0,0.0,0.0,0.0,0.0,0.0,0.0,0.0,0.0,0.0,-7.6827,-7.6827,-7.6019,0.0,0.0,0.0,0.0,0.0,0.0,-7.6653,-7.8552,-7.8552,0.0,0.0,0.0,0.0,0.0,0.0,0.0,0.0,0.0,0.0,-8.5093,-8.4939,-8.4978,-8.4939,-8.3901,-8.3131,-8.2708,-8.3208,-8.3824,-8.4401,-8.4555,-8.4978,-8.5286,-8.4978,-8.5247,-8.5709,-8.6017,-8.6094,-8.644,-8.7671,-8.7517,-8.7555,-8.894,-8.9017,-8.9094,-8.9594,-9.0248,-9.0325,-8.9325,-8.9594,-8.971,-8.9248,-8.9017,-8.8815,-8.8568,-8.7963,-8.7513,-8.7345,-8.7089,-8.7008,-8.7233,-8.8355,-8.9297,-8.9961,-9.1015,-9.1914,-9.2578,-9.2617,-9.2617,-9.2617,-9.2617,-9.2617,-9.2617,-9.2617,-9.2617,-9.2617,-9.2617,-9.2617,-9.2617,-9.2617,-9.2617,-9.2617,-9.2617,-9.2617,-9.2617,-9.2617,-9.2617,-9.2617,0.0,0.0,0.0,0.0,0.0,-7.4758,-7.5602,-7.4839,-7.4577,-7.5587,-7.5718,-7.5879,-7.6346,-7.6361,-7.6361,-7.6361,-7.6331,0.0,0.0,0.0,0.0,0.0,0.0,0.0,0.0,0.0,-7.742,-7.7708,-7.6864,-7.6544,0.0,0.0,-7.6378,-7.6543,0.0,0.0,0.0,0.0,0.0,0.0,0.0,0.0,0.0,0.0,0.0,0.0,0.0,0.0,0.0,0.0,0.0,-8.6017,-8.5517,-8.4901,-8.4209,-8.3593,-8.4132,-8.4824,-8.4439,-8.4786,-8.5209,-8.4978,-8.5324,-8.5824,-8.6055,-8.594,-8.6055,-8.7171,-8.6709,-8.6632,-8.8363,-8.7979,-8.7748,-8.8863,-8.9056,-8.8863,-8.8402,-8.9017,-8.9325,-8.8748,-8.8979,-8.8786,-8.7863,-8.7441,-8.7049,-8.6616,-8.6671,-8.6783,-8.689,-8.8585,-8.9684,-9.0,-9.1445,-9.2344,-9.2617,-9.2617,-9.2617,-9.2617,-9.2617,-9.2617,-9.2617,-9.2617,-9.2617,-9.2617,-9.2617,-9.2617,-9.2617,-9.2617,-9.2617,-9.2617,-9.2617,-9.2617,-9.2617,-9.2617,-9.2617,-9.2617,0.0,0.0,0.0,0.0,0.0,0.0,-7.4994,-7.3929,-7.3501,-7.4922,-7.5109,-7.5667,-7.7124,-7.7284,-7.7284,-7.7284,-7.6675,0.0,0.0,0.0,0.0,0.0,0.0,0.0,0.0,0.0,-7.7745,-7.8589,-7.7708,-7.7622,-7.8272,-7.7479,-7.7392,-7.7976,0.0,0.0,0.0,0.0,0.0,0.0,0.0,0.0,-8.7718,0.0,0.0,0.0,0.0,0.0,0.0,0.0,0.0,0.0,0.0,-8.4747,-8.6055,-8.6055,-8.5517,-8.5093,-8.5863,-8.6094,-8.5901,-8.5093,-8.4901,-8.5132,-8.594,-8.5478,-8.5401,-8.7055,-8.6709,-8.6632,-8.8363,-8.7979,-8.794,-8.9633,-8.9902,-8.9325,-8.7632,-8.8171,-8.8709,-8.8709,-8.794,-8.7748,-8.8594,-8.7132,-8.6094,-8.611,-8.636,-8.648,-8.6531,-8.7727,-8.8907,-8.9961,-9.0859,-9.1719,-9.2578,-9.2617,-9.2617,-9.2617,-9.2617,-9.2617,-9.2617,-9.2617,-9.2617,-9.2617,-9.2617,-9.2617,-9.2617,-9.2617,-9.2617,-9.2617,-9.2617,-9.2617,-9.2617,-9.2617,-9.2617,-9.2617,0.0,0.0,0.0,0.0,0.0,0.0,0.0,-7.4502,-7.4619,-7.5034,-7.5999,-7.6763,-7.7231,-7.7784,-7.813,-7.813,-7.7431,0.0,0.0,0.0,0.0,0.0,0.0,0.0,0.0,-7.7687,-7.8332,-7.8589,-7.9313,-7.9762,-8.0013,-8.0646,-8.0726,-8.0324,-8.0755,-8.0876,0.0,0.0,0.0,0.0,0.0,-8.7503,-8.7718,0.0,0.0,0.0,0.0,0.0,0.0,0.0,0.0,0.0,0.0,0.0,0.0,-8.6094,-8.594,-8.5517,-8.4632,-8.5247,-8.5901,-8.5093,-8.5324,-8.5632,-8.5363,-8.5517,-8.5709,-8.5709,-8.5901,-8.644,-8.7594,-8.7094,-8.7094,-8.8786,-8.8594,-8.8017,-8.7478,-8.8132,-8.8248,-8.7055,-8.6671,-8.6632,-8.6901,-8.644,-8.6094,-8.6094,-8.6184,-8.6288,-8.6506,-8.7582,-8.8674,-8.9766,-9.0777,-9.1719,-9.2578,-9.2617,-9.2617,-9.2617,-9.2617,-9.2617,-9.2617,-9.2617,-9.2617,-9.2617,-9.2617,-9.2617,-9.2617,-9.2617,-9.2617,-9.2617,-9.2617,-9.2617,-9.2617,-9.2617,-9.2617,-9.2617,0.0,0.0,0.0,0.0,0.0,0.0,0.0,-7.4056,-7.4309,-7.4842,-7.57,-7.6577,-7.7308,-7.7856,-7.8267,-7.8477,-7.8323,0.0,0.0,0.0,0.0,0.0,0.0,0.0,-7.6893,-7.818,-7.9149,-7.9743,-8.0661,-8.1405,-8.1984,-8.3091,-8.3104,-8.226,-8.2979,-8.2824,0.0,0.0,0.0,0.0,-8.7055,-8.7267,-8.7121,0.0,0.0,0.0,0.0,0.0,0.0,0.0,0.0,0.0,0.0,0.0,0.0,0.0,-8.6324,-8.6286,-8.4901,-8.5324,-8.5978,-8.5478,-8.5747,-8.5978,-8.5478,-8.5747,-8.5978,-8.5478,-8.5747,-8.6363,-8.7248,-8.6709,-8.6555,-8.7979,-8.7748,-8.7286,-8.6978,-8.7671,-8.7825,-8.6709,-8.6594,-8.6594,-8.6594,-8.6286,-8.6094,-8.6094,-8.6094,-8.6168,-8.6346,-8.7135,-8.8055,-8.9064,-9.0527,-9.1562,-9.2109,-9.2422,-9.2617,-9.2617,-9.2617,-9.2617,-9.2617,-9.2617,-9.2617,-9.2617,-9.2617,-9.2617,0.0,-9.2617,-9.2617,-9.2617,-9.2617,-9.2617,-9.2617,-9.2617,-9.2617,-9.2617,0.0,0.0,0.0,0.0,0.0,0.0,0.0,-7.3037,-7.3204,-7.4517,-7.4721,-7.5464,-7.7398,-7.7665,-7.7944,-7.8523,0.0,0.0,0.0,0.0,0.0,0.0,0.0,0.0,-7.6941,-7.8466,-8.0066,-8.1688,-8.1812,-8.2589,-8.4015,-8.4856,-8.4748,-8.3785,-8.4632,-8.4516,-8.3747,-8.4632,-8.5478,-8.6324,-8.7017,-8.6863,0.0,0.0,0.0,0.0,0.0,0.0,0.0,0.0,0.0,0.0,0.0,0.0,0.0,0.0,0.0,0.0,0.0,-8.617,-8.617,-8.6132,-8.6094,-8.6055,-8.594,-8.5978,0.0,-8.5863,-8.594,-8.6247,-8.7055,-8.6594,-8.6401,-8.7248,-8.744,-8.7171,-8.6324,-8.6824,-8.7325,-8.7401,-8.7363,-8.7325,-8.7401,-8.6594,-8.6094,-8.6094,-8.6094,-8.6094,-8.6094,-8.6572,-8.7167,-8.7992,-9.0039,-9.1133,-9.1211,-9.207,-9.25,-9.25,-9.2578,-9.2617,-9.2617,-9.2617,-9.2617,-9.2617,-9.2617,-9.2617,-9.2617,-9.2617,-9.2617,-9.2617,-9.2578,-9.2577,-9.2577,-9.2577,-9.2577,-9.2577,0.0,0.0,0.0,0.0,0.0,0.0,0.0,0.0,0.0,0.0,-7.5906,-7.6586,-7.7475,-7.818,-7.8859,0.0,0.0,0.0,0.0,0.0,0.0,0.0,0.0,0.0,-7.9279,-7.9819,-8.0632,-8.1675,-8.2814,-8.3891,-8.4933,-8.6239,-8.6377,-8.5517,-8.5747,-8.5363,-8.467,-8.5478,-8.6709,-8.7979,-8.6863,-8.6671,0.0,0.0,0.0,0.0,-8.3978,-8.4478,0.0,0.0,0.0,0.0,0.0,0.0,0.0,0.0,-8.6247,-8.6363,-8.617,0.0,-8.694,-8.6286,-8.6094,-8.5747,0.0,-8.4709,-8.4786,-8.3478,-8.4247,-8.5247,-8.544,-8.5824,-8.6401,-8.7248,-8.794,-8.8094,-8.7209,-8.6709,-8.6671,-8.7325,-8.6824,-8.6671,-8.7325,-8.6594,-8.6094,-8.6094,-8.6094,-8.6094,-8.6094,-8.6572,-8.6894,-8.7089,-8.8552,-8.9648,-9.0312,-9.1172,-9.1601,-9.1601,-9.2265,-9.2617,-9.2617,-9.2617,-9.2617,-9.2617,-9.2617,-9.2617,-9.2617,-9.2617,-9.2617,-9.2578,-9.2356,-9.2294,-9.2284,-9.2111,-9.2178,-9.2294,0.0,0.0,0.0,0.0,0.0,0.0,0.0,0.0,0.0,0.0,0.0,0.0,0.0,0.0,0.0,0.0,0.0,0.0,0.0,0.0,0.0,0.0,0.0,-7.9922,-7.996,-8.1232,-8.2086,-8.2563,-8.4137,-8.5378,-8.624,-8.7452,-8.7517,-8.6671,-8.6286,-8.5863,-8.5517,-8.6324,-8.7248,-8.8055,-8.7517,0.0,0.0,0.0,0.0,0.0,-8.3131,-8.3824,0.0,-8.4901,-8.544,-8.6094,0.0,0.0,0.0,0.0,-8.6094,-8.6209,-8.6594,-8.7325,-8.7786,-8.6901,-8.7017,-8.6863,-8.5132,-8.4824,-8.4516,-8.317,-8.3632,-8.4439,-8.4824,-8.4939,-8.5363,-8.6594,-8.6901,-8.7055,-8.7363,-8.7325,-8.7325,-8.7401,-8.6978,-8.6709,-8.6786,-8.6363,-8.6094,-8.6094,-8.6094,-8.6094,-8.6094,-8.6572,-8.6817,-8.6817,-8.8045,-8.8945,-8.9414,-9.0273,-9.0898,-9.1328,-9.1797,-9.2226,-9.2617,-9.2617,-9.2617,-9.2617,-9.2617,-9.2617,-9.2617,-9.2617,-9.2536,-9.24,-9.2241,-9.2144,-9.2029,-9.1926,-9.1958,-9.2093,0.0,0.0,0.0,0.0,0.0,0.0,0.0,0.0,0.0,0.0,0.0,0.0,0.0,0.0,0.0,0.0,0.0,0.0,0.0,0.0,0.0,0.0,-8.1362,-8.1054,-8.0592,-8.2324,-8.3478,-8.3978,-8.5401,-8.6671,-8.7786,-8.8671,-8.8556,-8.7555,-8.6709,-8.6286,-8.6363,-8.7094,-8.7555,-8.7825,-8.8286,0.0,0.0,0.0,0.0,0.0,0.0,0.0,0.0,-8.4901,-8.544,-8.6094,-8.6094,0.0,0.0,0.0,0.0,0.0,-8.7171,-8.8132,-8.8671,-8.7825,-8.8132,-8.8248,-8.6517,-8.5363,-8.4439,-8.3593,-8.3401,-8.3632,-8.4362,-8.4209,-8.4439,-8.5863,-8.5632,-8.5747,-8.7017,-8.7825,-8.8055,-8.7478,-8.7286,-8.6978,-8.6363,-8.617,-8.617,-8.6286,-8.6286,-8.6363,-8.6478,-8.6921,-8.7167,-8.7167,-8.8318,-8.8906,-8.8906,-8.9765,-9.0508,-9.1094,-9.1367,-9.1836,-9.2422,-9.2539,-9.2617,-9.2617,-9.2734,-9.2734,-9.2617,-9.2694,-9.2519,-9.2173,-9.2134,-9.1987,-9.186,-9.1821,-9.1831,-9.1905,0.0,0.0,0.0,0.0,0.0,0.0,0.0,0.0,0.0,0.0,0.0,0.0,0.0,0.0,0.0,0.0,0.0,0.0,0.0,0.0,0.0,-8.3247,-8.2516,-8.2747,-8.4093,-8.2401,-8.2862,-8.5709,-8.5978,-8.7286,-8.9556,-9.0402,-8.9979,-8.844,-8.7594,-8.7209,-8.7209,-8.7325,-8.8209,-8.9402,-8.8132,0.0,0.0,0.0,0.0,0.0,0.0,0.0,0.0,-8.4901,-8.544,-8.6094,-8.6094,0.0,0.0,0.0,0.0,0.0,-8.7171,-8.8517,-8.9517,-8.8709,-8.8594,-8.8248,-8.6517,-8.4901,-8.3555,-8.267,-8.2516,-8.2554,-8.267,-8.4362,-8.5786,-8.6055,-8.6632,-8.6863,-8.6363,-8.6401,-8.6709,-8.7325,-8.6748,-8.6555,-8.7132,-8.6517,-8.6401,-8.7132,-8.7209,-8.7517,-8.8248,-8.8705,-8.8918,-8.8918,-8.9489,-8.9804,-8.9804,-9.0664,-9.0781,-9.0234,-9.1719,-9.207,-9.1523,-9.2265,-9.2617,-9.2656,-9.3398,-9.3281,-9.2656,-9.3132,-9.2897,-9.2159,-9.1743,-9.159,-9.1554,-9.1346,-9.1397,-9.1715,0.0,0.0,0.0,0.0,0.0,0.0,0.0,0.0,0.0,0.0,0.0,0.0,0.0,0.0,0.0,0.0,0.0,0.0,0.0,0.0,-8.4939,-8.4939,-8.4132,-8.3632,-8.3516,-8.417,-8.5016,-8.6094,-8.794,-8.9479,-9.0594,-9.0517,-8.9863,-8.8671,-8.7786,-8.7671,-8.8132,-8.8556,-8.921,-8.9863,0.0,0.0,0.0,0.0,0.0,0.0,0.0,0.0,0.0,0.0,-8.5786,-8.6094,-8.6094,0.0,0.0,0.0,0.0,0.0,-8.7748,-8.8979,-8.994,-9.0017,-8.971,-8.8671,-8.6055,-8.4478,-8.3478,-8.3093,-8.2631,-8.2708,-8.4093,-8.4555,-8.4747,-8.4747,-8.6247,-8.7094,-8.6209,-8.6901,-8.7478,-8.7401,-8.7055,-8.6786,-8.6709,-8.6748,-8.6978,-8.7363,-8.7825,-8.8286,-8.8671,-8.9093,-8.9307,-8.9307,-9.0192,-9.0703,-9.0703,-9.1562,-9.1562,-9.0703,-9.1992,-9.2656,-9.2734,-9.3594,-9.3984,-9.4023,-9.4414,-9.4375,-9.4023,-9.4132,-9.3621,-9.2696,-9.2321,-9.1856,-9.1338,-9.1241,-9.1917,-9.3013,0.0,0.0,0.0,0.0,0.0,0.0,0.0,0.0,0.0,0.0,0.0,0.0,0.0,0.0,0.0,0.0,0.0,0.0,0.0,0.0,-8.5363,-8.5786,-8.5401,-8.467,-8.3516,-8.5863,-8.7055,-8.6978,-9.0017,-9.1595,-9.1787,-9.1095,-9.0133,-8.894,-8.8286,-8.8363,-8.9017,-8.9633,-9.0017,-9.0287,0.0,0.0,0.0,0.0,0.0,0.0,0.0,0.0,0.0,0.0,0.0,0.0,0.0,0.0,0.0,-8.6094,-8.6094,-8.6478,-8.8209,-8.9133,-8.9825,-9.0671,-9.0248,-8.894,-8.6401,-8.4632,-8.367,-8.3862,-8.3208,-8.3247,-8.544,-8.5093,-8.4478,-8.4478,-8.6286,-8.7248,-8.6017,-8.7325,-8.8055,-8.7209,-8.7094,-8.6901,-8.644,-8.7017,-8.7555,-8.7979,-8.8594,-8.9056,-8.9248,-8.9675,-8.9891,-8.9891,-9.1012,-9.1601,-9.1601,-9.2265,-9.2148,-9.1328,-9.2383,-9.3164,-9.3633,-9.4726,-9.5195,-9.5195,-9.5429,-9.539,-9.5195,-9.5044,-9.44,-9.3414,-9.291,-9.2241,-9.1518,-9.171,-9.2856,-9.4336,0.0,0.0,0.0,0.0,0.0,0.0,0.0,0.0,0.0,0.0,0.0,0.0,0.0,0.0,0.0,0.0,0.0,0.0,0.0,0.0,-8.5709,-8.5016,-8.567,-8.6324,-8.7017,-8.6478,-8.7325,-8.9633,-9.1479,-9.2787,-9.3518,-9.3441,-9.2133,-8.9825,-8.9748,-8.9748,-8.9825,-8.9902,-9.0364,-9.1133,-9.1171,0.0,0.0,0.0,0.0,0.0,0.0,0.0,0.0,0.0,0.0,0.0,0.0,0.0,-8.6094,-8.6094,-8.6094,-8.6478,-8.8209,-8.8748,-8.8979,-8.9787,-8.9402,-8.8709,-8.8479,-8.5901,-8.3824,-8.4632,-8.4093,-8.3824,-8.4786,-8.617,-8.7132,-8.7132,-8.794,-8.7748,-8.5324,-8.644,-8.7171,-8.6286,-8.6209,-8.6478,-8.7209,-8.7363,-8.8055,-8.9594,-8.9787,-9.0171,-9.0979,-9.1459,-9.172,-9.172,-9.2222,-9.25,-9.25,-9.2578,-9.2148,-9.1328,-9.3008,-9.3437,-9.2734,-9.4414,-9.5195,-9.5234,-9.6054,-9.5937,-9.5233,-9.5524,-9.5123,-9.4203,-9.2975,-9.2476,-9.2479,-9.3249,-9.4113,-9.4951,0.0,0.0,0.0,0.0,0.0,0.0,0.0,0.0,0.0,0.0,0.0,0.0,0.0,0.0,0.0,0.0,0.0,0.0,0.0,-8.5363,-8.6209,-8.644,-8.7286,-8.8094,-8.894,-8.8632,-8.9479,-9.1518,-9.2672,-9.3403,-9.3672,-9.2633,-9.1325,-8.9902,-8.9902,-8.9902,-8.9923,-9.0479,-9.0902,-9.121,-9.121,-9.1018,0.0,0.0,0.0,0.0,0.0,0.0,0.0,0.0,-8.6094,-8.6094,-8.6094,-8.6094,-8.6094,-8.6094,-8.6094,-8.6363,-8.7555,-8.8286,-8.8902,-8.971,-8.8902,-8.7748,-8.7209,-8.5709,-8.4786,-8.617,-8.5363,-8.4824,-8.6209,-8.6517,-8.6786,-8.7325,-8.7671,-8.7555,-8.6594,-8.7478,-8.8094,-8.7748,-8.7709,-8.7863,-8.8171,-8.8671,-8.921,-8.9863,-9.0402,-9.0864,-9.1171,-9.1486,-9.1749,-9.1875,-9.2198,-9.2445,-9.2617,-9.2617,-9.2422,-9.2148,-9.3867,-9.4531,-9.4258,-9.5976,-9.6758,-9.6758,-9.7109,-9.6987,-9.6556,-9.6514,-9.5903,-9.4923,-9.3698,-9.3595,-9.4018,-9.3787,-9.4595,-9.5784,0.0,0.0,0.0,0.0,0.0,0.0,0.0,0.0,0.0,0.0,0.0,0.0,0.0,0.0,0.0,0.0,0.0,0.0,-8.4401,-8.5978,-8.7171,-8.7786,-8.8363,-8.921,-9.0287,-9.0594,-9.1441,-9.2864,-9.371,-9.398,-9.3672,-9.2287,-9.1171,-9.0325,-9.0325,-9.0325,-9.0325,-9.0671,-9.0941,-9.1171,-9.0902,-9.0941,0.0,0.0,0.0,0.0,0.0,0.0,0.0,0.0,-8.6094,-8.6094,-8.6094,-8.6094,-8.6094,-8.6094,-8.6094,-8.6363,-8.7517,-8.8017,-8.8556,-8.9633,-8.8632,-8.7248,-8.6632,-8.567,-8.5286,-8.6709,-8.6286,-8.6055,-8.7171,-8.7132,-8.7132,-8.7709,-8.8017,-8.8094,-8.7863,-8.8556,-8.8979,-8.8709,-8.8709,-8.8786,-8.9056,-8.9594,-9.0017,-9.0287,-9.0864,-9.121,-9.121,-9.1383,-9.1626,-9.1875,-9.2105,-9.2343,-9.2617,-9.2617,-9.2734,-9.3047,-9.4492,-9.5195,-9.5234,-9.6679,-9.7461,-9.7695,-9.7695,-9.7604,-9.7358,-9.7107,-9.6338,-9.5223,-9.472,-9.4711,-9.4941,-9.4634,-9.5288,-9.6245,0.0,0.0,0.0,0.0,0.0,0.0,0.0,0.0,0.0,0.0,0.0,0.0,0.0,0.0,0.0,0.0,0.0,0.0,-8.617,-8.7709,-8.8671,-8.8709,-8.8709,-8.9479,-9.1171,-9.2056,-9.2903,-9.371,-9.4557,-9.4518,-9.3672,-9.2864,-9.2018,-9.1171,-9.1171,-9.1171,-9.1133,-9.0287,-9.0402,-9.1133,-9.0248,-9.0441,-9.1018,0.0,0.0,0.0,0.0,0.0,0.0,0.0,-8.6094,-8.6094,-8.6094,-8.6094,-8.6094,-8.6094,-8.6094,-8.6478,-8.8209,-8.8055,-8.7786,-8.9479,-8.8632,-8.7401,-8.7401,-8.6132,-8.517,-8.594,-8.6824,-8.7401,-8.7401,-8.8132,-8.8709,-8.8709,-8.9363,-8.9633,-8.8825,-8.9402,-8.9633,-8.8825,-8.8709,-8.9017,-8.9863,-8.9902,-9.0287,-9.1133,-9.121,-9.121,-9.121,-9.1383,-9.1626,-9.1875,-9.2105,-9.2343,-9.2617,-9.2617,-9.3047,-9.3906,-9.4765,-9.5195,-9.5234,-9.6094,-9.6953,-9.7695,-9.7695,-9.7565,-9.7397,-9.7099,-9.6191,-9.5095,-9.5942,-9.5788,-9.5095,-9.598,-9.6288,-9.6322,0.0,0.0,0.0,0.0,0.0,0.0,0.0,0.0,0.0,0.0,0.0,0.0,0.0,0.0,0.0,0.0,0.0,0.0,-8.617,-8.7171,-8.8055,-8.8671,-8.9248,-9.0364,-9.2095,-9.3518,-9.4364,-9.4595,-9.3672,-9.2787,-9.1941,-9.1056,-9.0248,-8.9479,-9.0017,-8.9979,-8.944,-8.9787,-9.0056,-9.0325,-9.0671,-9.0979,-9.1018,0.0,0.0,0.0,0.0,0.0,0.0,0.0,0.0,0.0,-8.6824,-8.7017,-8.7017,-8.7017,-8.7017,-8.6978,-8.6901,-8.7132,-8.7671,-8.8786,-8.8209,-8.7555,-8.8171,-8.744,-8.6748,-8.6978,-8.7709,-8.8286,-8.8286,-8.8517,-8.8902,-8.944,-8.9748,-8.9825,-8.9594,-9.0287,-9.0748,-9.0479,-9.0441,-9.0556,-9.0787,-9.0825,-9.0941,-9.1171,-9.121,-9.121,-9.121,-9.1253,-9.1498,-9.1905,-9.1942,-9.2188,-9.2617,-9.2617,-9.3047,-9.3906,-9.414,-9.4922,-9.6133,-9.6953,-9.7461,-9.7695,-9.7555,-9.7354,-9.7082,-9.6693,-9.6266,-9.5942,-9.6211,-9.6134,-9.5942,-9.6211,-9.6288,-9.6322,0.0,0.0,0.0,0.0,0.0,0.0,0.0,0.0,-8.0455,-8.1142,-8.2684,-8.444,0.0,0.0,0.0,-8.8363,-8.8402,-8.8017,-8.7171,-8.794,-8.8632,-8.9133,-9.0287,-9.1748,-9.3441,-9.448,-9.4672,-9.4018,-9.2979,-9.2056,-9.1171,-9.0325,-8.9633,-8.9248,-9.0402,-9.0479,-8.971,-9.021,-9.0441,-9.0441,-9.0633,-9.0671,-9.0556,0.0,0.0,0.0,0.0,0.0,0.0,0.0,0.0,0.0,-8.6324,-8.6632,-8.6863,-8.6863,-8.6863,-8.6901,-8.7094,-8.7248,-8.7594,-8.8479,-8.8017,-8.7555,-8.8055,-8.7517,-8.6978,-8.7325,-8.7825,-8.8286,-8.8632,-8.894,-8.9325,-8.9825,-9.021,-9.0441,-9.0441,-9.0864,-9.121,-9.121,-9.121,-9.121,-9.121,-9.121,-9.121,-9.121,-9.121,-9.121,-9.121,-9.121,-9.1421,-9.1905,-9.1914,-9.2144,-9.2617,-9.2929,-9.3554,-9.4414,-9.4765,-9.5664,-9.6992,-9.7148,-9.7383,-9.7695,-9.7373,-9.7091,-9.6815,-9.6448,-9.6288,-9.6288,-9.6288,-9.6288,-9.6249,-9.5903,-9.6019,-9.6302,0.0,0.0,0.0,0.0,0.0,0.0,0.0,-8.2033,-8.3286,-8.3956,-8.4744,-8.6183,0.0,0.0,0.0,-8.994,-8.9902,-8.9479,-8.8748,-8.9325,-8.9748,-8.9902,-9.171,-9.3441,-9.496,-9.5057,-9.4249,-9.2479,-9.2402,-9.1864,-9.0825,-9.0133,-8.9787,-8.9863,-9.1441,-9.1748,-9.1095,-9.1018,-9.0979,-9.0902,-9.021,-8.9863,-8.971,-8.8902,0.0,0.0,0.0,0.0,0.0,0.0,0.0,0.0,-8.5247,-8.5555,-8.6209,-8.6132,-8.6209,-8.6671,-8.8171,-8.8055,-8.7709,-8.8594,-8.8171,-8.7517,-8.7401,-8.6786,-8.6478,-8.7325,-8.7594,-8.7863,-8.8671,-8.9479,-9.0017,-9.0017,-9.0671,-9.121,-9.121,-9.121,-9.121,-9.121,-9.121,-9.121,-9.121,-9.121,-9.121,-9.121,-9.121,-9.121,-9.121,-9.121,-9.1421,-9.1905,-9.1914,-9.2144,-9.2695,-9.3515,-9.4375,-9.5312,-9.6133,-9.6914,-9.7695,-9.6953,-9.6991,-9.7611,-9.7181,-9.6838,-9.6556,-9.639,-9.6288,-9.6288,-9.6211,-9.6172,-9.6095,-9.5211,-9.5365,-9.6047,0.0,0.0,0.0,0.0,0.0,0.0,-8.1358,-8.2716,-8.4009,-8.4798,-8.5493,-8.6876,-8.9385,-8.9094,0.0,-9.0787,-8.971,-8.8863,-8.8709,-8.8209,-8.8517,-8.9863,-9.2826,-9.4634,-9.498,-9.5672,-9.4864,-9.2479,-9.1825,-9.0364,-8.8209,-8.8709,-8.894,-8.8979,-8.9325,-8.9748,-9.0133,-8.9517,-8.9248,-8.9286,-8.971,-8.9517,-8.8863,-8.8017,-8.7555,0.0,0.0,0.0,0.0,0.0,0.0,0.0,-8.5901,-8.644,-8.6978,-8.6286,-8.7055,-8.8055,-8.7748,-8.8017,-8.8632,-8.944,-8.9017,-8.8248,-8.7555,-8.7248,-8.7363,-8.8248,-8.8902,-8.944,-8.9633,-9.0364,-9.0941,-9.0941,-9.1095,-9.121,-9.121,-9.121,-9.121,-9.121,-9.121,-9.121,-9.121,-9.121,-9.121,-9.121,-9.121,-9.121,-9.121,-9.121,-9.1421,-9.1905,-9.1914,-9.2456,-9.3593,-9.3828,-9.4687,-9.6211,-9.6406,-9.6914,-9.7695,-9.7539,-9.7352,-9.7145,-9.7057,-9.6759,-9.6355,-9.6325,-9.6288,-9.6249,-9.5557,-9.5288,-9.5172,-9.4287,-9.4095,-9.439,0.0,0.0,0.0,0.0,0.0,0.0,0.0,0.0,-8.576,-8.6202,-8.6534,-8.7248,-8.8556,-8.8325,0.0,0.0,-8.8594,-8.8248,-8.8671,-8.8248,-8.9133,-9.1595,-9.3441,-9.4749,-9.5595,-9.5672,-9.4634,-9.2479,-9.121,-8.9479,-8.7401,-8.7863,-8.8055,-8.8094,-8.8902,-8.9517,-8.9902,-8.9902,-8.9671,-8.9325,-8.9748,-8.9171,-8.8017,-8.7555,-8.7401,-8.7286,-8.6401,0.0,0.0,0.0,0.0,0.0,0.0,0.0,-8.6094,-8.567,-8.617,-8.6978,-8.7325,-8.8017,-8.8902,-8.971,-8.9594,-8.9056,-8.8209,-8.8325,-8.8748,-8.9171,-8.9633,-9.0056,-9.0441,-9.0902,-9.121,-9.121,-9.121,-9.121,-9.121,-9.121,-9.121,-9.121,-9.121,-9.121,-9.121,-9.121,-9.1364,-9.1787,-9.1441,-9.1364,-9.1787,-9.1441,-9.1369,-9.1717,-9.1821,-9.2497,-9.3691,-9.4256,-9.5195,-9.6484,-9.6875,-9.7304,-9.7695,-9.7607,-9.7363,-9.7003,-9.6871,-9.6638,-9.6288,-9.6288,-9.6057,-9.5634,-9.5172,-9.4749,-9.4287,-9.3441,-9.3364,-9.3851,0.0,0.0,0.0,0.0,0.0,0.0,0.0,0.0,0.0,-8.7401,-8.7286,-8.7209,-8.7363,-8.7132,-8.7094,0.0,0.0,0.0,-8.8632,-8.8979,-9.0441,-9.3364,-9.3633,-9.4364,-9.5826,-9.5134,-9.3941,-9.2287,-9.0825,-8.9286,-8.7632,-8.7478,-8.7401,-8.7478,-8.9017,-8.9787,-8.994,-9.0671,-9.0556,-8.9902,-8.9748,-8.8671,-8.7171,-8.7017,-8.6863,-8.6632,-8.594,-8.6132,-8.6671,-8.6094,0.0,0.0,0.0,0.0,-8.5093,-8.4939,-8.5093,-8.5593,-8.6824,-8.7902,-8.894,-8.9902,-9.0017,-8.9748,-8.9056,-8.944,-8.9902,-8.9902,-9.0017,-9.0364,-9.1056,-9.121,-9.121,-9.121,-9.121,-9.121,-9.121,-9.121,-9.121,-9.121,-9.121,-9.121,-9.121,-9.121,-9.1518,-9.221,-9.1595,-9.1518,-9.2249,-9.1595,-9.1297,-9.1502,-9.1742,-9.2494,-9.3704,-9.4717,-9.5703,-9.6719,-9.7383,-9.7695,-9.7652,-9.7433,-9.722,-9.6993,-9.6708,-9.6483,-9.6288,-9.6134,-9.5634,-9.498,-9.4672,-9.4134,-9.3403,-9.2595,-9.2787,-9.3564,0.0,0.0,0.0,0.0,0.0,0.0,0.0,0.0,0.0,0.0,-8.6748,-8.6555,-8.7325,-8.6094,-8.5824,-8.7286,-8.6709,-8.6978,-8.8594,0.0,0.0,-9.2595,-9.3326,-9.3787,-9.4057,-9.3941,-9.3056,-9.1364,-9.1133,-9.0171,-8.8517,-8.7748,-8.7401,-8.744,-8.8402,-8.9248,-8.9902,-9.0017,-9.0017,-8.9863,-8.9133,-8.7825,-8.6209,-8.5517,-8.4747,-8.4093,-8.3978,-8.4016,-8.4209,-8.4824,-8.5055,0.0,0.0,0.0,-8.5786,-8.5093,-8.594,-8.694,-8.644,-8.744,-8.9056,-9.0633,-9.0479,-8.9863,-8.9748,-8.9825,-8.9902,-8.9902,-9.0517,-9.1056,-9.1171,-9.121,-9.121,-9.121,-9.121,-9.121,-9.121,-9.121,-9.121,-9.121,-9.121,-9.121,-9.121,-9.121,-9.1248,-9.1364,-9.1287,-9.1248,-9.1364,-9.1248,-9.1297,-9.1502,-9.1742,-9.2767,-9.4602,-9.499,-9.5976,-9.7539,-9.7656,-9.7609,-9.7429,-9.716,-9.7039,-9.6993,-9.6708,-9.6483,-9.6249,-9.548,-9.5095,-9.4864,-9.3403,-9.2749,-9.2556,-9.171,-9.1902,-9.2798,0.0,0.0,0.0,0.0,0.0,0.0,0.0,0.0,0.0,0.0,0.0,-8.4863,-8.5209,-8.4593,-8.4286,-8.4516,-8.5093,-8.6363,-8.8556,-8.9825,-9.1095,-9.2441,-9.2826,-9.3249,-9.3672,-9.3249,-9.2672,-9.1941,-9.0517,-8.9902,-9.0056,-8.8748,-8.7863,-8.744,-8.8786,-8.9325,-8.9248,-8.9248,-8.9248,-8.9094,-8.7786,-8.7094,-8.6632,-8.4863,-8.4824,-8.5555,-8.4093,-8.3901,-8.4324,-8.4209,-8.4516,-8.4824,-8.4324,0.0,0.0,0.0,-8.5363,-8.6901,-8.794,-8.8786,-8.9787,-9.1518,-9.1287,-9.0748,-9.1248,-9.0979,-9.0633,-9.0633,-9.0941,-9.121,-9.121,-9.121,-9.121,-9.121,-9.121,-9.121,-9.121,-9.1633,-9.1748,-9.1248,-9.1633,-9.1748,-9.1248,-9.121,-9.1595,-9.2518,-9.2172,-9.2133,-9.2595,-9.2595,-9.2413,-9.2071,-9.286,-9.3951,-9.5289,-9.5717,-9.6523,-9.7695,-9.7604,-9.7493,-9.7402,-9.6984,-9.678,-9.6757,-9.6545,-9.6369,-9.6249,-9.5365,-9.4711,-9.4134,-9.2941,-9.221,-9.1748,-9.1325,-9.1748,-9.2665,0.0,0.0,0.0,0.0,0.0,0.0,0.0,0.0,0.0,0.0,0.0,-8.3593,-8.3593,0.0,0.0,0.0,-8.3824,-8.5632,-8.8209,-8.9325,-9.0479,-9.1787,-9.2056,-9.2441,-9.3056,-9.2249,-9.1825,-9.1825,-8.994,-8.9748,-9.1171,-9.0364,-8.9517,-8.8748,-9.0017,-9.0094,-8.9325,-8.9325,-8.9325,-8.9171,-8.7478,-8.7017,-8.7171,-8.5286,-8.5593,-8.6748,-8.4439,-8.4016,-8.4439,-8.3555,-8.3708,-8.4209,-8.4016,-8.4362,0.0,0.0,0.0,-8.6632,-8.8979,-8.944,-8.9748,-9.1672,-9.1518,-9.1171,-9.2249,-9.1825,-9.121,-9.121,-9.121,-9.121,-9.121,-9.121,-9.121,-9.121,-9.121,-9.1287,-9.1518,-9.2095,-9.2326,-9.1902,-9.2402,-9.2556,-9.1902,-9.1825,-9.2364,-9.3595,-9.3133,-9.3056,-9.3672,-9.371,-9.3403,-9.2826,-9.3837,-9.4833,-9.5698,-9.6445,-9.7109,-9.7695,-9.7497,-9.7354,-9.7271,-9.6827,-9.657,-9.6506,-9.6373,-9.6172,-9.5903,-9.5018,-9.4172,-9.3326,-9.2479,-9.1787,-9.1248,-9.1441,-9.2056,-9.2994,0.0,0.0,0.0,0.0,0.0,0.0,0.0,0.0,0.0,0.0,0.0,-8.3593,-8.3593,-8.2862,-8.267,-8.3439,-8.3632,-8.4747,-8.7286,-8.8979,-8.9923,-9.0056,-9.0825,0.0,-9.1325,-9.0479,-9.0056,-9.0056,-8.9902,-9.0325,-9.1248,-9.2749,-9.3018,-9.2249,-9.2326,-9.1864,-9.1056,-9.1056,-9.1056,-9.0941,-8.9248,-8.8094,-8.7401,-8.7248,-8.6786,-8.594,-8.4209,-8.3632,-8.3516,-8.267,-8.2401,-8.2708,-8.4324,-8.4863,-8.5055,0.0,0.0,0.0,-8.8286,-8.8171,0.0,-9.0633,-9.0633,-9.0402,-9.2095,-9.1825,-9.121,-9.121,-9.121,-9.121,-9.121,-9.121,-9.121,-9.121,-9.121,-9.1479,-9.2326,-9.2479,-9.2749,-9.348,-9.3595,-9.3633,-9.3557,-9.3557,-9.3595,-9.3672,-9.3672,-9.3672,-9.371,-9.371,-9.3672,-9.3633,-9.4147,-9.4833,-9.5698,-9.6992,-9.7656,-9.7695,-9.7497,-9.7259,-9.7021,-9.672,-9.6499,-9.6325,-9.6288,-9.5826,-9.498,-9.4134,-9.3287,-9.2479,-9.1595,-9.1248,-9.1287,-9.2133,-9.2941,-9.3864,0.0,0.0,0.0,0.0,0.0,0.0,0.0,0.0,0.0,0.0,0.0,0.0,0.0,-8.3978,-8.3247,-8.3555,-8.4093,-8.5286,-8.7286,-8.8479,-8.9363,-8.9902,-9.0748,-9.121,-9.121,-9.0364,-8.9902,-8.9902,-8.8825,-8.9286,-9.121,-9.1248,-9.1979,-9.3249,-9.271,-9.2018,-9.1095,-8.9479,-8.8748,-8.8671,-8.7517,-8.7171,-8.7325,-8.6786,-8.7055,-8.7555,-8.5824,-8.4516,-8.3555,-8.3247,-8.3131,-8.3131,-8.3208,-8.4362,-8.5824,-8.6709,-8.6555,-8.6478,-8.8209,-8.8055,0.0,-8.9863,-9.0133,-9.021,-9.1402,-9.1441,-9.121,-9.121,-9.121,-9.121,-9.121,-9.121,-9.121,-9.121,-9.1672,-9.2133,-9.2441,-9.3441,-9.398,-9.371,-9.4172,-9.4287,-9.3749,-9.371,-9.3941,-9.448,-9.4518,-9.4518,-9.4518,-9.5057,-9.5095,-9.4557,-9.5356,-9.6146,-9.6785,-9.7403,-9.7651,-9.75,-9.7259,-9.7012,-9.672,-9.6499,-9.6065,-9.548,-9.548,-9.5288,-9.4864,-9.348,-9.2749,-9.2402,-9.1556,-9.1556,-9.2056,-9.2364,-9.371,-9.548,0.0,0.0,0.0,0.0,0.0,0.0,0.0,0.0,-8.6517,-8.7671,0.0,0.0,0.0,0.0,-8.4324,-8.4055,-8.4824,-8.5786,-8.6901,-8.8055,-8.8825,-8.9056,-9.0441,-9.1056,-9.0787,-8.994,-8.9517,-8.9517,-8.8094,-8.8402,-9.0364,-9.0056,-9.1133,-9.3249,-9.1825,-9.1518,-9.1902,-8.994,-8.8786,-8.8209,-8.7632,-8.7401,-8.744,-8.7709,-8.8171,-8.8556,-8.7401,-8.6055,-8.4824,-8.4516,-8.4439,-8.4324,-8.3747,-8.4747,-8.6286,-8.7132,-8.6978,-8.6786,-8.794,-8.7825,-8.7786,-8.9479,-8.9479,-8.9517,-9.1248,-9.1171,-9.0864,-9.1133,-9.121,-9.121,-9.121,-9.121,-9.1287,-9.1595,-9.2133,-9.271,-9.3249,-9.4287,-9.4864,-9.4595,-9.5095,-9.5211,-9.4634,-9.4557,-9.4826,-9.5403,-9.5441,-9.5441,-9.5441,-9.598,-9.6124,-9.5702,-9.6372,-9.6964,-9.7497,-9.7612,-9.7607,-9.7407,-9.7123,-9.6871,-9.6574,-9.6078,-9.5557,-9.496,-9.4403,-9.4172,-9.4057,-9.2941,-9.2326,-9.2018,-9.1441,-9.1748,-9.2556,-9.3133,-9.4595,-9.6442,0.0,0.0,0.0,0.0,0.0,0.0,-8.8171,-8.7286,-8.6824,-8.8517,0.0,0.0,0.0,0.0,0.0,-8.5055,-8.5709,-8.617,-8.6132,-8.7786,-8.8363,-8.7478,-8.9863,-9.0787,-8.994,-8.9094,-8.8709,-8.8709,-8.7786,-8.7825,-8.8671,-8.9479,-9.0748,-9.2326,-8.9825,-9.0517,-9.3518,-9.2672,-9.1364,-8.9825,-8.9825,-8.8825,-8.7671,-9.0171,-9.0133,-8.8748,-8.8748,-8.8209,-8.7325,-8.6478,-8.6132,-8.6094,-8.6094,-8.6094,-8.6247,-8.7094,-8.7363,-8.7363,0.0,0.0,0.0,-8.9363,-8.8556,0.0,-9.1556,0.0,-9.0133,-9.0979,-9.1171,-9.1171,-9.1248,-9.1248,-9.1518,-9.2441,-9.2556,-9.3095,-9.4749,-9.5018,-9.5326,-9.6211,-9.6288,-9.6288,-9.6288,-9.6288,-9.6288,-9.6288,-9.6288,-9.6288,-9.6288,-9.6288,-9.6506,-9.6974,-9.6964,-9.7168,-9.7656,-9.7617,-9.7527,-9.7324,-9.7037,-9.6782,-9.6483,-9.5422,-9.4941,-9.4826,-9.321,-9.2479,-9.2441,-9.2441,-9.1979,-9.121,-9.1248,-9.1787,-9.2749,-9.4441,-9.5634,-9.6788,0.0,0.0,0.0,0.0,0.0,-8.6132,-8.8363,-8.8786,-8.9017,0.0,0.0,0.0,-8.8825,-8.8325,-8.7632,-8.6786,-8.7478,-8.7709,-8.7094,-8.8632,-8.921,-8.8363,-9.0171,-9.0787,-8.994,-8.9094,-8.8709,-8.8709,-8.7209,-8.6901,-8.7748,-8.7979,-8.9017,-9.0594,-8.9902,-9.0094,-9.0825,-8.8748,-8.7979,-8.8055,-8.7401,-8.7248,-8.7555,-8.8863,-8.9863,-9.0517,-9.0517,-8.9556,-8.8286,-8.8055,-8.7132,-8.6094,-8.6094,-8.5709,-8.5401,-8.6209,-8.6478,-8.6478,-8.6478,0.0,0.0,0.0,0.0,0.0,-8.7671,0.0,-8.9286,-9.0094,-9.0287,-9.0633,-9.1902,-9.2133,-9.2633,-9.4057,-9.3787,-9.3749,-9.4826,-9.5518,-9.6019,-9.6288,-9.6288,-9.6288,-9.6288,-9.6288,-9.6288,-9.6288,-9.6288,-9.6288,-9.6288,-9.6288,-9.6376,-9.6497,-9.621,-9.6131,-9.6245,-9.5816,-9.5485,-9.5237,-9.5023,-9.4779,-9.448,-9.4205,-9.3749,-9.3172,-9.271,-9.2133,-9.1556,-9.1556,-9.1441,-9.1248,-9.1902,-9.3018,-9.4441,-9.5557,-9.725,-9.9135,0.0,0.0,-8.7094,-8.844,-8.7248,-8.694,-8.9363,-8.9825,-9.0287,0.0,0.0,0.0,-8.9902,-8.9479,-8.8709,-8.7517,-8.7863,-8.7786,-8.6901,-8.8094,-8.8479,-8.7632,-8.9248,-8.9902,-8.9402,-8.8594,-8.8325,-8.8709,-8.694,-8.6363,-8.6863,-8.6863,-8.7555,-8.8863,-8.8479,-8.8709,-8.9248,-8.7055,-8.6401,-8.694,-8.7863,-8.7671,-8.7055,-8.9017,-8.9902,-9.0248,-9.0941,-9.0133,-8.8786,-8.9517,-8.8363,-8.6632,-8.6632,-8.5824,-8.4978,-8.5478,-8.5863,-8.6094,-8.6094,-8.5747,-8.5478,-8.5863,0.0,0.0,-8.744,0.0,0.0,-9.021,-9.0441,-9.0864,-9.2249,-9.2479,-9.3056,-9.4711,-9.4557,-9.4557,-9.5403,-9.598,-9.6288,-9.6288,-9.6288,-9.6288,-9.6288,-9.6288,-9.6288,-9.6288,-9.6288,-9.6288,-9.6288,-9.6288,-9.634,-9.6415,-9.5953,-9.5763,-9.5859,-9.5274,-9.4783,-9.4396,-9.4285,-9.403,-9.3672,-9.3364,-9.2941,-9.2479,-9.2133,-9.1672,-9.121,-9.121,-9.121,-9.1325,-9.2518,-9.3826,-9.5172,-9.6749,-9.8519,-10.0096,0.0,0.0,-8.7594,-8.8632,-8.7478,-8.7478,-9.071,-9.0556,-9.0864,0.0,-9.221,-9.1056,-9.0287,-9.021,-8.9556,-8.7979,-8.7709,-8.7325,-8.644,-8.7094,-8.7171,-8.6286,-8.7902,-8.8748,-8.8556,-8.7979,-8.7979,-8.8556,-8.7017,-8.6209,-8.6094,-8.6094,-8.6517,-8.7209,-8.644,-8.6978,-8.8325,-8.6978,-8.6286,-8.6363,-8.9402,-8.894,-8.6709,-8.9787,-9.0094,-8.9171,-9.0671,-9.0248,-8.9171,-9.0594,-8.9479,-8.7517,-8.7325,-8.6363,-8.5286,-8.4978,-8.5632,-8.6363,-8.617,-8.6017,-8.617,-8.694,-8.6555,0.0,-8.8825,-8.8863,-8.8863,-9.0441,-9.0787,-9.1056,-9.2018,-9.2287,-9.2826,-9.4326,-9.4826,-9.5288,-9.6172,-9.6288,-9.6288,-9.6288,-9.6288,-9.6288,-9.6288,-9.6288,-9.6288,-9.6288,-9.6288,-9.6288,-9.6288,-9.6288,-9.633,-9.6401,-9.5878,-9.5627,-9.5783,-9.5131,-9.4587,-9.4132,-9.4076,-9.384,-9.3403,-9.2672,-9.2364,-9.2326,-9.1556,-9.121,-9.121,-9.121,-9.1248,-9.1518,-9.3172,-9.4441,-9.5557,-9.8019,-9.9481,-10.0289,-8.7286,-8.6824,-8.7055,-8.9286,-8.8863,-8.8863,-9.0902,-9.1056,-9.1133,-9.1633,-9.2018,-9.2172,-9.2018,-9.1979,-9.1595,-9.0556,-8.9825,-8.9056,-8.8248,-8.8363,-8.8055,-8.7171,-8.8748,-8.9017,-8.7671,-8.8825,-8.8825,-8.7632,-8.7325,-8.6786,-8.6094,-8.6094,-8.6209,-8.6363,-8.617,-8.6286,-8.6671,-8.7748,-8.7363,-8.617,-8.6824,-8.7555,-8.8248,-8.894,-8.9825,-9.0748,-9.1095,-9.0979,-9.0671,-9.0287,-8.9402,-8.8209,-8.6786,-8.7094,-8.7555,-8.5517,-8.6478,-8.7902,-8.6478,-8.5632,-8.517,-8.5363,-8.5247,0.0,-8.5747,-8.6247,-8.6901,0.0,-8.8132,-8.8594,-9.0133,-9.0979,-9.1556,-9.1902,-9.3672,-9.5288,-9.6172,-9.6288,-9.6288,-9.6288,-9.6288,-9.6288,-9.6288,-9.6288,-9.6288,-9.6288,-9.6288,-9.6288,-9.6288,-9.6288,-9.5978,-9.5315,-9.4858,-9.4375,-9.3764,-9.2954,-9.2472,-9.2381,-9.2003,-9.1765,-9.1672,-9.1518,-9.1441,-9.1441,-9.1287,-9.121,-9.121,-9.121,-9.1595,-9.2402,-9.4095,-9.5672,-9.725,-9.9135,-10.0404,-10.1096,-8.7325,-8.7055,-8.7286,-8.9017,-8.8979,-8.9248,-9.0941,-9.121,-9.1518,-9.2326,-9.321,-9.3249,-9.1979,-9.2595,-9.2402,-9.071,-9.0171,-8.9363,-8.8132,-8.8055,-8.7671,-8.6786,-8.7555,-8.8017,-8.8055,-8.8017,-8.8017,-8.8055,-8.7171,-8.6517,-8.6094,-8.6094,-8.6555,-8.7363,-8.6478,-8.6594,-8.7401,-8.7401,-8.6901,-8.6247,-8.7979,-8.8671,-8.8786,-8.9633,-9.0479,-9.121,-9.121,-9.121,-9.1056,-9.021,-8.9094,-8.7979,-8.7555,-8.7709,-8.7632,-8.5517,-8.6401,-8.7594,-8.544,-8.4555,-8.4362,-8.4786,-8.4901,0.0,0.0,-8.6478,-8.7094,-8.8402,-8.7979,-8.7902,-8.9594,-8.994,-9.0248,-9.1056,-9.2979,-9.448,-9.4941,-9.5749,-9.6288,-9.6288,-9.6288,-9.6288,-9.6288,-9.6288,-9.6288,-9.6288,-9.6288,-9.6288,-9.6288,-9.6288,-9.5935,-9.5152,-9.4672,-9.4051,-9.3347,-9.2497,-9.1987,-9.1914,-9.154,-9.1313,-9.121,-9.121,-9.121,-9.121,-9.121,-9.121,-9.1248,-9.1672,-9.2326,-9.3249,-9.498,-9.6403,-9.775,-9.9904,-10.0981,-10.1212,-8.6901,-8.7055,-8.7363,-8.8055,-8.8479,-8.921,-9.071,-9.1095,-9.171,-9.3018,-9.398,-9.3749,-9.1672,-9.2672,-9.2633,-9.0594,-9.0094,-8.9248,-8.7748,-8.7632,-8.7248,-8.6401,-8.6517,-8.7171,-8.8402,-8.7248,-8.7132,-8.8209,-8.6978,-8.6247,-8.6094,-8.6094,-8.694,-8.8402,-8.7325,-8.7517,-8.8632,-8.7363,-8.694,-8.7325,-8.9902,-8.9863,-8.8363,-9.0094,-9.071,-9.0748,-9.1095,-9.1325,-9.1287,-9.0248,-8.9133,-8.8132,-8.8171,-8.8286,-8.7902,-8.5593,-8.644,-8.7555,-8.4824,-8.4093,-8.4209,-8.4747,-8.5016,-8.544,0.0,0.0,0.0,-8.8902,-8.7979,-8.7325,0.0,-8.8402,-8.844,-8.9979,0.0,0.0,0.0,-9.4941,0.0,-9.6057,-9.6211,-9.6288,-9.6288,-9.6134,-9.6134,-9.6288,-9.6134,-9.6134,-9.6288,-9.6134,-9.5769,-9.5089,-9.4479,-9.3858,-9.3187,-9.249,-9.2022,-9.1802,-9.1579,-9.1361,-9.121,-9.121,-9.121,-9.121,-9.121,-9.121,-9.1287,-9.2133,-9.2979,-9.3864,-9.5634,-9.6788,-9.7788,-10.0019,-10.0789,-10.0712,-8.517,-8.5747,-8.6286,-8.6363,-8.7671,-8.8979,-8.9902,-9.071,-9.1287,-9.1479,-9.2249,-9.2672,-9.2364,-9.2518,-9.2518,-9.221,-9.0787,-8.9517,-8.8594,-8.8556,-8.8171,-8.7286,-8.7979,-8.8132,-8.7555,-8.8094,-8.7748,-8.6401,-8.6978,-8.6863,-8.6094,-8.6094,-8.6632,-8.7594,-8.8902,-8.9171,-8.8709,-8.9248,-8.9902,-9.0594,-9.021,-8.8594,-8.6594,-8.8325,-8.8979,-8.9171,-9.0671,-9.171,-9.2095,-9.0441,-9.0287,-9.0248,-8.7325,-8.894,-9.1018,-8.6286,-8.7709,-9.0056,-8.6709,-8.5824,-8.567,-8.5055,-8.544,-8.5824,-8.5286,0.0,-8.6286,-8.6478,0.0,-8.5247,-8.544,0.0,0.0,-8.6517,-8.8748,-9.0864,-9.2402,-9.4095,-9.5134,-9.5134,-9.5826,-9.6288,-9.6288,-9.5595,-9.548,-9.6249,-9.5557,-9.548,-9.6249,-9.5557,-9.4883,-9.4276,-9.3674,-9.2926,-9.2074,-9.1996,-9.1792,-9.1528,-9.1338,-9.1224,-9.121,-9.121,-9.121,-9.121,-9.121,-9.121,-9.1287,-9.2133,-9.2979,-9.3864,-9.5634,-9.6788,-9.7634,-9.8673,-9.9096,-9.9058,-8.4786,-8.5555,-8.6094,-8.6094,-8.7132,-8.8402,-8.971,-9.0633,-9.121,-9.121,-9.1979,-9.2326,-9.1787,-9.221,-9.2287,-9.1787,-9.1095,-9.0094,-8.8786,-8.8709,-8.8094,-8.6709,-8.7017,-8.7248,-8.7401,-8.7248,-8.7094,-8.6863,-8.6709,-8.6478,-8.6094,-8.6094,-8.7094,-8.8902,-8.9594,-9.0287,-9.0864,-9.021,-8.9556,-8.8979,-8.8594,-8.7517,-8.644,-8.9671,-9.0902,-9.0979,-9.171,-9.2479,-9.3095,-9.2364,-9.1364,-9.0441,-9.0517,-9.0402,-8.9863,-8.7709,-8.8017,-8.8363,-8.544,-8.5363,-8.5786,-8.4478,-8.5517,-8.6517,-8.5209,-8.5517,-8.6247,-8.6748,0.0,0.0,0.0,0.0,0.0,0.0,-8.794,-9.0171,0.0,0.0,-9.4095,0.0,0.0,0.0,-9.4788,-9.4903,-9.5365,-9.6249,-9.5942,-9.5903,-9.6288,-9.548,-9.4766,-9.428,-9.36,-9.283,-9.2087,-9.1942,-9.1791,-9.1502,-9.1297,-9.121,-9.121,-9.121,-9.121,-9.121,-9.121,-9.121,-9.1287,-9.2633,-9.3403,-9.3864,-9.5634,-9.6788,-9.7596,-9.8481,-9.8788,-9.8711,-8.4439,-8.5401,-8.5978,-8.5478,-8.6517,-8.7979,-8.9633,-9.0248,-9.0671,-9.1133,-9.1556,-9.1748,-9.1556,-9.1902,-9.1979,-9.1595,-9.1325,-9.0594,-8.9133,-8.9017,-8.8479,-8.7209,-8.694,-8.7094,-8.7748,-8.6901,-8.6632,-8.7055,-8.6401,-8.6209,-8.644,-8.6209,-8.7325,-8.9594,-9.0287,-9.1171,-9.2095,-9.1287,-9.0364,-8.944,-8.8979,-8.8556,-8.8479,-9.1133,-9.2441,-9.2826,-9.2826,-9.3364,-9.398,-9.3518,-9.2287,-9.1171,-9.2595,-9.1672,-8.9979,-8.9517,-8.9248,-8.8517,-8.5747,-8.5901,-8.6286,-8.4132,-8.5324,-8.6594,-8.4939,-8.5555,-8.6555,-8.6978,-8.5555,0.0,0.0,0.0,-8.4247,-8.5093,0.0,-8.9402,0.0,-9.0979,0.0,0.0,0.0,0.0,0.0,-9.4057,-9.4672,-9.5518,-9.5595,-9.5672,-9.5942,-9.5095,-9.4528,-9.4307,-9.3347,-9.258,-9.2016,-9.1926,-9.1749,-9.1427,-9.1286,-9.121,-9.121,-9.121,-9.121,-9.121,-9.121,-9.121,-9.1325,-9.3018,-9.371,-9.3864,-9.5634,-9.6673,-9.725,-9.7865,-9.8096,-9.8019,-8.3632,-8.4978,-8.5593,-8.3939,-8.5747,-8.7979,-8.9633,-8.9248,-8.9363,-9.0979,-9.0479,-9.0633,-9.2287,-9.1748,-9.1556,-9.2402,-9.1672,-9.0825,-8.994,-8.9863,-8.9863,-8.9787,-8.9017,-8.8632,-8.8671,-8.7786,-8.6978,-8.6132,-8.6094,-8.6517,-8.7325,-8.6478,-8.7055,-8.8825,-9.1325,-9.1979,-9.1325,-9.2903,-9.4018,-9.4595,-9.2979,-9.2787,-9.3287,-9.1825,-9.2249,-9.3672,-9.3672,-9.421,-9.4711,-9.3095,-9.2979,-9.3326,-9.1787,-9.2326,-9.321,-9.1595,-9.2249,-9.2749,-8.944,-8.8556,-8.7786,-8.4439,-8.4863,-8.5709,-8.4016,-8.5555,-8.7132,-8.6324,-8.6094,-8.5786,-8.5055,-8.4901,-8.5132,-8.594,-8.6863,0.0,0.0,0.0,0.0,0.0,0.0,0.0,0.0,-9.3018,-9.2903,0.0,-9.3787,-9.4134,-9.498,-9.421,-9.3842,-9.4096,-9.2713,-9.1801,-9.1541,-9.1762,-9.1688,-9.1189,-9.121,-9.121,-9.121,-9.121,-9.121,-9.121,-9.121,-9.121,-9.1325,-9.3018,-9.371,-9.3864,-9.5634,-9.6326,-9.6326,-9.6365,-9.6365,-9.6365,-8.4555,-8.6286,-8.7094,-8.4863,-8.5593,-8.7132,-8.8825,-8.8863,-8.9286,-9.0979,-9.0441,-9.0364,-9.1518,-9.1364,-9.1325,-9.1595,-9.1364,-9.0825,-8.9979,-8.9402,-8.9094,-8.9094,-8.8286,-8.7825,-8.7825,-8.7555,-8.6978,-8.6094,-8.6094,-8.6555,-8.7363,-8.6517,-8.7017,-8.8786,-9.0748,-9.1787,-9.2133,-9.321,-9.3557,-9.3287,-9.271,-9.2979,-9.3633,-9.3056,-9.321,-9.371,-9.371,-9.4634,-9.5788,-9.5211,-9.4441,-9.3787,-9.4403,-9.3403,-9.2133,-9.271,-9.2479,-9.1787,-9.0671,-9.1171,-9.1056,-8.7094,-8.7363,-8.7902,-8.5093,-8.5132,-8.5824,-8.6055,-8.567,-8.5209,-8.4939,-8.5363,-8.5786,-8.6055,-8.7325,-8.844,0.0,0.0,0.0,0.0,0.0,0.0,0.0,0.0,0.0,0.0,-9.421,-9.4672,-9.498,-9.4711,-9.442,-9.4121,-9.3051,-9.2172,-9.1515,-9.159,-9.1486,-9.121,-9.121,-9.121,-9.121,-9.121,-9.121,-9.121,-9.121,-9.121,-9.1325,-9.3018,-9.371,-9.3864,-9.5634,-9.6288,-9.6288,-9.6288,-9.6288,-9.6288,-8.594,-8.7363,-8.7902,-8.5363,-8.5824,-8.7055,-8.8479,-8.8709,-8.9286,-9.0979,-9.0441,-9.0364,-9.1518,-9.1402,-9.1325,-9.1633,-9.1364,-9.0825,-8.9979,-8.9402,-8.9133,-8.9133,-8.8594,-8.844,-8.8748,-8.8171,-8.7594,-8.7017,-8.6709,-8.7017,-8.7825,-8.6978,-8.7325,-8.8748,-9.0133,-9.121,-9.2133,-9.3557,-9.4018,-9.3864,-9.3864,-9.398,-9.4172,-9.4172,-9.398,-9.3787,-9.4403,-9.5365,-9.6288,-9.6288,-9.5557,-9.4826,-9.5942,-9.4788,-9.3249,-9.4326,-9.3864,-9.2864,-9.2249,-9.2864,-9.2826,-8.921,-8.9325,-8.9556,-8.6478,-8.6247,-8.6748,-8.6978,-8.6363,-8.6055,-8.6978,-8.7094,-8.7017,-8.7017,-8.7979,0.0,0.0,-8.8017,0.0,0.0,0.0,0.0,0.0,0.0,0.0,0.0,0.0,0.0,0.0,-9.4826,-9.4699,-9.3972,-9.3214,-9.2338,-9.1383,-9.1448,-9.1397,-9.121,-9.121,-9.121,-9.121,-9.121,-9.121,-9.121,-9.121,-9.1364,-9.1787,-9.3133,-9.3864,-9.4287,-9.5749,-9.6288,-9.6288,-9.6288,-9.6288,-9.6288,-8.7594,-8.8055,-8.7902,-8.5517,-8.6363,-8.7709,-8.8632,-8.8671,-8.9248,-9.0979,-9.0441,-9.0556,-9.2326,-9.1748,-9.1595,-9.2441,-9.1748,-9.0902,-9.0017,-8.994,-8.9923,-9.0017,-8.994,-9.0325,-9.1248,-8.9594,-8.8709,-8.8709,-8.7786,-8.7786,-8.8632,-8.7748,-8.7786,-8.8671,-8.9479,-9.0364,-9.1364,-9.3864,-9.5441,-9.6288,-9.6288,-9.5749,-9.4941,-9.5018,-9.448,-9.3903,-9.5634,-9.6249,-9.6288,-9.6288,-9.6288,-9.6288,-9.6288,-9.6288,-9.6288,-9.6288,-9.6288,-9.5942,-9.4287,-9.3826,-9.321,-9.071,-9.0671,-9.0633,-8.8132,-8.8786,-8.971,-8.8979,-8.8171,-8.8286,-9.0671,-8.9748,-8.8671,0.0,0.0,0.0,0.0,0.0,0.0,0.0,0.0,0.0,0.0,0.0,0.0,0.0,0.0,0.0,0.0,-9.4557,-9.4595,-9.3787,-9.3184,-9.2349,-9.1287,-9.1421,-9.1383,-9.121,-9.121,-9.121,-9.121,-9.121,-9.121,-9.121,-9.1248,-9.1748,-9.2556,-9.3403,-9.4249,-9.5095,-9.5942,-9.6288,-9.6288,-9.6288,-9.6288,-9.6288,-8.7671,-8.7594,-8.7709,-8.7709,-8.7555,-8.7902,-8.9363,-8.8517,-8.8556,-9.0902,-9.0441,-9.0556,-9.2326,-9.2287,-9.2249,-9.2479,-9.2287,-9.1787,-9.0941,-9.0287,-9.0479,-9.1787,-9.0594,-9.0633,-9.2133,-8.9902,-8.8709,-8.8709,-8.7171,-8.6863,-8.7709,-8.6824,-8.6901,-8.7786,-8.8632,-8.9825,-9.1325,-9.321,-9.4903,-9.6288,-9.6288,-9.5403,-9.4172,-9.548,-9.5018,-9.3826,-9.4941,-9.5749,-9.6288,-9.6288,-9.6288,-9.6288,-9.6288,-9.6288,-9.6288,-9.6288,-9.6288,-9.6211,-9.5749,-9.5634,-9.5172,-9.321,-9.2441,-9.1825,-9.0517,-9.0056,-9.0017,-9.0479,-9.0364,-9.0056,-8.944,-8.8979,-8.8286,-8.6978,0.0,0.0,0.0,0.0,0.0,-8.6748,0.0,0.0,0.0,0.0,0.0,0.0,0.0,0.0,0.0,0.0,-9.4921,-9.4672,-9.3911,-9.3063,-9.2172,-9.1561,-9.1253,-9.121,-9.121,-9.121,-9.121,-9.121,-9.121,-9.1248,-9.1864,-9.2287,-9.2595,-9.4057,-9.4788,-9.5095,-9.5942,-9.6288,-9.6288,-9.6288,-9.6288,-9.6288,-8.8671,-8.8479,-8.8786,-8.9633,-8.8786,-8.8402,-8.971,-8.944,-8.9594,-9.1018,-9.1095,-9.1402,-9.2402,-9.2826,-9.2864,-9.2518,-9.2826,-9.2518,-9.1287,-9.1441,-9.1825,-9.2479,-9.1902,-9.221,-9.3557,-9.1479,-9.0171,-8.9787,-8.844,-8.7632,-8.7401,-8.6901,-8.694,-8.744,-8.8286,-8.9402,-9.0787,-9.321,-9.4595,-9.5211,-9.598,-9.5711,0.0,-9.5942,-9.5672,-9.4903,-9.5403,-9.5865,-9.6288,-9.6288,-9.6288,-9.6288,-9.6288,-9.6288,-9.6288,-9.6288,-9.6288,-9.6288,-9.6288,-9.6288,-9.6057,-9.5095,-9.4518,-9.3826,-9.2595,-9.1902,-9.1595,-9.1748,-9.1171,-9.0671,-9.0864,-8.9363,-8.7555,-8.5863,-8.5247,0.0,0.0,0.0,0.0,0.0,-8.7517,0.0,0.0,0.0,0.0,0.0,0.0,0.0,0.0,0.0,-9.5403,-9.5018,-9.4134,-9.3326,-9.2518,-9.1633,-9.121,-9.121,-9.121,-9.121,-9.121,-9.121,-9.1402,-9.1787,-9.2287,-9.2903,-9.3672,-9.4595,-9.5211,-9.5634,-9.6095,-9.6288,-9.6288,-9.6288,-9.6288,-9.6288,-8.994,-8.9979,-9.0287,-9.0941,-8.9902,-8.9248,-8.9979,-9.071,-9.1248,-9.1364,-9.2133,-9.271,-9.2826,-9.3441,-9.3595,-9.2903,-9.348,-9.321,-9.1633,-9.2903,-9.3441,-9.2864,-9.3403,-9.4172,-9.5134,-9.3403,-9.2056,-9.121,-9.021,-8.8902,-8.7209,-8.7209,-8.7209,-8.7286,0.0,0.0,0.0,-9.3557,-9.4518,-9.4172,-9.5672,-9.6288,-9.6288,-9.6288,-9.6288,-9.6288,-9.6288,-9.6288,-9.6288,-9.6288,-9.6288,-9.6288,-9.6288,-9.6288,-9.6288,-9.6288,-9.6288,-9.6288,-9.6288,-9.6288,-9.6288,-9.6288,-9.6211,-9.5711,-9.421,-9.3787,-9.348,-9.2787,-9.1441,-9.1018,-9.2979,-9.0094,-8.6863,-8.517,-8.4247,-8.4093,-8.5093,0.0,0.0,0.0,0.0,0.0,0.0,0.0,0.0,0.0,0.0,0.0,0.0,0.0,-9.5557,-9.5037,-9.4057,-9.321,-9.2518,-9.1633,-9.121,-9.121,-9.121,-9.1248,-9.1364,-9.1364,-9.1825,-9.2672,-9.2787,-9.3633,-9.5018,-9.5095,-9.5634,-9.6288,-9.6288,-9.6288,-9.6288,-9.6288,-9.6288,-9.6288,-9.0056,-9.0479,-9.0787,-9.0248,-9.0479,-9.0825,-9.0941,-9.1095,-9.1479,-9.2172,-9.2979,-9.3749,-9.448,-9.4672,-9.4711,-9.4557,-9.4672,-9.4326,-9.3326,-9.3518,-9.3941,-9.4518,-9.4018,-9.4441,-9.6057,-9.371,-9.2056,-9.121,-8.9671,-8.8017,-8.6324,-8.6324,-8.6324,0.0,0.0,0.0,-9.3056,-9.3672,-9.4672,-9.5865,-9.6172,-9.6288,-9.6288,-9.6288,-9.6288,-9.6288,-9.6288,-9.6288,-9.6288,-9.6288,-9.6288,-9.6288,-9.6288,-9.6288,-9.6288,-9.6288,-9.6288,-9.6288,-9.6288,-9.6288,-9.6288,-9.6288,-9.5749,-9.5134,-9.4826,-9.421,-9.3672,-9.3518,-9.3249,-9.2749,-9.1825,-8.9325,-8.6863,-8.517,-8.4786,-8.5209,-8.6748,0.0,0.0,0.0,0.0,-8.8979,0.0,0.0,0.0,0.0,0.0,0.0,0.0,0.0,0.0,0.0,-9.3518,-9.2633,-9.2479,-9.1633,-9.121,-9.121,-9.121,-9.1595,-9.2287,-9.2287,-9.271,-9.3518,-9.4249,-9.4711,-9.5057,-9.5788,-9.6172,-9.6288,-9.6288,-9.6288,-9.6288,-9.6288,-9.6288,-9.6288,-9.1325,-9.1595,-9.1748,-9.1325,-9.121,-9.1364,-9.1825,-9.221,-9.2518,-9.2479,-9.3595,-9.4518,-9.4941,-9.5403,-9.548,-9.5018,-9.5403,-9.5288,-9.4441,-9.4788,-9.5249,-9.5672,-9.5249,-9.5441,-9.6288,-9.5095,-9.3403,-9.121,-9.0402,-8.8671,-8.6094,-8.6094,-8.6324,-8.6863,0.0,-9.0633,0.0,-9.3633,-9.4595,-9.5018,-9.5942,-9.6288,-9.6288,-9.6288,-9.6288,-9.6288,-9.6288,-9.6288,-9.6288,-9.6288,-9.6288,-9.6288,-9.6288,-9.6288,-9.6288,-9.6288,-9.6288,-9.6211,-9.5749,-9.5634,-9.5518,-9.5057,-9.4634,-9.4326,-9.4326,-9.398,-9.3595,-9.3172,-9.3095,-9.2441,-9.0287,-8.8517,-8.6978,-8.5747,-8.517,-8.5478,-8.7171,0.0,-8.7248,0.0,0.0,0.0,0.0,0.0,0.0,0.0,0.0,0.0,0.0,0.0,0.0,0.0,0.0,-9.2479,-9.2479,-9.1633,-9.121,-9.121,-9.1672,-9.2095,-9.2518,-9.2941,-9.3595,-9.4403,-9.4826,-9.5249,-9.5711,-9.6134,-9.6288,-9.6288,-9.6288,-9.6288,-9.6288,-9.6288,-9.6288,-9.6288,-9.2518,-9.2633,-9.2633,-9.2287,-9.1825,-9.171,-9.2402,-9.3326,-9.3749,-9.3095,-9.4326,-9.5288,-9.5288,-9.5903,-9.6019,-9.5326,-9.5903,-9.6019,-9.5326,-9.5903,-9.6288,-9.6288,-9.6288,-9.6288,-9.6288,-9.6288,-9.4788,-9.1748,-9.1364,-8.9633,-8.6632,-8.6286,-8.6748,-8.8017,-8.9863,-9.0787,-9.1171,-9.3672,-9.4518,-9.4364,-9.5749,-9.6288,-9.6288,-9.6288,-9.6288,-9.6288,-9.6288,-9.6288,-9.6288,-9.6288,-9.6288,-9.6288,-9.6288,-9.6288,-9.6249,-9.6095,-9.6019,-9.5826,-9.4941,-9.4711,-9.4557,-9.3864,-9.3557,-9.3441,-9.3441,-9.3287,-9.2979,-9.2364,-9.221,-9.1556,-8.9363,-8.8556,-8.7902,-8.7055,-8.6247,-8.6286,-8.7979,0.0,0.0,0.0,0.0,0.0,-9.1133,0.0,0.0,0.0,0.0,0.0,0.0,0.0,0.0,0.0,0.0,-9.221,-9.221,-9.1556,-9.121,-9.121,-9.2095,-9.2595,-9.2787,-9.3595,-9.4441,-9.5288,-9.5288,-9.5672,-9.6288,-9.6288,-9.6288,-9.6288,-9.6288,-9.6288,-9.6288,-9.6288,-9.6288,-9.6288,-9.2633,-9.3095,-9.3095,-9.1595,-9.1902,-9.2402,-9.2479,-9.3826,-9.4826,-9.4788,-9.5595,-9.6172,-9.6172,-9.6249,-9.6288,-9.6172,-9.6249,-9.6288,-9.6172,-9.6249,-9.6288,-9.6288,-9.6288,-9.6288,-9.6288,-9.6288,-9.5365,-9.348,-9.1941,-9.0248,-8.8402,-8.6824,-8.7401,-8.9633,-8.9133,-9.1018,-9.448,-9.4018,-9.4672,-9.6057,-9.6249,-9.6288,-9.6288,-9.6288,-9.6288,-9.6288,-9.6288,-9.6288,-9.6288,-9.6288,-9.6288,-9.6288,-9.6288,-9.6288,-9.6134,-9.5326,-9.5095,-9.4941,-9.4057,-9.3826,-9.3787,-9.371,-9.3133,-9.2595,-9.2595,-9.2018,-9.1402,-9.1325,-9.1325,-9.1018,-8.9979,-9.0364,-9.0556,-8.971,-8.8863,-8.894,-9.0594,-8.9556,-8.921,-9.0864,0.0,0.0,0.0,-8.9825,0.0,0.0,0.0,0.0,0.0,0.0,0.0,-9.271,-9.1825,-9.1325,-9.1325,-9.1248,-9.121,-9.121,-9.2095,-9.2864,-9.3633,-9.448,-9.5365,-9.6172,-9.6172,-9.6211,-9.6288,-9.6288,-9.6288,-9.6288,-9.6288,-9.6288,-9.6288,-9.6288,-9.6288,-9.6288,-9.2556,-9.2749,-9.2903,-9.271,-9.2595,-9.2826,-9.3826,-9.4557,-9.5172,-9.5711,-9.6095,-9.6288,-9.6288,-9.6288,-9.6288,-9.6288,-9.6288,-9.6288,-9.6288,-9.6288,-9.6288,-9.6288,-9.6288,-9.6288,-9.6288,-9.6288,-9.5441,-9.371,-9.2556,-9.1095,-8.9402,-8.8709,-8.921,-9.0748,-9.1941,-9.3133,-9.4249,-9.4941,-9.5672,-9.6288,-9.6288,-9.6288,-9.6288,-9.6288,-9.6288,-9.6288,-9.6288,-9.5942,-9.5518,-9.5518,-9.5865,-9.6288,-9.6288,-9.5942,-9.5441,-9.5095,-9.4634,-9.4018,-9.321,-9.2979,-9.2864,-9.2326,-9.1979,-9.171,-9.171,-9.1441,-9.121,-9.121,-9.121,-9.1095,-9.0748,-9.0556,-9.0479,-9.0671,-8.9979,-8.9825,-9.1018,-9.1056,0.0,-9.2556,0.0,0.0,0.0,0.0,0.0,0.0,0.0,0.0,0.0,0.0,0.0,-9.2479,0.0,-9.121,-9.121,-9.121,-9.1479,-9.1979,-9.2826,-9.3672,-9.4518,-9.5365,-9.598,-9.6288,-9.6288,-9.6288,-9.6288,-9.6288,-9.6288,-9.6288,-9.6288,-9.6288,-9.6288,-9.6288,-9.6288,-9.6288,-9.2441,-9.2479,-9.2595,-9.2903,-9.2903,-9.3249,-9.4441,-9.5057,-9.5595,-9.6211,-9.6288,-9.6288,-9.6288,-9.6288,-9.6288,-9.6288,-9.6288,-9.6288,-9.6288,-9.6288,-9.6288,-9.6288,-9.6288,-9.6288,-9.6288,-9.6288,-9.5711,-9.4441,-9.3364,-9.221,-9.1018,-9.0517,-9.0864,-9.2018,-9.3826,-9.4557,-9.4557,-9.5788,-9.6288,-9.6288,-9.6288,-9.6288,-9.6288,-9.6288,-9.6288,-9.6288,-9.6019,-9.5518,-9.496,-9.4711,-9.5018,-9.5557,-9.5557,-9.5095,-9.4557,-9.4326,-9.3826,-9.3172,-9.2326,-9.2133,-9.1979,-9.1364,-9.121,-9.121,-9.121,-9.121,-9.121,-9.121,-9.121,-9.121,-9.121,-9.071,-9.0479,-9.1095,-9.0671,-9.0517,-9.1133,-9.1941,0.0,-9.2941,-9.3287,-9.3787,-9.4557,-9.2672,0.0,0.0,0.0,0.0,0.0,-9.2095,0.0,0.0,-9.1518,-9.121,-9.121,-9.1441,-9.1902,-9.2518,-9.3595,-9.4403,-9.5018,-9.5903,-9.6288,-9.6288,-9.6288,-9.6288,-9.6288,-9.6288,-9.6288,-9.6288,-9.6288,-9.6288,-9.6288,-9.6288,-9.6288,-9.6288,-9.2326,-9.2479,-9.221,-9.1364,-9.2595,-9.3672,-9.371,-9.5172,-9.6288,-9.6288,-9.6288,-9.6288,-9.6288,-9.6288,-9.6288,-9.6288,-9.6288,-9.6288,-9.6288,-9.6288,-9.6288,-9.6288,-9.6288,-9.6288,-9.6288,-9.6288,-9.6288,-9.6288,-9.4518,-9.3672,-9.3633,-9.1979,-9.2056,-9.3672,-9.371,-9.4672,-9.6288,-9.6288,-9.6288,-9.6288,-9.6288,-9.6288,-9.6288,-9.6288,-9.6288,-9.6172,-9.5326,-9.5018,-9.4864,-9.4018,-9.371,-9.371,-9.371,-9.371,-9.3557,-9.2749,-9.2518,-9.2326,-9.1441,-9.121,-9.121,-9.121,-9.121,-9.121,-9.121,-9.121,-9.121,-9.121,-9.121,-9.121,-9.121,-9.121,-9.121,-9.121,-9.121,-9.121,-9.121,-9.1941,-9.2172,-9.1325,-9.0479,-9.0941,-9.348,-9.071,0.0,0.0,0.0,0.0,-9.1287,-9.2018,-9.2095,-9.1248,-9.121,-9.121,-9.121,-9.2056,-9.2479,-9.2518,-9.4172,-9.498,-9.5018,-9.5903,-9.6288,-9.6288,-9.6288,-9.6288,-9.6288,-9.6288,-9.6288,-9.6288,-9.6288,-9.6288,-9.6288,-9.6288,-9.6288,-9.6288,-9.1441,-9.2095,-9.2749,-9.3633,-9.421,-9.4788,-9.5365,-9.5942,-9.6288,-9.6288,-9.6288,-9.6288,-9.6288,-9.6288,-9.6288,-9.6288,-9.6288,-9.6288,-9.6288,-9.6288,-9.6288,-9.6288,-9.6288,-9.6288,-9.6288,-9.6288,-9.6288,-9.6288,-9.5134,-9.4595,-9.4557,-9.4018,-9.4403,-9.548,-9.548,-9.5788,-9.6288,-9.6288,-9.6288,-9.6288,-9.6288,-9.6288,-9.6288,-9.6288,-9.5942,-9.5365,-9.5095,-9.4249,-9.3249,-9.2979,-9.2479,-9.2018,-9.2018,-9.2402,-9.2826,-9.2595,-9.2095,-9.1556,-9.1287,-9.121,-9.121,-9.121,-9.121,-9.121,-9.121,-9.121,-9.121,-9.121,-9.121,-9.121,-9.121,-9.121,-9.121,-9.121,-9.121,-9.121,-9.121,-9.1941,-9.2595,-9.2864,-9.3172,-9.3941,-9.5326,-9.3441,-9.2672,0.0,0.0,0.0,-9.2056,-9.2364,-9.2095,-9.1248,-9.121,-9.121,-9.121,-9.2056,-9.2787,-9.3326,-9.4441,-9.5288,-9.5903,-9.6172,-9.6288,-9.6288,-9.6288,-9.6288,-9.6288,-9.6288,-9.6288,-9.6288,-9.6288,-9.6288,-9.6288,-9.6288,-9.6288,-9.6288,-9.1979,-9.2595,-9.3287,-9.4326,-9.4788,-9.5172,-9.5711,-9.6095,-9.6288,-9.6288,-9.6288,-9.6288,-9.6288,-9.6288,-9.6288,-9.6288,-9.6288,-9.6288,-9.6288,-9.6288,-9.6288,-9.6288,-9.6288,-9.6288,-9.6288,-9.6288,-9.6288,-9.6288,-9.5749,-9.548,-9.548,-9.548,-9.5788,-9.6288,-9.6288,-9.6288,-9.6288,-9.6288,-9.6288,-9.6288,-9.6288,-9.6288,-9.6249,-9.5942,-9.548,-9.4903,-9.4287,-9.3403,-9.2441,-9.2133,-9.1633,-9.121,-9.121,-9.1556,-9.2018,-9.2018,-9.1633,-9.121,-9.121,-9.121,-9.121,-9.121,-9.121,-9.121,-9.121,-9.121,-9.121,-9.121,-9.121,-9.121,-9.121,-9.121,-9.121,-9.121,-9.121,-9.121,-9.121,-9.1941,-9.2556,-9.2749,-9.3518,-9.4403,-9.5249,-9.4326,-9.398,-9.4634,0.0,0.0,-9.2941,-9.2364,-9.1748,-9.121,-9.121,-9.1364,-9.1672,-9.2518,-9.3364,-9.421,-9.5057,-9.5788,-9.6288,-9.6288,-9.6288,-9.6288,-9.6288,-9.6288,-9.6288,-9.6288,-9.6288,-9.6288,-9.6288,-9.6288,-9.6288,-9.6288,-9.6288,-9.6288,-9.3633,-9.3787,-9.3787,-9.3864,-9.4557,-9.5095,-9.5095,-9.5788,-9.6288,-9.6288,-9.6288,-9.6288,-9.6288,-9.6288,-9.6288,-9.6288,-9.6288,-9.6288,-9.6288,-9.6288,-9.6288,-9.6288,-9.6288,-9.6288,-9.6288,-9.6288,-9.6288,-9.6288,-9.6288,-9.6288,-9.6288,-9.6288,-9.6288,-9.6288,-9.6288,-9.6288,-9.6288,-9.6288,-9.6288,-9.6288,-9.6288,-9.6249,-9.6134,-9.5288,-9.4903,-9.4595,-9.3056,-9.2441,-9.2287,-9.1479,-9.121,-9.121,-9.121,-9.121,-9.121,-9.121,-9.121,-9.121,-9.121,-9.121,-9.121,-9.121,-9.121,-9.121,-9.121,-9.121,-9.121,-9.121,-9.121,-9.121,-9.121,-9.121,-9.121,-9.121,-9.121,-9.121,-9.121,-9.1902,-9.2133,-9.1479,-9.2095,-9.2903,-9.3787,-9.3864,-9.4518,-9.6095,-9.6134,-9.5403,-9.371,-9.2133,-9.1248,-9.121,-9.1248,-9.1672,-9.2479,-9.3364,-9.421,-9.5095,-9.5903,-9.6288,-9.6288,-9.6288,-9.6288,-9.6288,-9.6288,-9.6288,-9.6288,-9.6288,-9.6288,-9.6288,-9.6288,-9.6288,-9.6288,-9.6288,-9.6288,-9.6326,-9.4518,-9.4672,-9.4903,-9.5557,-9.5865,-9.598,-9.598,-9.6172,-9.6288,-9.6288,-9.6288,-9.6288,-9.6288,-9.6288,-9.6288,-9.6288,-9.6288,-9.6288,-9.6288,-9.6288,-9.6288,-9.6288,-9.6288,-9.6288,-9.6288,-9.6288,-9.6288,-9.6288,-9.6288,-9.6288,-9.6288,-9.6288,-9.6288,-9.6288,-9.6288,-9.6288,-9.6288,-9.6288,-9.6288,-9.6288,-9.6288,-9.5903,-9.5288,-9.5057,-9.421,-9.3018,-9.2633,-9.2056,-9.1479,-9.1287,-9.121,-9.121,-9.121,-9.121,-9.121,-9.121,-9.121,-9.121,-9.121,-9.121,-9.121,-9.121,-9.121,-9.121,-9.121,-9.121,-9.121,-9.121,-9.121,-9.121,-9.121,-9.121,-9.121,-9.121,-9.121,-9.121,-9.121,-9.1364,-9.1902,-9.2979,-9.3287,-9.4018,-9.5557,-9.5672,-9.5595,-9.5326,-9.4672,-9.3864,-9.2826,-9.2402,-9.1902,-9.121,-9.1864,-9.2287,-9.2479,-9.3941,-9.5134,-9.598,-9.6211,-9.6288,-9.6288,-9.6288,-9.6288,-9.6288,-9.6288,-9.6288,-9.6288,-9.6288,-9.6288,-9.6288,-9.6288,-9.6288,-9.6288,-9.6288,-9.6288,-9.6403,-9.548,-9.5595,-9.5749,-9.6211,-9.6288,-9.6288,-9.6288,-9.6288,-9.6288,-9.6288,-9.6288,-9.6288,-9.6288,-9.6288,-9.6288,-9.6288,-9.6288,-9.6288,-9.6288,-9.6288,-9.6288,-9.6288,-9.6288,-9.6288,-9.6288,-9.6288,-9.6288,-9.6288,-9.6288,-9.6288,-9.6288,-9.6288,-9.6288,-9.6288,-9.6288,-9.6288,-9.6288,-9.6288,-9.6057,-9.5711,-9.5711,-9.5172,-9.4364,-9.398,-9.3287,-9.2441,-9.2056,-9.1595,-9.1248,-9.1672,-9.1518,-9.1287,-9.1672,-9.1518,-9.121,-9.121,-9.121,-9.121,-9.121,-9.121,-9.121,-9.121,-9.121,-9.121,-9.121,-9.121,-9.121,-9.121,-9.121,-9.121,-9.121,-9.121,-9.121,-9.121,-9.121,-9.1325,-9.1748,-9.1787,-9.2402,-9.4095,-9.4287,-9.4826,-9.6172,-9.6288,-9.6095,-9.5634,-9.4788,-9.4095,-9.3672,-9.3249,-9.2672,-9.1825,-9.2595,-9.3249,-9.3633,-9.4941,-9.5826,-9.6288,-9.6288,-9.6288,-9.6288,-9.6288,-9.6288,-9.6288,-9.6288,-9.6288,-9.6288,-9.6288,-9.6288,-9.6288,-9.6288,-9.6288,-9.6288,-9.6288,-9.6519,-9.6903,-9.6288,-9.6288,-9.6288,-9.6288,-9.6288,-9.6288,-9.6288,-9.6288,-9.6288,-9.6288,-9.6288,-9.6288,-9.6288,-9.6288,-9.6288,-9.6288,-9.6288,-9.6288,-9.6288,-9.6288,-9.6288,-9.6288,-9.6288,-9.6288,-9.6288,-9.6288,-9.6288,-9.6288,-9.6288,-9.6288,-9.6288,-9.6288,-9.6288,-9.6288,-9.6288,-9.6288,-9.6288,-9.6172,-9.5672,-9.498,-9.4864,-9.4287,-9.3441,-9.2749,-9.2479,-9.2402,-9.1672,-9.1479,-9.1672,-9.2287,-9.2018,-9.1518,-9.2095,-9.1787,-9.121,-9.121,-9.121,-9.121,-9.121,-9.121,-9.121,-9.121,-9.121,-9.121,-9.121,-9.121,-9.121,-9.121,-9.1287,-9.1402,-9.1402,-9.1518,-9.1556,-9.1441,-9.1518,-9.1787,-9.2402,-9.2595,-9.3249,-9.4826,-9.498,-9.5326,-9.6211,-9.6288,-9.6288,-9.6288,-9.5365,-9.4864,-9.498,-9.4172,-9.3441,-9.2903,-9.3518,-9.4287,-9.5172,-9.5942,-9.6288,-9.6288,-9.6288,-9.6288,-9.6288,-9.6288,-9.6288,-9.6288,-9.6288,-9.6288,-9.6288,-9.6288,-9.6288,-9.6288,-9.6288,-9.6288,-9.6326,-9.6442,-9.6903,-9.7557,-9.6288,-9.6288,-9.6288,-9.6288,-9.6288,-9.6288,-9.6288,-9.6288,-9.6288,-9.6288,-9.6288,-9.6288,-9.6288,-9.6288,-9.6288,-9.6288,-9.6288,-9.6288,-9.6288,-9.6288,-9.6288,-9.6288,-9.6288,-9.6288,-9.6288,-9.6288,-9.6288,-9.6288,-9.6288,-9.6288,-9.6288,-9.6288,-9.6288,-9.6288,-9.6288,-9.6288,-9.6249,-9.5518,-9.5095,-9.4941,-9.421,-9.3403,-9.2672,-9.2556,-9.2479,-9.2479,-9.2364,-9.2749,-9.321,-9.2672,-9.2402,-9.2172,-9.1595,-9.1325,-9.121,-9.121,-9.121,-9.121,-9.121,-9.121,-9.121,-9.121,-9.121,-9.121,-9.121,-9.121,-9.121,-9.121,-9.1787,-9.2287,-9.2287,-9.2864,-9.3095,-9.2402,-9.2864,-9.3133,-9.2595,-9.3095,-9.3864,-9.4864,-9.498,-9.5326,-9.6211,-9.6288,-9.6288,-9.6288,-9.4826,-9.421,-9.496,-9.4172,-9.398,-9.4595,-9.4711,-9.5211,-9.6095,-9.6249,-9.6288,-9.6288,-9.6288,-9.6288,-9.6288,-9.6288,-9.6288,-9.6288,-9.6288,-9.6288,-9.6288,-9.6288,-9.6288,-9.6288,-9.6288,-9.6288,-9.6365,-9.7057,-9.7403,-9.7711,-9.6288,-9.6288,-9.6288,-9.6288,-9.6288,-9.6288,-9.6288,-9.6288,-9.6288,-9.6288,-9.6288,-9.6288,-9.6288,-9.6288,-9.6288,-9.6288,-9.6288,-9.6288,-9.6288,-9.6288,-9.6288,-9.6288,-9.6288,-9.6288,-9.6288,-9.6288,-9.6288,-9.6288,-9.6288,-9.6288,-9.6288,-9.6288,-9.6057,-9.5634,-9.6095,-9.6057,-9.5557,-9.5172,-9.4711,-9.4249,-9.3864,-9.321,-9.2556,-9.2979,-9.3133,-9.3133,-9.3133,-9.3364,-9.371,-9.3787,-9.3518,-9.3095,-9.2672,-9.2249,-9.1825,-9.1325,-9.121,-9.121,-9.121,-9.121,-9.121,-9.121,-9.121,-9.1325,-9.1787,-9.1902,-9.2018,-9.2441,-9.2864,-9.3133,-9.3133,-9.3441,-9.3595,-9.321,-9.3441,-9.371,-9.3826,-9.4172,-9.4711,-9.5595,-9.5711,-9.5865,-9.6249,-9.6288,-9.6288,-9.6288,-9.5134,-9.4788,-9.5634,-9.4864,-9.4788,-9.5672,-9.5711,-9.5903,-9.6288,-9.6288,-9.6288,-9.6288,-9.6288,-9.6288,-9.6288,-9.6288,-9.6288,-9.6288,-9.6288,-9.6288,-9.6288,-9.6288,-9.6288,-9.6288,-9.6288,-9.6288,-9.6403,-9.7211,-9.7788,-9.8365,-9.6288,-9.6288,-9.6288,-9.6288,-9.6288,-9.6288,-9.6288,-9.6288,-9.6288,-9.6288,-9.6288,-9.6288,-9.6288,-9.6288,-9.6288,-9.6288,-9.6288,-9.6288,-9.6288,-9.6288,-9.6288,-9.6288,-9.6288,-9.6288,-9.6288,-9.6288,-9.6288,-9.6288,-9.6288,-9.6288,-9.6288,-9.648,-9.6211,-9.5595,-9.648,-9.6519,-9.5865,-9.548,-9.4903,-9.4249,-9.3864,-9.3326,-9.2864,-9.3441,-9.3826,-9.398,-9.398,-9.4134,-9.4364,-9.4826,-9.4557,-9.398,-9.3749,-9.3133,-9.2364,-9.171,-9.1364,-9.121,-9.121,-9.121,-9.1248,-9.1441,-9.1518,-9.1748,-9.2595,-9.2787,-9.2941,-9.3557,-9.3864,-9.398,-9.398,-9.4172,-9.4249,-9.4018,-9.4172,-9.448,-9.4903,-9.5172,-9.5557,-9.6211,-9.6288,-9.6288,-9.6288,-9.6288,-9.6211,-9.6019,-9.5365,-9.5288,-9.5942,-9.5365,-9.5403,-9.6288,-9.6288,-9.6288,-9.6288,-9.6288,-9.6288,-9.6288,-9.6288,-9.6288,-9.6288,-9.6288,-9.6288,-9.6288,-9.6288,-9.6288,-9.6288,-9.6288,-9.6288,-9.6288,-9.6288,-9.6288,-9.6442,-9.7442,-9.8211,-9.8942,-9.6288,-9.6288,-9.6288,-9.6288,-9.6288,-9.6288,-9.6288,-9.6288,-9.6288,-9.6288,-9.6288,-9.6288,-9.6288,-9.6288,-9.6288,-9.6288,-9.6288,-9.6288,-9.6288,-9.6288,-9.6288,-9.6288,-9.6288,-9.6288,-9.6288,-9.6288,-9.6288,-9.6288,-9.6288,-9.6288,-9.6326,-9.7057,-9.7365,-9.7365,-9.8211,-9.8557,-9.8404,-9.6865,-9.6172,-9.598,-9.4364,-9.3672,-9.3633,-9.3672,-9.421,-9.4903,-9.4903,-9.5403,-9.598,-9.5249,-9.496,-9.4749,-9.3941,-9.3133,-9.2479,-9.2402,-9.1825,-9.121,-9.121,-9.121,-9.1402,-9.221,-9.2402,-9.2633,-9.3441,-9.3595,-9.3633,-9.3672,-9.4326,-9.4903,-9.4903,-9.5557,-9.5826,-9.5018,-9.5595,-9.5865,-9.5095,-9.5711,-9.6249,-9.6288,-9.6288,-9.6288,-9.6288,-9.6288,-9.598,-9.5172,-9.5018,-9.5018,-9.5095,-9.5018,-9.5403,-9.6288,-9.6288,-9.6288,-9.6288,-9.6288,-9.6288,-9.6288,-9.6288,-9.6288,-9.6288,-9.6288,-9.6288,-9.6288,-9.6288,-9.6288,-9.6288,-9.6288,-9.6288,-9.6288,-9.6288,-9.6288,-9.6519,-9.8096,-9.875,-9.9019,-9.6288,-9.6288,-9.6288,-9.6288,-9.6288,-9.6288,-9.6288,-9.6288,-9.6288,-9.6288,-9.6288,-9.6288,-9.6288,-9.6288,-9.6288,-9.6288,-9.6288,-9.6288,-9.6288,-9.6288,-9.6288,-9.6288,-9.6288,-9.6288,-9.6288,-9.6288,-9.6288,-9.6288,-9.6288,-9.6557,-9.7057,-9.7365,-9.7519,-9.7557,-9.8404,-9.8211,-9.7211,-9.6557,-9.598,-9.5441,-9.4749,-9.4518,-9.4557,-9.5095,-9.5518,-9.5826,-9.5826,-9.6019,-9.6249,-9.5903,-9.5826,-9.5634,-9.4788,-9.4287,-9.3941,-9.3403,-9.2672,-9.2018,-9.2018,-9.1595,-9.1287,-9.1595,-9.2095,-9.271,-9.3518,-9.4095,-9.4672,-9.5211,-9.5595,-9.5826,-9.5826,-9.6095,-9.6365,-9.6519,-9.6826,-9.6942,-9.6596,-9.6826,-9.6673,-9.5634,-9.598,-9.6095,-9.5557,-9.548,-9.5557,-9.5788,-9.5288,-9.5249,-9.5788,-9.5826,-9.5942,-9.6288,-9.6288,-9.6288,-9.6288,-9.6288,-9.6288,-9.6288,-9.6288,-9.6288,-9.6288,-9.6288,-9.6288,-9.6288,-9.6288,-9.6288,-9.6288,-9.6288,-9.6288,-9.6288,-9.6288,-9.6288,-9.6519,-9.8173,-9.8788,-9.9019,-9.6288,-9.6288,-9.6288,-9.6288,-9.6288,-9.6288,-9.6288,-9.6288,-9.6288,-9.6288,-9.6288,-9.6288,-9.6288,-9.6288,-9.6288,-9.6288,-9.6288,-9.6288,-9.6288,-9.6288,-9.6288,-9.6288,-9.6288,-9.6442,-9.6673,-9.6673,-9.6826,-9.7096,-9.7096,-9.7365,-9.7904,-9.8173,-9.8173,-9.7942,-9.9096,-9.8634,-9.7096,-9.7096,-9.6596,-9.5749,-9.5518,-9.5403,-9.548,-9.6057,-9.6288,-9.6288,-9.6288,-9.6288,-9.6288,-9.6288,-9.6288,-9.6211,-9.5595,-9.5211,-9.4826,-9.3941,-9.3287,-9.2864,-9.2864,-9.2441,-9.1979,-9.1979,-9.2633,-9.348,-9.4326,-9.498,-9.5557,-9.6172,-9.6288,-9.6365,-9.6634,-9.6673,-9.6865,-9.7403,-9.7519,-9.7403,-9.7173,-9.7134,-9.6711,-9.5518,-9.5672,-9.5749,-9.5441,-9.4903,-9.4941,-9.5826,-9.5326,-9.5365,-9.6249,-9.6288,-9.6288,-9.6288,-9.6288,-9.6288,-9.6288,-9.6288,-9.6288,-9.6288,-9.6288,-9.6288,-9.6288,-9.6288,-9.6288,-9.6288,-9.6288,-9.6288,-9.6288,-9.6288,-9.6288,-9.6288,-9.6288,-9.6288,-9.6519,-9.8173,-9.8788,-9.9019,-9.6326,-9.6326,-9.6326,-9.6326,-9.6288,-9.6288,-9.6288,-9.6288,-9.6288,-9.6288,-9.6288,-9.6288,-9.6288,-9.6288,-9.6288,-9.6288,-9.6288,-9.6288,-9.6288,-9.6326,-9.6326,-9.6326,-9.6326,-9.6673,-9.748,-9.7519,-9.7942,-9.8788,-9.8788,-9.8788,-9.8827,-9.9673,-9.9635,-9.8865,-10.0519,-10.0404,-9.8788,-9.8788,-9.8288,-9.7403,-9.6634,-9.6288,-9.6288,-9.6288,-9.6288,-9.6288,-9.6288,-9.6288,-9.6288,-9.6288,-9.6288,-9.6288,-9.6288,-9.5711,-9.4826,-9.398,-9.371,-9.371,-9.371,-9.371,-9.371,-9.371,-9.4364,-9.5211,-9.6095,-9.6288,-9.6288,-9.6326,-9.6288,-9.6557,-9.7365,-9.748,-9.748,-9.7519,-9.7519,-9.7211,-9.6442,-9.6326,-9.6288,-9.6288,-9.5518,-9.5326,-9.6211,-9.4711,-9.4057,-9.4903,-9.5018,-9.5403,-9.6249,-9.6288,-9.6288,-9.6288,-9.6288,-9.6288,-9.6288,-9.6288,-9.6288,-9.6288,-9.6288,-9.6288,-9.6288,-9.6288,-9.6288,-9.6288,-9.6288,-9.6288,-9.6288,-9.6288,-9.6288,-9.6288,-9.6288,-9.6288,-9.6519,-9.8173,-9.8788,-9.9058,-9.8057,-9.7557,-9.7134,-9.7134,-9.6673,-9.6288,-9.6288,-9.6288,-9.6288,-9.6288,-9.6288,-9.6288,-9.6288,-9.6288,-9.6288,-9.6288,-9.6288,-9.6288,-9.6288,-9.6826,-9.7134,-9.7134,-9.7134,-9.7557,-9.8404,-9.8404,-9.8519,-9.8788,-9.8788,-9.8788,-9.8788,-9.9058,-9.9058,-9.8827,-9.9327,-9.8942,-9.7904,-9.7904,-9.7403,-9.6634,-9.6403,-9.6288,-9.6288,-9.6288,-9.6288,-9.6288,-9.6288,-9.6288,-9.6288,-9.6288,-9.6288,-9.6288,-9.6288,-9.6134,-9.5865,-9.5595,-9.5095,-9.4595,-9.4595,-9.4595,-9.448,-9.3826,-9.4364,-9.5057,-9.5326,-9.5865,-9.648,-9.7019,-9.6711,-9.6557,-9.7365,-9.7057,-9.6826,-9.7403,-9.7519,-9.7403,-9.7173,-9.7134,-9.6711,-9.5518,-9.5711,-9.5518,-9.4557,-9.4557,-9.4711,-9.498,-9.5557,-9.6019,-9.6288,-9.6288,-9.6288,-9.6288,-9.6288,-9.6288,-9.6288,-9.6288,-9.6288,-9.6288,-9.6288,-9.6288,-9.6288,-9.6288,-9.6288,-9.6288,-9.6288,-9.6288,-9.6288,-9.6288,-9.6288,-9.6288,-9.6288,-9.6634,-9.7288,-9.8404,-9.9173,-9.9865,-9.7827,-9.7403,-9.7019,-9.7019,-9.6634,-9.6288,-9.6288,-9.6288,-9.6288,-9.6288,-9.6288,-9.6288,-9.6288,-9.6288,-9.6288,-9.6288,-9.6288,-9.6288,-9.6288,-9.7057,-9.7634,-9.8019,-9.8327,-9.8788,-9.9288,-9.9288,-9.9481,-9.9788,-9.9788,-9.9788,-9.9788,-9.9442,-9.9288,-9.9288,-9.9288,-9.8827,-9.8019,-9.8019,-9.7519,-9.6749,-9.6442,-9.6288,-9.6288,-9.6288,-9.6288,-9.6288,-9.6288,-9.6288,-9.6288,-9.6288,-9.6288,-9.6288,-9.6288,-9.6288,-9.6288,-9.6288,-9.6134,-9.5903,-9.5595,-9.5749,-9.5788,-9.4941,-9.5134,-9.5595,-9.5903,-9.6403,-9.7019,-9.7827,-9.7365,-9.7019,-9.7865,-9.7326,-9.6942,-9.7403,-9.7519,-9.7403,-9.7057,-9.7019,-9.6634,-9.5634,-9.5672,-9.5518,-9.4788,-9.4557,-9.4634,-9.498,-9.5826,-9.6288,-9.6288,-9.6288,-9.6288,-9.6288,-9.6288,-9.6288,-9.6288,-9.6288,-9.6288,-9.6288,-9.6288,-9.6288,-9.6288,-9.6288,-9.6288,-9.6288,-9.6288,-9.6288,-9.6288,-9.6288,-9.6288,-9.6326,-9.6634,-9.7057,-9.7634,-9.8865,-9.9635,-10.0212,-9.6519,-9.648,-9.6403,-9.6403,-9.6365,-9.6288,-9.6288,-9.6288,-9.6288,-9.6288,-9.6288,-9.6288,-9.6288,-9.6288,-9.6288,-9.6288,-9.6288,-9.6326,-9.6403,-9.7173,-9.8019,-9.8865,-9.975,-10.0212,-10.0212,-10.0212,-10.0596,-10.1289,-10.1289,-10.1212,-10.1096,-10.0404,-9.9981,-9.9865,-9.9942,-9.9519,-9.8788,-9.8711,-9.8211,-9.7442,-9.6634,-9.6288,-9.6288,-9.6288,-9.6288,-9.6288,-9.6288,-9.6288,-9.6288,-9.6288,-9.6288,-9.6288,-9.6288,-9.6288,-9.6326,-9.6403,-9.6865,-9.725,-9.6596,-9.6903,-9.725,-9.6557,-9.6403,-9.6596,-9.7326,-9.7557,-9.7827,-9.8634,-9.8096,-9.775,-9.8519,-9.798,-9.7403,-9.7403,-9.7403,-9.7134,-9.6403,-9.6288,-9.6288,-9.6288,-9.5595,-9.5403,-9.6095,-9.4749,-9.4172,-9.5057,-9.5865,-9.6288,-9.6288,-9.6288,-9.6288,-9.6288,-9.6288,-9.6288,-9.6288,-9.6288,-9.6288,-9.6288,-9.6288,-9.6288,-9.6288,-9.6288,-9.6288,-9.6288,-9.6288,-9.6288,-9.6288,-9.6288,-9.6288,-9.6365,-9.7211,-9.7557,-9.7827,-9.9481,-10.0096,-10.0289,-9.825,-9.7711,-9.725,-9.725,-9.6711,-9.6288,-9.6288,-9.6288,-9.6288,-9.6288,-9.6288,-9.6288,-9.6288,-9.6288,-9.6288,-9.6288,-9.6288,-9.6557,-9.7211,-9.8057,-9.8904,-9.9788,-10.0596,-10.1019,-10.1019,-10.1019,-10.1096,-10.1289,-10.1289,-10.0596,-9.9365,-9.9865,-9.9365,-9.8096,-9.8788,-9.8981,-9.875,-9.8057,-9.7673,-9.7442,-9.6634,-9.6288,-9.6288,-9.6288,-9.6288,-9.6288,-9.6288,-9.6288,-9.6288,-9.6288,-9.6288,-9.6288,-9.6288,-9.6288,-9.6442,-9.7057,-9.6903,-9.6673,-9.7134,-9.6903,-9.6673,-9.7134,-9.725,-9.7288,-9.7442,-9.8019,-9.8557,-9.875,-9.8096,-9.7557,-9.775,-9.7096,-9.6557,-9.6557,-9.6557,-9.6519,-9.6326,-9.6288,-9.6288,-9.6288,-9.6134,-9.5826,-9.5326,-9.4941,-9.5057,-9.5942,-9.6211,-9.6288,-9.6288,-9.6288,-9.6288,-9.6288,-9.6288,-9.6288,-9.6288,-9.6288,-9.6288,-9.6288,-9.6288,-9.6288,-9.6288,-9.6288,-9.6288,-9.6288,-9.6288,-9.6288,-9.6288,-9.6288,-9.6288,-9.6365,-9.7211,-9.7904,-9.8634,-9.9712,-10.0481,-10.1096,-9.7596,-9.725,-9.6942,-9.6942,-9.6596,-9.6288,-9.6288,-9.6288,-9.6288,-9.6288,-9.6288,-9.6288,-9.6288,-9.6288,-9.6442,-9.6826,-9.725,-9.7673,-9.8096,-9.8942,-9.9596,-10.0096,-10.0904,-10.1289,-10.1289,-10.1289,-10.1289,-10.1289,-10.1289,-10.0904,-9.9981,-10.0096,-9.9827,-9.9327,-9.9404,-9.9404,-9.9365,-9.8481,-9.7865,-9.7442,-9.6634,-9.6288,-9.6288,-9.6288,-9.6288,-9.6288,-9.6288,-9.6288,-9.6288,-9.6288,-9.6288,-9.6288,-9.6288,-9.6288,-9.648,-9.725,-9.7519,-9.7596,-9.8019,-9.8134,-9.8019,-9.7596,-9.7827,-9.8134,-9.8134,-9.8481,-9.8788,-9.8788,-9.8096,-9.7519,-9.7519,-9.6826,-9.6288,-9.6288,-9.6288,-9.6288,-9.6288,-9.6288,-9.6288,-9.6288,-9.6288,-9.6134,-9.5672,-9.5634,-9.5826,-9.6288,-9.6288,-9.6288,-9.6288,-9.6288,-9.6288,-9.6288,-9.6288,-9.6288,-9.6288,-9.6288,-9.6288,-9.6288,-9.6288,-9.6288,-9.6288,-9.6288,-9.6288,-9.6288,-9.6288,-9.6288,-9.6288,-9.6288,-9.6288,-9.6442,-9.7634,-9.8404,-9.8942,-10.0212,-10.0904,-10.1289,-9.6288,-9.6288,-9.6288,-9.6288,-9.6288,-9.6288,-9.6288,-9.6288,-9.6288,-9.6288,-9.6442,-9.6519,-9.6519,-9.6634,-9.7019,-9.7673,-9.8365,-9.8865,-9.9019,-9.9712,-10.0173,-10.0289,-10.0904,-10.1289,-10.1289,-10.1289,-10.1289,-10.1289,-10.1289,-10.1212,-10.1096,-10.0596,-10.0596,-10.1096,-10.0404,-10.0096,-9.9981,-9.9019,-9.8173,-9.7442,-9.6634,-9.6288,-9.6288,-9.6288,-9.6288,-9.6288,-9.6288,-9.6288,-9.6288,-9.6288,-9.6288,-9.6288,-9.6288,-9.6288,-9.648,-9.7442,-9.8134,-9.8596,-9.875,-9.9211,-9.9288,-9.7865,-9.8057,-9.8596,-9.8596,-9.8673,-9.875,-9.8596,-9.8019,-9.7442,-9.7326,-9.6749,-9.6288,-9.6288,-9.6288,-9.6288,-9.6288,-9.6288,-9.6288,-9.6288,-9.6288,-9.6288,-9.6288,-9.6288,-9.6288,-9.6288,-9.6288,-9.6288,-9.6288,-9.6288,-9.6288,-9.6288,-9.6288,-9.6288,-9.6288,-9.6288,-9.6288,-9.6288,-9.6288,-9.6211,-9.6095,-9.6095,-9.6019,-9.5865,-9.6019,-9.6095,-9.6095,-9.6249,-9.6288,-9.648,-9.8134,-9.8788,-9.8981,-10.0712,-10.1289,-10.1289,-9.6288,-9.6288,-9.6288,-9.6288,-9.6288,-9.6288,-9.6288,-9.6288,-9.6288,-9.6288,-9.6903,-9.7326,-9.7326,-9.8019,-9.8519,-9.8596,-9.8711,-9.9096,-9.9865,-9.9981,-10.0404,-10.1096,-10.1212,-10.1289,-10.1289,-10.1289,-10.1289,-10.1289,-10.1289,-10.0904,-10.0289,-10.0904,-10.0789,-10.0289,-10.0096,-10.0096,-9.9981,-9.8365,-9.7596,-9.7442,-9.6634,-9.6288,-9.6288,-9.6288,-9.6288,-9.6288,-9.6288,-9.6288,-9.6288,-9.6288,-9.6288,-9.6288,-9.6288,-9.6288,-9.6596,-9.8173,-9.8173,-9.7827,-9.8596,-9.8327,-9.7788,-9.7557,-9.7596,-9.7673,-9.7673,-9.825,-9.8596,-9.7827,-9.7596,-9.7288,-9.6596,-9.6365,-9.6288,-9.6288,-9.6288,-9.6288,-9.6288,-9.6288,-9.6288,-9.6288,-9.6288,-9.6288,-9.6288,-9.6288,-9.6288,-9.6288,-9.6288,-9.6288,-9.6288,-9.6288,-9.6288,-9.6288,-9.6288,-9.6288,-9.6288,-9.6288,-9.6288,-9.6288,-9.6288,-9.5903,-9.5172,-9.5172,-9.4749,-9.4095,-9.4826,-9.5172,-9.5211,-9.598,-9.6288,-9.648,-9.8134,-9.8788,-9.8981,-10.0712,-10.1289,-10.1289,-9.6288,-9.6288,-9.6442,-9.6903,-9.698,-9.7134,-9.7634,-9.7711,-9.7711,-9.7711,-9.8019,-9.8211,-9.8211,-9.8981,-9.9519,-9.9519,-9.9942,-10.0404,-10.0712,-10.0789,-10.0904,-10.1289,-10.1289,-10.1289,-10.1289,-10.1289,-10.1289,-10.1289,-10.1289,-10.1096,-10.0789,-10.1096,-10.0904,-10.0096,-10.0096,-9.9558,-9.8596,-9.7827,-9.725,-9.6788,-9.6442,-9.6288,-9.6288,-9.6288,-9.6288,-9.6288,-9.6288,-9.6288,-9.6288,-9.6288,-9.6288,-9.6288,-9.6288,-9.6288,-9.6519,-9.7711,-9.7788,-9.7673,-9.8557,-9.8519,-9.8096,-9.7634,-9.7519,-9.7365,-9.6942,-9.7134,-9.7288,-9.6903,-9.6826,-9.6711,-9.6365,-9.6288,-9.6288,-9.6288,-9.6288,-9.6288,-9.6288,-9.6288,-9.6288,-9.6288,-9.6288,-9.6288,-9.6288,-9.6288,-9.6288,-9.6288,-9.6288,-9.6288,-9.6288,-9.6288,-9.6288,-9.6288,-9.6288,-9.6288,-9.6288,-9.6288,-9.6288,-9.6288,-9.6288,-9.5826,-9.498,-9.498,-9.4518,-9.371,-9.4095,-9.4826,-9.5711,-9.5634,-9.6134,-9.7096,-9.8327,-9.9365,-10.0289,-10.1019,-10.1289,-10.1289]},{"header":{"parameterUnit":"m.s-1","parameterCategory":1,"la1":30.6,"la2":28.766,"lo1":-90.7593,"lo2":-88.6598,"dx":0.0162,"dy":0.0183,"nx":116,"ny":114,"refTime":"2023-01-03T06:00:00:Z","depth":0,"parameterNumber":3,"parameterNumberName":"V-component_of_WINDS"},"data":[0.0,0.0,0.0,0.0,0.0,0.0,0.0,0.0,0.0,0.0,0.0,0.0,0.0,0.0,0.0,0.0,0.0,0.0,0.0,0.0,0.0,0.0,0.0,0.0,0.0,0.0,0.0,0.0,0.0,0.0,0.0,0.0,0.0,0.0,0.0,0.0,0.0,0.0,0.0,0.0,0.0,0.0,0.0,0.0,0.0,0.0,0.0,0.0,0.0,0.0,0.0,0.0,0.0,0.0,0.0,0.0,0.0,0.0,0.0,0.0,0.0,0.0,0.0,0.0,0.0,0.0,0.0,0.0,0.0,0.0,0.0,0.0,0.0,0.0,0.0,0.0,0.0,0.0,0.0,0.0,0.0,0.0,0.0,0.0,0.0,0.0,0.0,0.0,0.0,0.0,0.0,0.0,0.0,0.0,0.0,0.0,0.0,0.0,0.0,0.0,0.0,0.0,0.0,0.0,0.0,0.0,0.0,0.0,0.0,0.0,0.0,0.0,0.0,0.0,0.0,0.0,0.0,0.0,0.0,0.0,0.0,0.0,0.0,0.0,0.0,0.0,0.0,0.0,0.0,0.0,0.0,0.0,0.0,0.0,0.0,0.0,0.0,0.0,0.0,0.0,0.0,0.0,0.0,0.0,0.0,0.0,0.0,0.0,0.0,0.0,0.0,0.0,0.0,0.0,0.0,0.0,0.0,0.0,0.0,0.0,0.0,0.0,0.0,0.0,0.0,0.0,0.0,0.0,0.0,0.0,0.0,0.0,0.0,0.0,0.0,0.0,0.0,0.0,0.0,0.0,0.0,0.0,0.0,0.0,0.0,0.0,0.0,0.0,0.0,0.0,0.0,0.0,0.0,0.0,0.0,0.0,0.0,0.0,0.0,0.0,0.0,0.0,0.0,0.0,0.0,0.0,0.0,0.0,0.0,0.0,0.0,0.0,0.0,0.0,0.0,0.0,0.0,0.0,0.0,0.0,0.0,0.0,0.0,0.0,0.0,0.0,0.0,0.0,0.0,0.0,0.0,0.0,0.0,0.0,0.0,0.0,0.0,0.0,0.0,0.0,0.0,0.0,0.0,0.0,0.0,0.0,0.0,0.0,0.0,0.0,0.0,0.0,0.0,0.0,0.0,0.0,0.0,0.0,0.0,0.0,0.0,0.0,0.0,0.0,0.0,0.0,0.0,0.0,0.0,0.0,0.0,0.0,0.0,0.0,0.0,0.0,0.0,0.0,0.0,0.0,0.0,0.0,0.0,0.0,0.0,0.0,0.0,0.0,0.0,0.0,0.0,0.0,0.0,0.0,0.0,0.0,0.0,0.0,0.0,0.0,0.0,0.0,0.0,0.0,0.0,0.0,0.0,0.0,0.0,0.0,0.0,0.0,0.0,0.0,0.0,0.0,0.0,0.0,0.0,0.0,0.0,0.0,0.0,0.0,0.0,0.0,0.0,0.0,0.0,0.0,0.0,0.0,0.0,0.0,0.0,0.0,0.0,0.0,0.0,0.0,0.0,0.0,0.0,0.0,0.0,0.0,0.0,0.0,0.0,0.0,0.0,0.0,0.0,0.0,0.0,0.0,0.0,0.0,0.0,0.0,0.0,0.0,0.0,0.0,0.0,0.0,0.0,0.0,0.0,0.0,0.0,0.0,0.0,0.0,0.0,0.0,0.0,0.0,0.0,0.0,0.0,0.0,0.0,0.0,0.0,0.0,0.0,0.0,0.0,0.0,0.0,0.0,0.0,0.0,0.0,0.0,0.0,0.0,0.0,0.0,0.0,0.0,0.0,0.0,0.0,0.0,0.0,0.0,0.0,0.0,0.0,0.0,0.0,0.0,0.0,0.0,0.0,0.0,0.0,0.0,0.0,0.0,0.0,0.0,0.0,0.0,0.0,0.0,0.0,0.0,0.0,0.0,0.0,0.0,0.0,0.0,0.0,0.0,0.0,0.0,0.0,0.0,0.0,0.0,0.0,0.0,0.0,0.0,0.0,0.0,0.0,0.0,0.0,0.0,0.0,0.0,0.0,0.0,0.0,0.0,0.0,0.0,0.0,0.0,0.0,0.0,0.0,0.0,0.0,0.0,0.0,0.0,0.0,0.0,0.0,0.0,0.0,0.0,0.0,0.0,0.0,0.0,0.0,0.0,0.0,0.0,0.0,0.0,0.0,0.0,0.0,0.0,0.0,0.0,0.0,0.0,0.0,0.0,0.0,0.0,0.0,0.0,0.0,0.0,0.0,0.0,0.0,0.0,0.0,0.0,0.0,0.0,0.0,0.0,0.0,0.0,0.0,0.0,0.0,0.0,0.0,0.0,0.0,0.0,0.0,0.0,0.0,0.0,0.0,0.0,0.0,0.0,0.0,0.0,0.0,0.0,0.0,0.0,0.0,0.0,0.0,0.0,0.0,0.0,0.0,0.0,0.0,0.0,0.0,0.0,0.0,0.0,0.0,0.0,0.0,0.0,0.0,0.0,0.0,0.0,0.0,0.0,0.0,0.0,0.0,0.0,0.0,0.0,0.0,0.0,0.0,0.0,0.0,0.0,0.0,0.0,0.0,0.0,0.0,0.0,0.0,0.0,0.0,0.0,0.0,0.0,0.0,0.0,0.0,0.0,0.0,0.0,0.0,0.0,0.0,0.0,0.0,0.0,0.0,0.0,0.0,0.0,0.0,0.0,0.0,0.0,0.0,0.0,0.0,0.0,0.0,0.0,0.0,0.0,0.0,0.0,0.0,0.0,0.0,0.0,0.0,0.0,0.0,0.0,0.0,0.0,0.0,0.0,0.0,0.0,0.0,0.0,0.0,0.0,0.0,0.0,0.0,0.0,0.0,0.0,0.0,0.0,0.0,0.0,0.0,0.0,0.0,0.0,0.0,0.0,0.0,0.0,0.0,0.0,0.0,0.0,0.0,0.0,0.0,0.0,0.0,0.0,0.0,0.0,0.0,0.0,0.0,0.0,0.0,0.0,0.0,0.0,0.0,0.0,0.0,0.0,0.0,0.0,0.0,0.0,0.0,0.0,0.0,0.0,0.0,0.0,0.0,0.0,0.0,0.0,0.0,0.0,0.0,0.0,0.0,0.0,0.0,0.0,0.0,0.0,0.0,0.0,0.0,0.0,0.0,0.0,0.0,0.0,0.0,0.0,0.0,0.0,0.0,0.0,0.0,0.0,0.0,0.0,0.0,0.0,0.0,0.0,0.0,0.0,0.0,0.0,0.0,0.0,0.0,0.0,0.0,0.0,0.0,0.0,0.0,0.0,0.0,0.0,0.0,0.0,0.0,0.0,0.0,0.0,0.0,0.0,0.0,0.0,0.0,0.0,0.0,0.0,0.0,0.0,0.0,0.0,0.0,0.0,0.0,0.0,0.0,0.0,0.0,0.0,0.0,0.0,0.0,0.0,0.0,0.0,0.0,0.0,0.0,0.0,0.0,0.0,0.0,0.0,0.0,0.0,0.0,0.0,0.0,0.0,0.0,0.0,0.0,0.0,0.0,0.0,0.0,0.0,0.0,0.0,0.0,0.0,0.0,0.0,0.0,0.0,0.0,0.0,0.0,0.0,0.0,0.0,0.0,0.0,0.0,0.0,0.0,0.0,0.0,0.0,0.0,0.0,0.0,0.0,0.0,0.0,0.0,0.0,0.0,0.0,0.0,0.0,0.0,0.0,0.0,0.0,0.0,0.0,0.0,0.0,0.0,0.0,0.0,0.0,0.0,0.0,0.0,0.0,0.0,0.0,0.0,0.0,0.0,0.0,0.0,0.0,0.0,0.0,0.0,0.0,0.0,0.0,0.0,0.0,0.0,0.0,0.0,0.0,0.0,0.0,0.0,0.0,0.0,0.0,0.0,0.0,0.0,0.0,0.0,0.0,0.0,0.0,0.0,0.0,0.0,0.0,0.0,0.0,0.0,0.0,0.0,0.0,0.0,0.0,0.0,0.0,0.0,0.0,0.0,0.0,0.0,0.0,0.0,0.0,0.0,0.0,0.0,0.0,0.0,0.0,0.0,0.0,0.0,0.0,0.0,0.0,0.0,0.0,0.0,0.0,0.0,0.0,0.0,0.0,0.0,0.0,0.0,0.0,0.0,0.0,0.0,0.0,0.0,0.0,0.0,0.0,0.0,0.0,0.0,0.0,0.0,0.0,0.0,0.0,0.0,0.0,0.0,0.0,0.0,0.0,0.0,0.0,0.0,0.0,0.0,0.0,0.0,0.0,0.0,0.0,0.0,0.0,0.0,0.0,0.0,0.0,0.0,0.0,0.0,0.0,0.0,0.0,0.0,0.0,0.0,0.0,0.0,0.0,0.0,0.0,0.0,0.0,0.0,0.0,0.0,0.0,0.0,0.0,0.0,0.0,0.0,0.0,0.0,0.0,0.0,0.0,0.0,0.0,0.0,0.0,0.0,0.0,0.0,0.0,0.0,0.0,0.0,0.0,0.0,0.0,0.0,0.0,0.0,0.0,0.0,0.0,0.0,0.0,0.0,0.0,0.0,0.0,0.0,0.0,0.0,0.0,0.0,0.0,0.0,0.0,0.0,0.0,0.0,0.0,0.0,0.0,0.0,0.0,0.0,0.0,0.0,0.0,0.0,0.0,0.0,0.0,0.0,0.0,0.0,0.0,0.0,0.0,0.0,0.0,0.0,0.0,0.0,0.0,0.0,0.0,0.0,0.0,0.0,0.0,0.0,0.0,0.0,0.0,0.0,0.0,0.0,0.0,0.0,0.0,0.0,0.0,0.0,0.0,0.0,0.0,0.0,0.0,0.0,0.0,0.0,0.0,0.0,0.0,0.0,0.0,0.0,0.0,0.0,0.0,0.0,0.0,0.0,0.0,0.0,0.0,0.0,0.0,0.0,0.0,0.0,0.0,0.0,0.0,0.0,0.0,0.0,0.0,0.0,0.0,0.0,0.0,0.0,0.0,0.0,0.0,0.0,0.0,0.0,0.0,0.0,0.0,0.0,0.0,0.0,0.0,0.0,0.0,0.0,0.0,0.0,0.0,0.0,0.0,0.0,0.0,0.0,0.0,0.0,0.0,0.0,0.0,0.0,0.0,0.0,0.0,0.0,0.0,0.0,0.0,0.0,0.0,0.0,0.0,0.0,0.0,0.0,0.0,0.0,0.0,0.0,0.0,0.0,0.0,0.0,0.0,0.0,0.0,0.0,0.0,0.0,0.0,0.0,0.0,0.0,0.0,0.0,0.0,0.0,0.0,0.0,0.0,0.0,0.0,0.0,0.0,0.0,0.0,0.0,0.0,0.0,0.0,0.0,0.0,0.0,0.0,0.0,0.0,0.0,0.0,0.0,0.0,0.0,0.0,0.0,0.0,0.0,0.0,0.0,0.0,0.0,0.0,0.0,0.0,0.0,0.0,0.0,0.0,0.0,0.0,0.0,0.0,0.0,0.0,0.0,0.0,0.0,0.0,0.0,0.0,0.0,0.0,0.0,0.0,0.0,0.0,0.0,0.0,0.0,0.0,0.0,0.0,0.0,0.0,0.0,0.0,0.0,0.0,0.0,0.0,0.0,0.0,0.0,0.0,0.0,0.0,0.0,0.0,0.0,0.0,0.0,0.0,0.0,0.0,0.0,0.0,0.0,0.0,0.0,0.0,0.0,0.0,0.0,0.0,0.0,0.0,0.0,0.0,0.0,0.0,0.0,0.0,0.0,0.0,0.0,0.0,0.0,0.0,0.0,0.0,0.0,0.0,0.0,0.0,0.0,0.0,0.0,0.0,0.0,0.0,0.0,0.0,0.0,0.0,0.0,0.0,0.0,0.0,0.0,0.0,0.0,0.0,0.0,0.0,0.0,0.0,0.0,0.0,0.0,0.0,0.0,0.0,0.0,0.0,0.0,0.0,0.0,0.0,0.0,0.0,0.0,0.0,0.0,0.0,0.0,0.0,0.0,0.0,0.0,0.0,0.0,0.0,0.0,0.0,0.0,0.0,0.0,0.0,0.0,0.0,0.0,0.0,0.0,0.0,0.0,0.0,0.0,0.0,0.0,0.0,0.0,0.0,0.0,0.0,0.0,0.0,0.0,0.0,0.0,0.0,0.0,0.0,0.0,0.0,0.0,0.0,0.0,0.0,0.0,0.0,0.0,0.0,-0.7689,-0.9924,0.0,0.0,0.0,0.0,0.0,0.0,0.0,0.0,0.0,0.0,0.0,0.0,0.0,0.0,0.0,0.0,0.0,0.0,0.0,0.0,0.0,0.0,0.0,0.0,0.0,0.0,0.0,0.0,0.0,0.0,0.0,0.0,0.0,0.0,0.0,0.0,-0.9844,-1.088,-1.0191,-1.1507,-1.4694,-1.6314,-1.8833,-2.2085,0.0,0.0,0.0,0.0,0.0,0.0,0.0,0.0,0.0,0.0,0.0,0.0,0.0,0.0,0.0,0.0,0.0,0.0,0.0,0.0,0.0,0.0,0.0,0.0,0.0,0.0,0.0,0.0,0.0,0.0,0.0,0.0,0.0,0.0,0.0,0.0,0.0,0.0,0.0,0.0,0.0,0.0,0.0,0.0,0.0,0.0,0.0,0.0,0.0,0.0,0.0,0.0,0.0,0.0,0.0,0.0,0.0,0.0,0.0,0.0,0.0,0.0,0.0,0.0,0.0,0.0,0.0,0.0,0.0,0.0,-0.5556,-0.7831,0.0,0.0,0.0,0.0,0.0,0.0,0.0,0.0,0.0,0.0,0.0,0.0,0.0,0.0,0.0,0.0,0.0,0.0,0.0,0.0,0.0,0.0,0.0,-1.8932,-1.835,-1.6394,-1.4584,-1.352,0.0,0.0,0.0,0.0,0.0,0.0,-1.0214,-1.0532,-1.0645,-1.0538,-1.1579,-1.4281,-1.8477,-1.9628,-2.0861,-2.2219,-2.3196,0.0,0.0,0.0,0.0,0.0,0.0,0.0,0.0,0.0,0.0,0.0,0.0,0.0,0.0,0.0,0.0,0.0,0.0,0.0,0.0,0.0,0.0,0.0,0.0,0.0,0.0,0.0,0.0,0.0,0.0,0.0,0.0,0.0,0.0,0.0,0.0,0.0,0.0,0.0,0.0,0.0,0.0,0.0,0.0,0.0,0.0,0.0,0.0,0.0,0.0,0.0,0.0,0.0,0.0,0.0,0.0,0.0,0.0,0.0,0.0,0.0,0.0,0.0,0.2987,0.1848,0.0,0.0,0.0,-0.0174,-0.3958,-0.5705,-0.5984,-0.603,0.0,0.0,0.0,0.0,0.0,0.0,0.0,0.0,0.0,0.0,0.0,0.0,0.0,0.0,0.0,0.0,0.0,0.0,0.0,-2.0164,-1.8664,-1.8859,-1.8424,-1.6856,-1.4996,-1.3908,-1.3883,0.0,0.0,0.0,0.0,0.0,-0.8225,-0.9971,-1.0222,-0.8987,-1.2875,-1.6757,-2.0515,-2.039,-2.0462,-2.0837,-2.1817,-2.124,-1.9404,0.0,0.0,0.0,0.0,0.0,0.0,0.0,0.0,0.0,0.0,0.0,0.0,0.0,0.0,0.0,0.0,0.0,0.0,0.0,0.0,0.0,0.0,0.0,0.0,0.0,0.0,0.0,0.0,0.0,0.0,0.0,0.0,0.0,0.0,0.0,0.0,0.0,0.0,0.0,0.0,0.0,-1.7437,-1.82,0.0,0.0,0.0,0.0,0.0,0.0,0.0,0.0,0.0,0.0,0.0,0.0,0.0,0.642,0.6738,0.4772,0.3643,0.3266,0.1356,0.0257,0.0,0.0,0.0,0.0,-0.0614,0.0,-0.3707,-0.3594,0.0,0.0,0.0,0.0,0.0,0.0,0.0,0.0,0.0,0.0,0.0,0.0,0.0,0.0,0.0,0.0,0.0,0.0,0.0,0.0,0.0,-1.683,-1.5642,-1.3888,-1.3013,-1.2451,-1.227,-1.1382,0.0,0.0,0.0,-0.8723,-0.7922,-0.9034,-1.0542,-1.2429,-1.6628,-1.9517,-2.1038,-2.0626,-2.0439,-2.0415,-1.8545,-1.7223,-1.6461,-1.5615,0.0,0.0,0.0,0.0,0.0,0.0,0.0,0.0,0.0,0.0,0.0,0.0,0.0,0.0,0.0,0.0,0.0,0.0,0.0,0.0,0.0,0.0,0.0,0.0,0.0,0.0,0.0,0.0,0.0,0.0,0.0,0.0,0.0,0.0,0.0,0.0,0.0,0.0,0.0,-1.3604,-1.4692,-1.3908,-1.5935,-1.6153,0.0,0.0,0.0,0.0,0.0,0.0,0.0,0.0,0.0,0.6929,0.8123,0.9314,1.057,0.8357,0.6623,0.5293,0.3007,0.1215,0.0,0.0,0.0,0.0,0.0,-0.0538,-0.1426,-0.1402,-0.2,-0.3039,0.0,0.0,0.0,0.0,-0.474,-0.4454,0.0,0.0,0.0,0.0,0.0,0.0,0.0,0.0,0.0,0.0,0.0,0.0,-1.677,-1.5078,-1.3392,-1.1538,-1.1335,-1.1226,-1.09,-1.088,-1.0658,-1.0062,-0.8751,-0.7598,-0.666,-0.8664,-1.2359,-1.7758,-2.0877,-2.2496,-2.2712,-2.1246,-2.0284,-1.9577,-1.5408,-1.3626,-1.3619,-1.3111,-1.1988,-1.0544,0.0,0.0,0.0,0.0,0.0,0.0,0.0,0.0,0.0,0.0,0.0,0.0,0.0,0.0,0.0,0.0,0.0,0.0,0.0,0.0,0.0,0.0,0.0,0.0,0.0,0.0,0.0,0.0,0.0,0.0,0.0,0.0,0.0,0.0,0.0,0.0,0.0,-1.1143,-1.1354,-1.009,-1.2175,-1.252,0.0,0.0,0.0,0.0,0.0,0.0,0.1421,0.1764,0.4542,1.0759,1.1132,1.1713,1.2737,1.0506,0.8313,0.5995,0.3666,0.1673,0.0,0.0,0.0,0.0,0.0,0.0,0.0,0.0,0.0,-0.0177,-0.1843,-0.242,-0.2296,-0.2459,-0.2435,-0.2082,0.0,0.0,0.0,0.0,0.0,0.0,0.0,0.0,0.0,0.0,0.0,-1.8048,-1.6354,-1.4729,-1.3146,-1.1379,-1.1241,-1.1111,-1.0894,-1.088,-1.0069,-0.8209,-0.804,-0.6431,-0.3023,-0.9324,-1.6477,-2.4422,-2.4777,-2.5611,-2.681,-2.278,-1.973,-1.75,-1.3408,-1.1662,-1.151,-0.9529,-0.8743,-0.8816,-0.8354,0.0,0.0,0.0,0.0,0.0,0.0,0.0,0.0,0.0,0.0,0.0,0.0,0.0,0.0,0.0,0.0,0.0,0.0,0.0,0.0,0.0,0.0,0.0,0.0,0.0,0.0,0.0,0.0,0.0,0.0,0.0,0.0,0.0,0.0,0.0,0.0,0.0,0.0,-0.9754,-0.8227,0.0,0.0,0.0,0.0,-0.3778,-0.3475,-0.0593,0.6032,0.6489,0.8676,1.3283,1.3579,1.2613,1.0451,0.8211,0.5914,0.352,0.1247,0.009,0.0,0.0,0.0,0.0,0.0,0.0,0.0,0.0,0.0,0.0,-0.009,-0.0178,-0.0176,-0.0174,-0.0175,-0.0176,0.0,0.0,0.0,-2.1325,-2.139,-2.139,-2.139,-2.1229,-2.0716,-1.9546,-1.8021,-1.6425,-1.4951,-1.3266,-1.257,-1.3413,-1.3326,-1.3743,-1.4791,-1.3576,-1.2022,-1.0053,-0.7665,-0.6566,-0.7048,-1.3532,-1.899,-2.3201,-2.5819,-2.589,-2.3687,-2.0489,-1.7175,-1.3749,-0.9719,-0.7252,-0.5971,-0.6574,-0.7602,-0.8815,-0.8552,-0.9536,0.0,0.0,0.0,0.0,0.0,0.0,0.0,0.0,0.0,0.0,0.0,0.0,0.0,0.0,0.0,0.0,0.0,0.0,0.0,0.0,0.0,0.0,0.0,0.0,0.0,0.0,0.0,0.0,0.0,0.0,0.0,0.0,0.0,0.0,0.0,0.0,0.0,-0.788,-0.7161,0.0,-0.4695,-0.4659,-0.3663,-0.1361,-0.1202,0.0517,0.4368,0.6034,0.8285,1.135,1.1641,1.127,1.0396,0.6649,0.4387,0.3507,0.1093,0.0,0.0,0.0,0.0,0.0,0.0,0.0,0.0,0.0,0.0,0.0,0.0,0.0,0.0,0.0,0.0,0.0,0.0,-2.0554,0.0,-2.1614,-2.1695,-2.1762,-2.1762,-2.0979,-2.0015,-1.8942,-1.6778,-1.5087,-1.4235,-1.3278,-1.3267,-1.4723,-1.5335,-1.6074,-1.7115,-1.5243,-1.3251,-1.1212,-0.758,-0.7535,-1.1541,-1.6637,-2.0981,-2.4572,-2.7126,-2.658,-2.2897,-1.9746,-1.6037,-1.188,-0.7907,-0.4911,-0.2977,-0.3663,-0.5094,-0.6933,-0.6742,-0.7747,-0.9301,0.0,0.0,0.0,0.0,0.0,0.0,0.0,0.0,0.0,0.0,0.0,0.0,0.0,0.0,0.0,0.0,0.0,0.0,0.0,0.0,0.0,0.0,0.0,0.0,0.0,0.0,0.0,0.0,0.0,0.0,0.0,0.0,0.0,0.0,-0.6673,-0.5431,-0.5701,-0.4959,-0.3903,-0.2377,-0.2223,-0.1633,-0.0086,0.0,0.0959,0.3294,0.4901,0.6838,0.9043,0.9259,0.8972,0.8175,0.5141,0.3189,0.2378,0.0741,0.0,0.0,0.0,0.0,0.0,0.0,0.0,0.0,0.0,0.0,0.0,0.0,0.0,0.0,0.0,0.0,0.0,-2.1096,-2.1336,-2.1601,-2.1614,-2.179,-2.1898,-2.1898,-2.0182,-1.8998,-1.9174,-1.6156,-1.4094,-1.4324,-1.4807,-1.5138,-1.522,-1.7038,-1.8011,-1.77,-1.5724,-1.3557,-1.1219,-0.7941,-0.923,-1.5672,-1.8369,-2.2697,-2.8803,-2.8894,-2.7607,-2.5027,-2.0846,-1.6492,-1.1874,-0.8027,-0.5054,-0.2837,-0.0884,-0.119,-0.297,-0.2823,-0.3898,-0.5606,0.0,0.0,0.0,0.0,0.0,0.0,0.0,0.0,0.0,0.0,0.0,0.0,0.0,0.0,0.0,0.0,0.0,0.0,0.0,0.0,0.0,0.0,0.0,0.0,0.0,0.0,0.0,0.0,0.0,0.0,0.0,0.0,0.0,-0.6206,-0.4376,-0.3087,-0.3204,-0.1303,0.0,0.0,0.0,0.0,0.0,0.0,0.0968,0.3215,0.3489,0.4594,0.6696,0.6918,0.5906,0.3639,0.3549,0.2289,0.0,0.0,0.0,0.0,0.0,0.0,0.0,0.0,0.0,0.0,0.0,0.0,0.0,0.0,0.0,0.0,0.0,0.0,0.0,-2.0802,-2.1029,-2.1296,-2.1574,-2.0617,-1.9805,-1.9805,-1.8055,-1.6425,-1.5597,-1.464,-1.3697,-1.2991,-1.4234,-1.5706,-1.7176,-1.902,-2.0532,-2.1346,-1.9461,-1.6177,-1.1345,-1.0794,-1.1551,-1.3482,-1.8891,-2.2573,-2.4465,-2.6012,-2.498,-2.1442,-1.8508,-1.4016,-0.8331,-0.7144,-0.4481,-0.0813,-0.0243,-0.0322,-0.0952,-0.232,-0.4022,-0.5761,0.0,0.0,0.0,0.0,0.0,0.0,0.0,0.0,0.0,0.0,0.0,0.0,0.0,0.0,0.0,0.0,0.0,0.0,0.0,0.0,0.0,0.0,0.0,0.0,0.0,0.0,0.0,0.0,0.0,0.0,0.0,-0.5543,-0.4048,-0.4024,-0.2166,-0.0876,-0.0879,-0.0349,0.0,0.0,0.0,0.0,0.0,0.0,0.0272,0.0909,0.2656,0.3852,0.4466,0.458,0.4228,0.3587,0.1855,0.0653,0.0,0.0,0.0,0.0,0.0,0.0,0.0,0.0,0.0,0.0,0.0,0.0,0.0,0.0,0.0,0.0,0.0,0.0,0.0,-2.0508,-2.024,-2.0055,-2.0284,-1.9042,-1.805,-1.805,-1.641,-1.4895,-1.4393,-1.4319,-1.4211,-1.3665,-1.6112,-1.8599,-2.0547,-2.2321,-2.3607,-2.4216,-2.1437,-1.7988,-1.3858,-1.371,-1.3815,-1.4203,-1.8172,-2.0733,-2.1845,-2.32,-2.2277,-1.9089,-1.763,-1.3475,-0.7118,-0.6911,-0.4288,0.0,0.0,0.0,-0.0081,-0.1264,-0.2334,-0.3394,-0.3277,-0.5037,-0.7421,-0.7456,-0.9359,-1.1816,-1.1898,0.0,0.0,0.0,0.0,0.0,0.0,0.0,0.0,0.0,0.0,0.0,0.0,0.0,0.0,0.0,0.0,0.0,0.0,0.0,0.0,0.0,0.0,0.0,0.0,-0.4764,-0.2892,-0.1947,-0.0799,0.0,0.0,0.0,0.0,0.0,0.0,0.0,0.0,0.0,0.0,0.0,0.13,0.2135,0.2126,0.2135,0.2047,0.2047,0.0747,0.0,0.0,0.0,0.0,0.0,0.0,0.0,0.0,0.0,0.0,0.0,0.0,0.0,0.0,0.0,0.0,0.0,0.0,0.0,0.0,-2.0281,-1.9225,-1.8395,-1.8453,-1.7325,-1.6402,-1.6432,-1.4824,-1.3905,-1.4643,-1.4975,-1.5474,-1.6098,-1.9747,-2.2843,-2.4582,-2.6186,-2.6994,-2.6581,-2.2739,-1.9623,-1.7744,-1.6516,-1.5844,-1.5635,-1.6593,-1.7987,-1.9904,-2.0414,-1.9673,-1.7851,-1.7608,-1.3918,-0.7452,-0.7275,-0.4453,0.0,0.0,0.0,0.0,0.0,0.0,0.0,-0.0237,-0.2726,-0.6079,-0.6318,-0.8875,-1.2244,-1.2278,0.0,0.0,0.0,0.0,0.0,0.0,0.0,0.0,0.0,0.0,0.0,0.0,0.0,0.0,0.0,0.0,0.0,0.0,0.0,0.0,0.0,0.0,0.0,0.0,-0.465,-0.2316,-0.0273,0.0,0.0,0.0,0.0,0.0,0.0,0.0,0.0,0.0,0.0,0.0,0.0,0.0,0.0,0.0,0.0,0.0,0.0,0.0,0.0,0.0,0.0,0.0,0.0,0.0,0.0,0.0,0.0,0.0,0.0,0.0,0.0,0.0,0.0,0.0,0.0,0.0,0.0,0.0,-2.018,-1.8824,-1.7702,-1.8125,-1.5785,-1.3834,-1.3928,-1.2449,-1.2195,-1.4529,-1.6074,-1.7868,-2.0188,-2.3559,-2.5927,-2.6676,-2.8208,-2.9045,-2.8813,-2.6284,-2.3361,-1.9998,-1.8905,-1.5993,-1.1003,-1.4998,-1.6502,-1.5286,-1.7517,-1.8428,-1.8043,-1.6457,-1.2807,-0.7596,-0.7548,-0.4729,0.0,0.0,0.0,0.0,0.0,0.0,-0.016,-0.189,-0.4164,-0.6634,-0.8272,-1.0617,-1.2827,-1.3064,-1.3098,-1.3078,-1.3302,-1.3241,0.0,0.0,0.0,0.0,0.0,0.0,0.0,0.0,0.0,0.0,0.0,0.0,0.0,0.0,0.0,0.0,0.0,0.0,0.0,-0.7102,-0.3411,-0.0544,-0.0091,0.0,0.0,0.0,0.0,0.0,0.0,0.0,0.0,0.0,0.0,0.0,0.0,0.0,0.0,0.0,0.0,0.0,0.0,0.0,0.0,0.0,0.0,0.0,0.0,0.0,0.0,0.0,0.0,0.0,0.0,0.0,0.0,0.0,0.0,0.0,0.0,0.0,0.0,0.0,-2.1605,-1.8691,-1.6263,-1.6512,-1.3952,-1.2157,-1.2994,-1.2423,-1.3053,-1.6226,-1.8561,-2.0752,-2.2898,-2.5571,-2.7631,-2.8815,-2.9834,-3.0321,-3.0388,-2.7815,-2.5044,-2.2281,-2.0211,-1.6788,-1.1801,-1.4356,-1.5359,-1.4487,-1.6,-1.677,-1.6759,-1.5727,-1.3275,-0.9436,-0.819,-0.5411,-0.1763,-0.0524,0.0,-0.0085,-0.1173,-0.1645,-0.1689,-0.2797,-0.5271,-0.8264,-0.9366,-1.1212,-1.3105,-1.3322,-1.3403,-1.3244,-1.2219,-1.1819,-1.176,0.0,0.0,0.0,0.0,0.0,0.0,0.0,0.0,0.0,0.0,0.0,0.0,0.0,0.0,-1.4183,-1.4183,0.0,-0.8502,-0.7287,-0.4077,-0.1371,-0.0185,0.0,0.0,0.0,0.0,0.0,0.0,0.0,0.0,0.0,0.0,0.0,0.0,0.0,0.0,0.0,0.0,0.0,0.0,0.0,0.0,0.0,0.0,0.0,0.0,0.0,0.0,0.0,0.0,0.0,0.0,0.0,0.0,0.0,0.0,0.0,0.0,0.0,0.0,0.0,-2.3066,-1.8988,-1.5391,-1.512,-1.262,-1.1162,-1.2734,-1.3353,-1.5052,-1.8953,-2.17,-2.3998,-2.6059,-2.7408,-2.8736,-3.0042,-3.0408,-3.0722,-3.1119,-2.7921,-2.5271,-2.3465,-2.0304,-1.685,-1.318,-1.3973,-1.4423,-1.4224,-1.4986,-1.5323,-1.5323,-1.535,-1.3889,-1.1305,-0.9249,-0.6799,-0.415,-0.2202,-0.1305,-0.1452,-0.3281,-0.4133,-0.439,-0.4634,-0.6813,-0.9879,-1.0405,-1.1785,-1.3247,-1.3424,-1.3566,-1.3225,-1.093,-1.0333,-1.041,-1.0049,-0.9958,0.0,0.0,0.0,0.0,0.0,0.0,0.0,0.0,-1.4299,-1.4299,-1.4299,-1.4299,-1.4306,-1.4333,-1.2361,-0.9974,-0.754,-0.5192,-0.2753,-0.0374,0.0,0.0,0.0,0.0,0.0,0.0,0.0,0.0,0.0,0.0,0.0,0.0,0.0,0.0,0.0,0.0,0.0,0.0,0.0,0.0,0.0,0.0,0.0,0.0,0.0,0.0,0.0,0.0,0.0,0.0,0.0,0.0,0.0,0.0,0.0,0.0,0.0,0.0,0.0,-2.3066,-1.9994,-1.6943,-1.5645,-1.2733,-1.1135,-1.3012,-1.4558,-1.7398,-2.2702,-2.5217,-2.795,-3.1474,-3.0837,-2.969,-2.8721,-2.8926,-2.9328,-3.0031,-2.6323,-2.3396,-2.1869,-1.8465,-1.4668,-1.0567,-1.3029,-1.3318,-1.1368,-1.3843,-1.5018,-1.5025,-1.5147,-1.379,-1.1212,-1.0911,-0.9187,-0.6504,-0.6205,-0.6028,-0.5954,-0.6244,-0.7413,-0.9034,-0.9197,-0.9465,-1.0045,-1.2131,-1.309,-1.3417,-1.3695,-1.3804,-1.3403,-1.1334,-1.061,-1.0457,-1.0415,-1.0338,-1.0799,-1.3147,-1.3878,-1.3953,-1.3865,-1.4061,-1.4278,0.0,-1.4299,-1.4299,-1.4299,-1.4299,-1.434,-1.4462,-1.2489,-1.0078,-0.771,-0.534,-0.2862,-0.0371,0.0,0.0,0.0,0.0,0.0,0.0,0.0,0.0,0.0,0.0,0.0,0.0,0.0,0.0,0.0,0.0,0.0,0.0,0.0,0.0,0.0,0.0,0.0,0.0,0.0,0.0,0.0,0.0,0.0,0.0,0.0,0.0,0.0,0.0,0.0,0.0,0.0,0.0,0.0,-2.469,-2.0883,-1.7603,-1.7569,-1.5518,-1.4137,-1.4688,-1.7324,-2.0591,-2.4642,-2.7053,-2.8834,-3.0124,-2.8924,-2.7587,-2.6362,-2.7713,-2.853,-2.8264,-2.5834,-2.3656,-2.1939,-1.8494,-1.5356,-1.2606,-1.367,-1.3827,-1.2963,-1.41,-1.4584,-1.4584,-1.4638,-1.4036,-1.2812,-1.1403,-1.0009,-0.8597,-0.7364,-0.6686,-0.6744,-0.8152,-0.916,-0.9963,-1.1441,-1.1885,-1.1956,-1.3019,-1.3478,0.0,-1.377,-1.3783,-1.3298,-1.1116,-1.041,-1.0369,-1.0369,-1.0338,-1.0821,-1.3102,-1.3892,-1.4034,-1.3878,-1.4075,-1.4299,-1.4299,-1.4299,-1.4326,-1.4407,-1.4421,-1.4468,-1.4618,-1.3816,-1.1839,-0.8069,-0.6568,-0.4531,-0.056,-0.1311,-0.2256,-0.2364,-0.3624,-0.3359,-0.0289,-0.135,-0.2218,-0.221,-0.0868,-0.067,-0.2147,-0.0761,0.0,0.0,0.0,0.0,0.0,0.0,0.0,0.0,0.0,0.0,0.0,0.0,0.0,0.0,0.0,0.0,0.0,0.0,0.0,0.0,0.0,0.0,0.0,0.0,0.0,0.0,-2.6942,-2.2936,-1.95,-1.9776,-1.8843,-1.7818,-1.6988,-2.0025,-2.3374,-2.5964,-2.8106,-2.885,-2.7572,-2.6619,-2.5636,-2.441,-2.6178,-2.7076,-2.6372,-2.4468,-2.2751,-2.1435,-1.8411,-1.6281,-1.5053,-1.5017,-1.5067,-1.5132,-1.446,-1.4156,-1.4116,-1.4762,-1.4981,-1.4858,-1.37,-1.3028,-1.2642,-1.1113,-1.0351,-1.0346,-1.2111,-1.2382,-1.1891,-1.3583,-1.3788,-1.3207,-1.3471,-1.3539,-1.3526,-1.3668,-1.362,-1.3087,-1.0919,-1.0256,-1.0272,-1.0364,-1.0849,-1.1721,-1.3278,-1.3878,-1.4048,-1.3933,-1.4136,-1.436,-1.436,-1.436,-1.4401,-1.4543,-1.4543,-1.457,-1.4767,-1.4801,-1.3174,-0.8248,-0.7449,-0.5932,-0.1588,-0.2627,-0.4144,-0.4919,-0.7285,-0.7156,-0.2617,-0.3778,-0.4933,-0.492,-0.3186,-0.2585,-0.375,-0.2007,-0.0765,0.0,0.0,0.0,0.0,0.0,0.0,0.0,0.0,0.0,0.0,0.0,0.0,0.0,0.0,0.0,0.0,0.0,0.0,0.0,0.0,0.0,0.0,0.0,0.0,0.0,-2.9534,-2.654,-2.3574,-2.2155,-2.2071,-2.1536,-1.9566,-2.2195,-2.505,-2.6842,-2.8455,-2.8329,-2.5343,-2.5211,-2.481,-2.3469,-2.3977,-2.4448,-2.467,-2.1372,-1.9409,-1.9543,-1.7684,-1.6675,-1.6793,-1.6977,-1.6977,-1.6801,-1.4791,-1.3783,-1.3654,-1.5979,-1.6976,-1.7061,-1.9147,-1.9933,-1.9808,-1.9726,-1.9608,-1.9491,-1.9582,-1.8272,-1.6393,-1.6483,-1.5159,-1.3193,-1.3349,-1.3315,-1.3207,-1.3363,-1.3315,-1.288,-1.0683,-1.0049,-1.0116,-1.0529,-1.2384,-1.4123,-1.3826,-1.3953,-1.4068,-1.4068,-1.4285,-1.4502,-1.4502,-1.4502,-1.455,-1.4699,-1.4618,-1.4604,-1.4909,-1.4964,-1.3412,-0.8428,-0.7621,-0.6619,-0.3884,-0.3757,-0.4826,-0.7213,-0.998,-1.0639,-0.781,-0.7615,-0.7686,-0.7715,-0.7516,-0.6305,-0.3938,-0.3723,-0.2596,-0.0095,0.0,0.0,0.0,0.0,0.0,0.0,0.0,0.0,0.0,0.0,0.0,0.0,0.0,0.0,0.0,0.0,0.0,0.0,0.0,0.0,0.0,0.0,0.0,0.0,-2.9705,-2.7651,-2.5534,-2.4268,-2.4266,-2.3432,-2.0455,-2.293,-2.5372,-2.5876,-2.6409,0.0,0.0,0.0,0.0,0.0,-2.4088,-2.381,-2.2829,-2.0535,-1.9314,-1.9614,-1.7926,-1.7631,-1.9117,-1.8919,-1.8777,-1.8783,-1.7765,-1.7297,-1.753,-1.8326,-1.8764,-1.8989,-1.9719,-1.9916,-1.9876,-1.9947,-1.9887,-1.9604,-1.8158,-1.7188,-1.6401,-1.5028,-1.4016,-1.3329,0.0,-1.3241,-1.3037,-1.3091,-1.3139,-1.3098,-1.232,-1.221,-1.2427,-1.2829,-1.3491,-1.4129,-1.4021,-1.4034,-1.4095,-1.4197,-1.4367,-1.4509,-1.4509,-1.4509,-1.4523,-1.4577,-1.4713,-1.4875,-1.5072,-1.5194,-1.4128,-1.0816,-1.0206,-0.8614,-0.4328,-0.5268,-0.67,-0.7623,-1.0098,-1.2021,-1.2881,-1.1323,-1.0307,-1.0208,-0.8569,-0.7259,-0.6369,-0.4704,-0.2614,-0.0095,0.0,0.0,0.0,0.0,0.0,0.0,0.0,0.0,0.0,0.0,0.0,0.0,0.0,0.0,0.0,0.0,0.0,0.0,0.0,0.0,0.0,0.0,0.0,0.0,0.0,0.0,0.0,-2.6981,-2.5814,0.0,0.0,0.0,0.0,0.0,0.0,0.0,0.0,0.0,0.0,0.0,0.0,-2.1936,-2.0888,-1.9787,-1.9274,-1.9494,-1.9124,-1.9598,-2.0987,-2.0617,-2.0581,-2.075,-1.9559,-1.9183,-1.9553,-2.0279,-2.0761,-2.0911,-2.1723,-2.2077,-2.21,-2.219,-2.2258,-2.2178,-1.9755,-1.8488,-1.7817,-1.5479,-1.3981,0.0,-1.3247,-1.3085,-1.2888,-1.2942,-1.2983,-1.3044,-1.3207,-1.3539,-1.3885,-1.3966,-1.4068,-1.415,-1.415,-1.415,-1.4204,-1.4407,-1.457,-1.4658,-1.4604,-1.459,-1.459,-1.459,-1.4794,-1.5018,-1.5153,-1.535,-1.4636,-1.2149,-1.1745,-1.0117,-0.5826,-0.6782,-0.7837,-0.7763,-1.002,-1.2299,-1.3994,-1.3409,-1.2887,-1.2803,-1.1222,-0.9539,-0.7659,-0.6067,-0.359,-0.0096,0.0,0.0,0.0,0.0,0.0,0.0,0.0,0.0,0.0,0.0,0.0,0.0,0.0,0.0,0.0,0.0,0.0,0.0,0.0,0.0,0.0,0.0,0.0,0.0,0.0,0.0,0.0,0.0,0.0,0.0,0.0,0.0,0.0,0.0,0.0,0.0,0.0,0.0,0.0,0.0,0.0,0.0,-1.8973,-1.9166,-1.9287,-1.9298,-2.1279,-2.2388,-2.2454,-2.2142,-2.2247,-2.2819,-2.0498,-1.9488,-1.9892,-2.1975,-2.2867,-2.3036,-2.5114,-2.6146,-2.6386,-2.6386,-2.6627,-2.6835,-2.4053,-2.203,-2.0316,-1.7507,-1.4985,-1.2983,-1.2969,-1.2868,-1.2773,-1.2922,-1.2888,-1.2861,-1.3295,-1.3831,-1.4231,-1.3946,-1.4075,-1.4312,-1.4312,-1.4319,-1.4394,-1.4679,-1.4855,-1.4923,-1.478,-1.4746,-1.474,-1.474,-1.4875,-1.5031,-1.5167,-1.5438,-1.4899,-1.2656,-1.2268,-1.1202,-0.821,-0.8022,-0.8029,-0.7433,-0.9841,-1.1559,-1.1548,-1.3853,-1.5309,-1.5214,-1.5087,-1.2862,-0.789,-0.7516,-0.5135,-0.0196,0.0,0.0,0.0,0.0,0.0,0.0,0.0,0.0,0.0,0.0,0.0,0.0,0.0,0.0,0.0,0.0,0.0,0.0,0.0,0.0,0.0,0.0,0.0,0.0,0.0,0.0,0.0,0.0,0.0,0.0,0.0,0.0,0.0,0.0,0.0,0.0,0.0,0.0,0.0,0.0,0.0,0.0,-1.8799,-2.0016,-2.095,-2.1153,-2.207,-2.3278,-2.4649,-2.4584,-2.461,-2.4765,-2.3922,-2.3905,-2.4648,-2.5227,-2.5581,-2.5775,-2.6361,-2.652,-2.6386,-2.6386,-2.5579,-2.3961,-2.1541,-1.9412,-1.7425,-1.4995,-1.3739,-1.3261,-1.3037,-1.3003,-1.3064,-1.3105,-1.3315,-1.36,-1.3831,-1.4007,-1.4136,-1.417,-1.4312,-1.4455,-1.4455,-1.4543,-1.4672,-1.4862,-1.4855,-1.4821,-1.4896,-1.4821,-1.474,-1.474,-1.5038,-1.5309,-1.5343,-1.5506,-1.5358,-1.4802,-1.4533,-1.2864,-0.8281,-0.7691,-0.7007,-0.4996,-0.7087,-0.9361,-1.1242,-1.3712,-1.4424,-1.2595,-1.2382,-1.1001,-0.7816,-0.5802,-0.331,-0.0097,0.0,0.0,0.0,0.0,0.0,0.0,0.0,0.0,0.0,0.0,0.0,0.0,0.0,0.0,0.0,0.0,0.0,0.0,0.0,0.0,0.0,0.0,0.0,0.0,0.0,0.0,0.0,0.0,0.0,0.0,0.0,0.0,0.0,0.0,0.0,0.0,0.0,0.0,0.0,0.0,0.0,0.0,0.0,-2.0114,-2.1819,-2.1749,-2.3178,-2.4354,-2.5331,-2.5197,-2.5384,-2.5892,-2.5224,-2.5331,-2.6199,-2.6066,-2.6092,-2.6253,-2.6386,-2.6426,-2.6307,-2.533,-2.4406,0.0,0.0,-1.7792,-1.6693,-1.4249,-1.3288,-1.3288,-1.3193,-1.3288,-1.3464,-1.3464,-1.3634,-1.3858,-1.3946,-1.4061,-1.4204,-1.4346,-1.4448,-1.4543,-1.4679,-1.4774,-1.4875,-1.5025,-1.4997,-1.4923,-1.4882,-1.4855,-1.4821,-1.4753,-1.5099,-1.5432,-1.5499,-1.5635,-1.5778,-1.5913,-1.5737,-1.4236,-1.0193,-0.8694,-0.7297,-0.582,-0.6849,-0.873,-1.1272,-1.3804,-1.4305,-1.1572,-1.1382,-0.9768,-0.6155,-0.4536,-0.261,-0.0097,0.0,0.0,0.0,0.0,0.0,0.0,0.0,0.0,0.0,0.0,0.0,0.0,0.0,0.0,0.0,0.0,0.0,0.0,0.0,0.0,0.0,0.0,0.0,0.0,0.0,0.0,0.0,0.0,0.0,0.0,0.0,0.0,0.0,0.0,-1.2637,-1.2583,-1.2718,-1.2732,0.0,0.0,0.0,0.0,0.0,0.0,-2.2613,-2.2121,-2.4328,-2.5451,-2.5197,-2.4983,-2.5371,-2.6386,-2.5371,-2.5277,-2.6066,-2.5812,-2.5692,-2.5705,-2.5959,-2.6055,-2.5871,-2.392,-2.3121,-2.2643,-1.8375,-1.6792,-1.6707,0.0,-1.3342,-1.3275,-1.341,-1.3614,-1.381,-1.381,-1.3851,-1.3899,-1.3878,-1.4068,-1.4326,-1.4468,-1.4523,-1.4604,-1.4896,-1.4984,-1.5031,-1.5153,-1.5167,-1.5092,-1.4855,-1.4903,-1.497,-1.4855,-1.5174,-1.5506,-1.5642,-1.5784,-1.5961,-1.6212,-1.6137,-1.5135,-1.2609,-1.0197,-0.8548,-0.8022,-0.8192,-0.9039,-1.0902,-1.3789,-1.4149,-1.0683,-1.0739,-0.8798,-0.4091,-0.346,-0.2299,-0.0097,0.0,0.0,0.0,0.0,0.0,0.0,0.0,0.0,0.0,0.0,0.0,0.0,0.0,0.0,0.0,0.0,0.0,0.0,0.0,0.0,0.0,0.0,0.0,0.0,0.0,0.0,0.0,0.0,0.0,0.0,0.0,0.0,0.0,0.0,-1.2861,-1.2698,0.0,0.0,0.0,0.0,0.0,0.0,0.0,0.0,0.0,-2.4472,-2.5405,-2.5852,-2.5812,-2.5985,-2.6186,-2.6386,-2.6186,-2.6279,-2.6667,-2.6613,-2.66,-2.66,-2.6653,-2.5625,-2.3944,-2.3527,-2.136,-1.8052,-1.7159,-1.585,-1.4231,-1.3631,0.0,0.0,-1.3756,-1.3722,-1.3668,-1.3668,-1.3912,-1.4197,-1.4068,-1.4156,-1.4326,-1.4468,-1.4604,-1.474,-1.4923,-1.5059,-1.5153,-1.5174,-1.5092,-1.5025,-1.5092,-1.5126,-1.5174,-1.5276,-1.5554,-1.5784,-1.5811,-1.594,-1.6015,-1.5947,-1.5906,-1.4956,-1.2282,-1.1401,-1.0298,-0.8199,-0.9696,-1.0253,-0.8663,-1.2689,-1.2571,-0.5643,-0.709,-0.6942,-0.3917,-0.1826,-0.0484,0.0,0.0,0.0,0.0,0.0,0.0,0.0,0.0,0.0,0.0,0.0,0.0,0.0,0.0,0.0,0.0,0.0,0.0,0.0,0.0,0.0,0.0,0.0,0.0,0.0,0.0,0.0,0.0,0.0,0.0,0.0,0.0,-1.3152,-1.301,-1.3152,-1.3051,-1.2963,-1.2963,-1.2963,-1.3017,0.0,0.0,0.0,0.0,0.0,0.0,-2.5558,-2.6092,-2.6333,-2.6186,-2.6466,-2.6694,-2.6841,0.0,-2.6319,-2.66,-2.644,-2.6373,-2.6373,-2.6533,-2.5359,-2.3342,-2.22,-1.9878,-1.6919,-1.5747,-1.4655,-1.3729,-1.3654,0.0,0.0,-1.4048,-1.4034,-1.3987,-1.4061,-1.4183,-1.4258,-1.4027,-1.4163,-1.4441,-1.4584,-1.474,-1.4896,-1.5038,-1.5133,-1.5181,-1.5181,-1.5133,-1.5079,-1.5072,-1.5126,-1.5228,-1.5377,-1.5527,-1.5669,-1.5825,-1.5852,-1.5852,-1.5852,-1.5852,-1.546,-1.4176,-1.2732,-1.1927,-1.218,-1.204,-1.1881,-1.1819,-1.2995,-1.1482,-0.6169,-0.5759,-0.4598,-0.1918,-0.0675,0.0,0.0,0.0,0.0,0.0,0.0,0.0,0.0,0.0,0.0,0.0,0.0,0.0,0.0,0.0,0.0,0.0,0.0,0.0,0.0,0.0,0.0,0.0,0.0,0.0,0.0,0.0,0.0,0.0,0.0,0.0,0.0,0.0,-1.3173,-1.3057,-1.32,-1.322,-1.322,-1.322,-1.3193,-1.32,0.0,0.0,0.0,0.0,0.0,0.0,0.0,0.0,0.0,-2.6667,0.0,0.0,-2.7362,-2.66,0.0,0.0,0.0,0.0,0.0,-2.6373,-2.5118,-2.2766,-2.1024,-1.8801,0.0,0.0,-1.396,-1.3994,0.0,0.0,0.0,0.0,-1.4394,-1.4401,-1.4448,-1.4434,-1.4333,-1.3994,-1.4156,-1.4509,-1.4726,-1.4855,-1.4957,-1.5133,-1.5181,-1.5174,-1.5147,-1.514,-1.5113,-1.5031,-1.5106,-1.5235,-1.5418,-1.5459,-1.554,-1.5805,-1.5791,-1.5771,-1.5886,-1.5954,-1.6001,-1.6029,-1.4217,-1.3714,-1.583,-1.4168,-1.3279,-1.4621,-1.3567,-1.1318,-0.7823,-0.5366,-0.2792,-0.0096,0.0,0.0,0.0,0.0,0.0,0.0,0.0,0.0,0.0,0.0,0.0,0.0,0.0,0.0,0.0,0.0,0.0,0.0,0.0,0.0,0.0,0.0,0.0,0.0,0.0,0.0,0.0,0.0,0.0,0.0,0.0,0.0,0.0,0.0,-1.3261,-1.3207,-1.3363,-1.3376,-1.3376,-1.3376,-1.3254,-1.3288,0.0,0.0,0.0,0.0,0.0,0.0,0.0,0.0,0.0,0.0,0.0,0.0,-2.7655,-2.7321,0.0,0.0,0.0,0.0,0.0,0.0,-2.4596,-2.0996,-2.0837,0.0,0.0,0.0,0.0,0.0,0.0,0.0,0.0,0.0,-1.4699,-1.4658,-1.4407,-1.4489,-1.4624,-1.419,-1.4177,-1.4401,-1.4828,-1.4862,-1.4821,-1.5106,-1.5181,-1.5153,-1.5025,-1.4991,-1.5018,-1.514,-1.5174,-1.5262,-1.556,-1.5615,-1.5669,-1.5825,-1.5954,-1.6042,-1.6056,-1.6286,-1.632,-1.5927,-1.5676,-1.5676,-1.5872,-1.5442,-1.4301,-1.2351,-1.394,-1.3017,-0.7985,-0.5256,-0.2669,-0.0096,0.0,0.0,0.0,0.0,0.0,0.0,0.0,0.0,0.0,0.0,0.0,0.0,0.0,0.0,0.0,0.0,0.0,0.0,0.0,0.0,0.0,0.0,0.0,0.0,0.0,0.0,0.0,0.0,0.0,0.0,0.0,0.0,0.0,-1.3376,-1.3268,-1.3227,-1.3383,-1.3403,-1.3403,-1.3403,-1.3349,-1.3356,-1.3485,0.0,0.0,0.0,0.0,0.0,0.0,0.0,0.0,0.0,0.0,-2.7963,-2.7963,-2.7669,0.0,0.0,0.0,0.0,0.0,0.0,-2.1348,-1.8678,-1.8678,0.0,0.0,0.0,0.0,0.0,0.0,0.0,0.0,0.0,0.0,-1.5004,-1.4977,-1.4984,-1.4977,-1.4794,-1.4658,-1.4584,-1.4672,-1.478,-1.4882,-1.4909,-1.4984,-1.5038,-1.4984,-1.5031,-1.5113,-1.5167,-1.5181,-1.5242,-1.5459,-1.5432,-1.5438,-1.5683,-1.5696,-1.571,-1.5798,-1.5913,-1.5927,-1.575,-1.5798,-1.5818,-1.5737,-1.5696,-1.5261,-1.4127,-1.3441,-1.1618,-0.7834,-0.6663,-0.4941,-0.238,-0.0867,0.0,0.0,0.0,0.0,0.0,0.0,0.0,0.0,0.0,0.0,0.0,0.0,0.0,0.0,0.0,0.0,0.0,0.0,0.0,0.0,0.0,0.0,0.0,0.0,0.0,0.0,0.0,0.0,0.0,0.0,0.0,-1.4193,-1.4354,-1.4802,-1.4919,-1.4436,-1.4375,-1.4149,-1.3548,-1.3464,-1.3464,-1.3464,-1.5703,0.0,0.0,0.0,0.0,0.0,0.0,0.0,0.0,0.0,-2.8274,-2.8283,-2.7976,-2.7482,0.0,0.0,-2.3534,-2.2855,0.0,0.0,0.0,0.0,0.0,0.0,0.0,0.0,0.0,0.0,0.0,0.0,0.0,0.0,0.0,0.0,0.0,-1.5167,-1.5079,-1.497,-1.4848,-1.474,-1.4835,-1.4957,-1.4889,-1.495,-1.5025,-1.4984,-1.5045,-1.5133,-1.5174,-1.5153,-1.5174,-1.5371,-1.5289,-1.5276,-1.5581,-1.5513,-1.5472,-1.5669,-1.5703,-1.5669,-1.5588,-1.5696,-1.575,-1.5649,-1.5689,-1.5655,-1.5493,-1.3751,-1.1847,-0.9964,-0.9109,-0.7974,-0.6171,-0.29,-0.0783,0.0,0.0,0.0,0.0,0.0,0.0,0.0,0.0,0.0,0.0,0.0,0.0,0.0,0.0,0.0,0.0,0.0,0.0,0.0,0.0,0.0,0.0,0.0,0.0,0.0,0.0,0.0,0.0,0.0,0.0,0.0,-1.654,-1.8347,-1.8923,-1.6867,-1.6565,-1.5825,-1.3859,-1.3627,-1.3627,-1.3627,-1.5774,0.0,0.0,0.0,0.0,0.0,0.0,0.0,0.0,0.0,-2.8297,-2.8604,-2.8283,-2.7012,-2.4679,-2.4336,-2.3016,-2.0802,0.0,0.0,0.0,0.0,0.0,0.0,0.0,0.0,-1.9246,0.0,0.0,0.0,0.0,0.0,0.0,0.0,0.0,0.0,0.0,-1.4943,-1.5174,-1.5174,-1.5079,-1.5004,-1.514,-1.5181,-1.5147,-1.5004,-1.497,-1.5011,-1.5153,-1.5072,-1.5059,-1.535,-1.5289,-1.5276,-1.5581,-1.5513,-1.5506,-1.5805,-1.5852,-1.575,-1.5452,-1.5547,-1.5642,-1.5642,-1.5506,-1.5472,-1.5622,-1.5364,-1.5181,-1.5087,-1.281,-1.1385,-1.1296,-0.6519,-0.2619,-0.0098,0.0,0.0,0.0,0.0,0.0,0.0,0.0,0.0,0.0,0.0,0.0,0.0,0.0,0.0,0.0,0.0,0.0,0.0,0.0,0.0,0.0,0.0,0.0,0.0,0.0,0.0,0.0,0.0,0.0,0.0,0.0,-1.8144,-1.7313,-1.6721,-1.5376,-1.4314,-1.3705,-1.3715,-1.3777,-1.3777,-1.4351,0.0,0.0,0.0,0.0,0.0,0.0,0.0,0.0,-2.7415,-2.8511,-2.8604,-2.702,-2.5916,-2.5132,-2.1703,-1.966,-1.8821,-1.7257,-1.6087,0.0,0.0,0.0,0.0,0.0,-1.7009,-1.9246,0.0,0.0,0.0,0.0,0.0,0.0,0.0,0.0,0.0,0.0,0.0,0.0,-1.5181,-1.5153,-1.5079,-1.4923,-1.5031,-1.5147,-1.5004,-1.5045,-1.5099,-1.5052,-1.5079,-1.5113,-1.5113,-1.5147,-1.5242,-1.5445,-1.5357,-1.5357,-1.5655,-1.5622,-1.552,-1.5425,-1.554,-1.556,-1.535,-1.5282,-1.5276,-1.5323,-1.5242,-1.5181,-1.5181,-1.4422,-1.3281,-1.1485,-0.824,-0.5229,-0.2645,-0.0891,0.0,0.0,0.0,0.0,0.0,0.0,0.0,0.0,0.0,0.0,0.0,0.0,0.0,0.0,0.0,0.0,0.0,0.0,0.0,0.0,0.0,0.0,0.0,0.0,0.0,0.0,0.0,0.0,0.0,0.0,-2.0625,-1.9998,-1.9356,-1.8174,-1.6801,-1.5202,-1.5046,-1.4771,-1.3838,-1.381,0.0,0.0,0.0,0.0,0.0,0.0,0.0,-2.3051,-2.4838,-2.5908,-2.6102,-2.4757,-2.3631,-2.2736,-1.9852,-1.7854,-1.6736,-1.5286,-1.4604,0.0,0.0,0.0,0.0,-1.535,-1.6371,-1.7725,0.0,0.0,0.0,0.0,0.0,0.0,0.0,0.0,0.0,0.0,0.0,0.0,0.0,-1.5221,-1.5215,-1.497,-1.5045,-1.516,-1.5072,-1.512,-1.516,-1.5072,-1.512,-1.516,-1.5072,-1.512,-1.5228,-1.5384,-1.5289,-1.5262,-1.5513,-1.5472,-1.5391,-1.5337,-1.5459,-1.5486,-1.5289,-1.5269,-1.5269,-1.5269,-1.5215,-1.5181,-1.5181,-1.5181,-1.4516,-1.2904,-0.9543,-0.6833,-0.5252,-0.1877,0.0,0.0,0.0,0.0,0.0,0.0,0.0,0.0,0.0,0.0,0.0,0.0,0.0,0.0,0.0,0.0,0.0,0.0,0.0,0.0,0.0,0.0,0.0,0.0,0.0,0.0,0.0,0.0,0.0,0.0,-2.497,-2.5564,-2.3853,-2.347,-2.1817,-1.778,-1.7307,-1.639,-1.4022,0.0,0.0,0.0,0.0,0.0,0.0,0.0,0.0,-2.0437,-2.0933,-2.1454,-2.1888,-2.173,-2.0592,-1.8626,-1.8618,-1.7242,-1.4774,-1.4923,-1.4903,-1.4767,-1.4923,-1.5072,-1.5221,-1.5343,-1.5316,0.0,0.0,0.0,0.0,0.0,0.0,0.0,0.0,0.0,0.0,0.0,0.0,0.0,0.0,0.0,0.0,0.0,-1.5194,-1.5194,-1.5187,-1.5181,-1.5174,-1.5153,-1.516,0.0,-1.514,-1.5153,-1.5208,-1.535,-1.5269,-1.5235,-1.5384,-1.5418,-1.5371,-1.5221,-1.5309,-1.5398,-1.5411,-1.5404,-1.5398,-1.5411,-1.5269,-1.5181,-1.5181,-1.5181,-1.5181,-1.5181,-1.0342,-0.7626,-0.7602,-0.2653,0.0,0.0,0.0,0.0,0.0,0.0,0.0,0.0,0.0,0.0,0.0,0.0,0.0,0.0,0.0,0.0,0.0,-0.0202,-0.0303,-0.0303,-0.0505,-0.0404,-0.0303,0.0,0.0,0.0,0.0,0.0,0.0,0.0,0.0,0.0,0.0,-2.2394,-2.0253,-1.762,-1.7332,-1.6403,0.0,0.0,0.0,0.0,0.0,0.0,0.0,0.0,0.0,-1.8485,-2.055,-2.1605,-2.1789,-2.0169,-1.9175,-1.8635,-1.6958,-1.5814,-1.5079,-1.512,-1.5052,-1.493,-1.5072,-1.5289,-1.5513,-1.5316,-1.5282,0.0,0.0,0.0,0.0,-1.4808,-1.4896,0.0,0.0,0.0,0.0,0.0,0.0,0.0,0.0,-1.5208,-1.5228,-1.5194,0.0,-1.533,-1.5215,-1.5181,-1.512,0.0,-1.4936,-1.495,-1.4719,-1.4855,-1.5031,-1.5065,-1.5133,-1.5235,-1.5384,-1.5506,-1.5533,-1.5377,-1.5289,-1.5282,-1.5398,-1.5309,-1.5282,-1.5398,-1.5269,-1.5181,-1.5181,-1.5181,-1.5181,-1.5181,-1.0342,-0.7602,-0.7619,-0.2706,0.0,0.0,0.0,0.0,0.0,0.0,0.0,0.0,0.0,0.0,0.0,0.0,0.0,0.0,0.0,0.0,-0.0202,-0.2217,-0.3021,-0.3323,-0.5331,-0.4831,-0.3021,0.0,0.0,0.0,0.0,0.0,0.0,0.0,0.0,0.0,0.0,0.0,0.0,0.0,0.0,0.0,0.0,0.0,0.0,0.0,0.0,0.0,0.0,0.0,-1.6079,-1.6087,-1.7637,-1.848,-1.8493,-1.75,-1.708,-1.7154,-1.6011,-1.5432,-1.5282,-1.5215,-1.514,-1.5079,-1.5221,-1.5384,-1.5527,-1.5432,0.0,0.0,0.0,0.0,0.0,-1.4658,-1.478,0.0,-1.497,-1.5065,-1.5181,0.0,0.0,0.0,0.0,-1.5181,-1.5201,-1.5269,-1.5398,-1.5479,-1.5323,-1.5343,-1.5316,-1.5011,-1.4957,-1.4903,-1.4665,-1.4746,-1.4889,-1.4957,-1.4977,-1.5052,-1.5269,-1.5323,-1.535,-1.5404,-1.5398,-1.5398,-1.5411,-1.5337,-1.5289,-1.5303,-1.5228,-1.5181,-1.5181,-1.5181,-1.5181,-1.5181,-1.0342,-0.7595,-0.7595,-0.269,0.0,0.0,0.0,0.0,0.0,0.0,0.0,0.0,0.0,0.0,0.0,0.0,0.0,0.0,0.0,-0.0707,-0.2016,-0.3423,-0.4728,-0.6032,-0.7437,-0.7035,-0.5633,0.0,0.0,0.0,0.0,0.0,0.0,0.0,0.0,0.0,0.0,0.0,0.0,0.0,0.0,0.0,0.0,0.0,0.0,0.0,0.0,0.0,0.0,-1.4346,-1.4292,-1.4211,-1.4516,-1.4719,-1.4808,-1.5059,-1.5282,-1.5479,-1.5635,-1.5615,-1.5438,-1.5289,-1.5215,-1.5228,-1.5357,-1.5438,-1.5486,-1.5567,0.0,0.0,0.0,0.0,0.0,0.0,0.0,0.0,-1.497,-1.5065,-1.5181,-1.5181,0.0,0.0,0.0,0.0,0.0,-1.5371,-1.554,-1.5635,-1.5486,-1.554,-1.556,-1.5255,-1.5052,-1.4889,-1.474,-1.4706,-1.4746,-1.4875,-1.4848,-1.4889,-1.514,-1.5099,-1.512,-1.5343,-1.5486,-1.5527,-1.5425,-1.5391,-1.5337,-1.5228,-1.5194,-1.5194,-1.5215,-1.5215,-1.5228,-1.5248,-1.0384,-0.7626,-0.7626,-0.2698,0.0,0.0,0.0,0.0,0.0,0.0,0.0,0.0,0.0,0.0,0.0,0.0,0.0,0.0,-0.0404,-0.1918,-0.4125,-0.4929,-0.6634,-0.8643,-0.9044,-0.8943,-0.8142,0.0,0.0,0.0,0.0,0.0,0.0,0.0,0.0,0.0,0.0,0.0,0.0,0.0,0.0,0.0,0.0,0.0,0.0,0.0,0.0,0.0,-1.4679,-1.455,-1.459,-1.4828,-1.4529,-1.4611,-1.5113,-1.516,-1.5391,-1.5791,-1.594,-1.5866,-1.5594,-1.5445,-1.5377,-1.5377,-1.5398,-1.5554,-1.5764,-1.554,0.0,0.0,0.0,0.0,0.0,0.0,0.0,0.0,-1.497,-1.5065,-1.5181,-1.5181,0.0,0.0,0.0,0.0,0.0,-1.5371,-1.5608,-1.5784,-1.5642,-1.5622,-1.556,-1.5255,-1.497,-1.4733,-1.4577,-1.455,-1.4557,-1.4577,-1.4875,-1.5126,-1.5174,-1.5276,-1.5316,-1.5228,-1.5235,-1.5289,-1.5398,-1.5296,-1.5262,-1.5364,-1.5255,-1.5235,-1.5364,-1.5377,-1.5432,-1.556,-1.0597,-0.7779,-0.7779,-0.2734,0.0,0.0,0.0,0.0,0.0,0.0,0.0,0.0,0.0,0.0,0.0,0.0,0.0,-0.0202,-0.2439,-0.365,-0.4427,-0.9036,-1.1144,-1.1749,-1.4059,-1.3456,-1.0754,0.0,0.0,0.0,0.0,0.0,0.0,0.0,0.0,0.0,0.0,0.0,0.0,0.0,0.0,0.0,0.0,0.0,0.0,0.0,0.0,-1.4977,-1.4977,-1.4835,-1.4746,-1.4726,-1.4841,-1.4991,-1.5181,-1.5506,-1.5778,-1.5974,-1.5961,-1.5845,-1.5635,-1.5479,-1.5459,-1.554,-1.5615,-1.573,-1.5845,0.0,0.0,0.0,0.0,0.0,0.0,0.0,0.0,0.0,0.0,-1.5126,-1.5181,-1.5181,0.0,0.0,0.0,0.0,0.0,-1.5472,-1.5689,-1.5859,-1.5872,-1.5818,-1.5635,-1.5174,-1.4896,-1.4719,-1.4652,-1.457,-1.4584,-1.4828,-1.4909,-1.4943,-1.4943,-1.5208,-1.5357,-1.5201,-1.5323,-1.5425,-1.5411,-1.535,-1.5303,-1.5289,-1.5296,-1.5337,-1.5404,-1.5486,-1.5567,-1.5635,-1.0643,-0.7813,-0.7813,-0.2756,0.0,0.0,0.0,0.0,0.0,0.0,0.0,0.0,0.0,0.0,0.0,0.0,0.0,-0.0205,-0.2979,-0.4906,-0.6584,-1.0621,-1.3012,-1.4364,-1.5678,-1.4455,-1.173,0.0,0.0,0.0,0.0,0.0,0.0,0.0,0.0,0.0,0.0,0.0,0.0,0.0,0.0,0.0,0.0,0.0,0.0,0.0,0.0,-1.5052,-1.5126,-1.5059,-1.493,-1.4726,-1.514,-1.535,-1.5337,-1.5872,-1.6151,-1.6185,-1.6062,-1.5893,-1.5683,-1.5567,-1.5581,-1.5696,-1.5805,-1.5872,-1.592,0.0,0.0,0.0,0.0,0.0,0.0,0.0,0.0,0.0,0.0,0.0,0.0,0.0,0.0,0.0,-1.5181,-1.5181,-1.5248,-1.5554,-1.5716,-1.5839,-1.5988,-1.5913,-1.5683,-1.5235,-1.4923,-1.4753,-1.4787,-1.4672,-1.4679,-1.5065,-1.5004,-1.4896,-1.4896,-1.5215,-1.5384,-1.5167,-1.5398,-1.5527,-1.5377,-1.5357,-1.5323,-1.5242,-1.5343,-1.5438,-1.5513,-1.5622,-1.5703,-1.5737,-1.0713,-0.7864,-0.7864,-0.2781,0.0,0.0,0.0,0.0,0.0,0.0,0.0,0.0,0.0,0.0,0.0,0.0,0.0,-0.0312,-0.3734,-0.6291,-0.8378,-1.1923,-1.4403,-1.6137,-1.6171,-1.5019,-1.3048,0.0,0.0,0.0,0.0,0.0,0.0,0.0,0.0,0.0,0.0,0.0,0.0,0.0,0.0,0.0,0.0,0.0,0.0,0.0,0.0,-1.5113,-1.4991,-1.5106,-1.5221,-1.5343,-1.5248,-1.5398,-1.5805,-1.613,-1.6361,-1.649,-1.6476,-1.6246,-1.5839,-1.5825,-1.5825,-1.5839,-1.5852,-1.5934,-1.6069,-1.6076,0.0,0.0,0.0,0.0,0.0,0.0,0.0,0.0,0.0,0.0,0.0,0.0,0.0,-1.5181,-1.5181,-1.5181,-1.5248,-1.5554,-1.5649,-1.5689,-1.5832,-1.5764,-1.5642,-1.5601,-1.5147,-1.478,-1.4923,-1.4828,-1.478,-1.495,-1.5194,-1.5364,-1.5364,-1.5506,-1.5472,-1.5045,-1.5242,-1.5371,-1.5215,-1.5201,-1.5248,-1.5377,-1.5404,-1.5527,-1.5798,-1.5832,-1.59,-1.6042,-1.0926,-0.8024,-0.8024,-0.2818,0.0,0.0,0.0,0.0,0.0,0.0,0.0,0.0,0.0,0.0,0.0,0.0,0.0,-0.0416,-0.5843,-0.8113,-0.876,-1.3999,-1.6098,-1.6307,-1.6442,-1.6489,-1.5996,0.0,0.0,0.0,0.0,0.0,0.0,0.0,0.0,0.0,0.0,0.0,0.0,0.0,0.0,0.0,0.0,0.0,0.0,0.0,-1.5052,-1.5201,-1.5242,-1.5391,-1.5533,-1.5683,-1.5628,-1.5778,-1.6137,-1.6341,-1.6469,-1.6517,-1.6334,-1.6103,-1.5852,-1.5852,-1.5852,-1.5957,-1.5954,-1.6029,-1.6083,-1.6083,-1.6049,0.0,0.0,0.0,0.0,0.0,0.0,0.0,0.0,-1.5181,-1.5181,-1.5181,-1.5181,-1.5181,-1.5181,-1.5181,-1.5228,-1.5438,-1.5567,-1.5676,-1.5818,-1.5676,-1.5472,-1.5377,-1.5113,-1.495,-1.5194,-1.5052,-1.4957,-1.5201,-1.5255,-1.5303,-1.5398,-1.5459,-1.5438,-1.5269,-1.5425,-1.5533,-1.5472,-1.5466,-1.5493,-1.5547,-1.5635,-1.573,-1.5845,-1.594,-1.6022,-1.6076,-1.2552,-0.9744,-0.8038,-0.4429,-0.1715,0.0,0.0,0.0,0.0,0.0,0.0,0.0,0.0,0.0,0.0,0.0,-0.0952,-0.295,-0.6855,-0.9446,-1.1235,-1.4945,-1.6503,-1.6578,-1.6537,-1.668,-1.6459,0.0,0.0,0.0,0.0,0.0,0.0,0.0,0.0,0.0,0.0,0.0,0.0,0.0,0.0,0.0,0.0,0.0,0.0,-1.4882,-1.516,-1.5371,-1.5479,-1.5581,-1.573,-1.592,-1.5974,-1.6123,-1.6374,-1.6524,-1.6571,-1.6517,-1.6273,-1.6076,-1.5927,-1.5927,-1.5927,-1.5927,-1.5988,-1.6035,-1.6076,-1.6029,-1.6035,0.0,0.0,0.0,0.0,0.0,0.0,0.0,0.0,-1.5181,-1.5181,-1.5181,-1.5181,-1.5181,-1.5181,-1.5181,-1.5228,-1.5432,-1.552,-1.5615,-1.5805,-1.5628,-1.5384,-1.5276,-1.5106,-1.5038,-1.5289,-1.5215,-1.5174,-1.5371,-1.5364,-1.5364,-1.5466,-1.552,-1.5533,-1.5493,-1.5615,-1.5689,-1.5642,-1.5642,-1.5655,-1.5703,-1.5798,-1.5872,-1.592,-1.6022,-1.6083,-1.6083,-1.3555,-1.0845,-0.8038,-0.5432,-0.272,0.0,0.0,0.0,0.0,0.0,0.0,0.0,0.0,0.0,0.0,0.0,-0.1597,-0.4464,-0.7323,-1.0551,-1.4019,-1.5957,-1.67,-1.6741,-1.6686,-1.6802,-1.6538,0.0,0.0,0.0,0.0,0.0,0.0,0.0,0.0,0.0,0.0,0.0,0.0,0.0,0.0,0.0,0.0,0.0,0.0,-1.5194,-1.5466,-1.5635,-1.5642,-1.5642,-1.5778,-1.6076,-1.6232,-1.6381,-1.6524,-1.6673,-1.6666,-1.6517,-1.6374,-1.6225,-1.6076,-1.6076,-1.6076,-1.6069,-1.592,-1.594,-1.6069,-1.5913,-1.5947,-1.6049,0.0,0.0,0.0,0.0,0.0,0.0,0.0,-1.5181,-1.5181,-1.5181,-1.5181,-1.5181,-1.5181,-1.5181,-1.5248,-1.5554,-1.5527,-1.5479,-1.5778,-1.5628,-1.5411,-1.5411,-1.5187,-1.5018,-1.5153,-1.5309,-1.5411,-1.5411,-1.554,-1.5642,-1.5642,-1.5757,-1.5805,-1.5662,-1.5764,-1.5805,-1.5662,-1.5642,-1.5696,-1.5845,-1.5852,-1.592,-1.6069,-1.6083,-1.6083,-1.6083,-1.3555,-1.0845,-0.8038,-0.5432,-0.272,0.0,0.0,0.0,0.0,0.0,0.0,0.0,0.0,0.0,0.0,0.0,-0.1597,-0.4465,-0.7429,-1.1811,-1.6768,-1.6917,-1.689,-1.6768,-1.6924,-1.6978,-1.6551,0.0,0.0,0.0,0.0,0.0,0.0,0.0,0.0,0.0,0.0,0.0,0.0,0.0,0.0,0.0,0.0,0.0,0.0,-1.5194,-1.5371,-1.5527,-1.5635,-1.5737,-1.5934,-1.6239,-1.649,-1.6639,-1.668,-1.6517,-1.6361,-1.6212,-1.6056,-1.5913,-1.5778,-1.5872,-1.5866,-1.5771,-1.5832,-1.5879,-1.5927,-1.5988,-1.6042,-1.6049,0.0,0.0,0.0,0.0,0.0,0.0,0.0,0.0,0.0,-1.5309,-1.5343,-1.5343,-1.5343,-1.5343,-1.5337,-1.5323,-1.5364,-1.5459,-1.5655,-1.5554,-1.5438,-1.5547,-1.5418,-1.5296,-1.5337,-1.5466,-1.5567,-1.5567,-1.5608,-1.5676,-1.5771,-1.5825,-1.5839,-1.5798,-1.592,-1.6001,-1.5954,-1.5947,-1.5967,-1.6008,-1.6015,-1.6035,-1.6076,-1.6083,-1.6083,-1.6083,-1.5373,-1.2757,-0.8142,-0.7236,-0.463,0.0,0.0,0.0,0.0,0.0,0.0,0.0,0.0,0.0,-0.0107,-0.2129,-0.457,-0.7641,-1.2515,-1.5462,-1.6917,-1.6965,-1.6951,-1.6917,-1.6965,-1.6978,-1.6551,0.0,0.0,0.0,0.0,0.0,0.0,0.0,0.0,-2.326,-2.2407,-2.0041,-1.8141,0.0,0.0,0.0,-1.5581,-1.5588,-1.552,-1.5371,-1.5506,-1.5628,-1.5716,-1.592,-1.6178,-1.6476,-1.6659,-1.6693,-1.6578,-1.6395,-1.6232,-1.6076,-1.5927,-1.5805,-1.5737,-1.594,-1.5954,-1.5818,-1.5906,-1.5947,-1.5947,-1.5981,-1.5988,-1.5967,0.0,0.0,0.0,0.0,0.0,0.0,0.0,0.0,0.0,-1.5221,-1.5276,-1.5316,-1.5316,-1.5316,-1.5323,-1.5357,-1.5384,-1.5445,-1.5601,-1.552,-1.5438,-1.5527,-1.5432,-1.5337,-1.5398,-1.5486,-1.5567,-1.5628,-1.5683,-1.575,-1.5839,-1.5906,-1.5947,-1.5947,-1.6022,-1.6083,-1.6083,-1.6083,-1.6083,-1.6083,-1.6083,-1.6083,-1.6083,-1.6083,-1.6083,-1.6083,-1.6083,-1.3561,-0.8142,-0.8041,-0.5434,-0.0101,0.0,0.0,0.0,0.0,0.0,0.0,0.0,0.0,-0.0213,-0.4145,-0.7535,-1.0496,-1.506,-1.6978,-1.6978,-1.6978,-1.6978,-1.6971,-1.691,-1.6931,-1.644,0.0,0.0,0.0,0.0,0.0,0.0,0.0,-2.1502,-2.0862,-1.8709,-1.84,-1.7632,0.0,0.0,0.0,-1.5859,-1.5852,-1.5778,-1.5649,-1.575,-1.5825,-1.5852,-1.6171,-1.6476,-1.6637,-1.6761,-1.6619,-1.6307,-1.6293,-1.6198,-1.6015,-1.5893,-1.5832,-1.5845,-1.6123,-1.6178,-1.6062,-1.6049,-1.6042,-1.6029,-1.5906,-1.5845,-1.5818,-1.5676,0.0,0.0,0.0,0.0,0.0,0.0,0.0,0.0,-1.5031,-1.5086,-1.5201,-1.5187,-1.5201,-1.5282,-1.5547,-1.5527,-1.5466,-1.5622,-1.5547,-1.5432,-1.5411,-1.5303,-1.5248,-1.5398,-1.5445,-1.5493,-1.5635,-1.5778,-1.5872,-1.5872,-1.5988,-1.6083,-1.6083,-1.6083,-1.6083,-1.6083,-1.6083,-1.6083,-1.6083,-1.6083,-1.6083,-1.6083,-1.6083,-1.6083,-1.6083,-1.6083,-1.3561,-0.8142,-0.8041,-0.5434,-0.0101,0.0,0.0,0.0,0.0,0.0,0.0,0.0,-0.0317,-0.1065,-0.6263,-1.0285,-1.3248,-1.5914,-1.6978,-1.6978,-1.6965,-1.6958,-1.6944,-1.6788,-1.6815,-1.6073,0.0,0.0,0.0,0.0,0.0,0.0,-2.161,-2.024,-1.9009,-1.8702,-1.7103,-1.5906,-1.5861,-1.571,0.0,-1.6008,-1.5818,-1.5669,-1.5642,-1.5554,-1.5608,-1.5845,-1.6368,-1.6686,-1.6748,-1.687,-1.6727,-1.6307,-1.6191,-1.5934,-1.5554,-1.5642,-1.5683,-1.5689,-1.575,-1.5825,-1.5893,-1.5784,-1.5737,-1.5744,-1.5818,-1.5784,-1.5669,-1.552,-1.5438,0.0,0.0,0.0,0.0,0.0,0.0,0.0,-1.5147,-1.5242,-1.5337,-1.5215,-1.535,-1.5527,-1.5472,-1.552,-1.5628,-1.5771,-1.5696,-1.556,-1.5438,-1.5384,-1.5404,-1.556,-1.5676,-1.5771,-1.5805,-1.5934,-1.6035,-1.6035,-1.6062,-1.6083,-1.6083,-1.6083,-1.6083,-1.6083,-1.6083,-1.6083,-1.6083,-1.6083,-1.6083,-1.6083,-1.6083,-1.6083,-1.6083,-1.6083,-1.3561,-0.8142,-0.8041,-0.5452,-0.0102,0.0,0.0,0.0,0.0,0.0,0.0,0.0,-0.2443,-0.6793,-0.7958,-1.1345,-1.6124,-1.6768,-1.6978,-1.6971,-1.6849,-1.6802,-1.6781,-1.6625,-1.6592,-1.5796,0.0,0.0,0.0,0.0,0.0,0.0,0.0,0.0,-1.6962,-1.7147,-1.6038,-1.5384,-1.5615,-1.5574,0.0,0.0,-1.5622,-1.556,-1.5635,-1.556,-1.5716,-1.6151,-1.6476,-1.6707,-1.6856,-1.687,-1.6686,-1.6307,-1.6083,-1.5778,-1.5411,-1.5493,-1.5527,-1.5533,-1.5676,-1.5784,-1.5852,-1.5852,-1.5811,-1.575,-1.5825,-1.5723,-1.552,-1.5438,-1.5411,-1.5391,-1.5235,0.0,0.0,0.0,0.0,0.0,0.0,0.0,-1.5181,-1.5106,-1.5194,-1.5337,-1.5398,-1.552,-1.5676,-1.5818,-1.5798,-1.5703,-1.5554,-1.5574,-1.5649,-1.5723,-1.5805,-1.5879,-1.5947,-1.6029,-1.6083,-1.6083,-1.6083,-1.6083,-1.6083,-1.6083,-1.6083,-1.6083,-1.6083,-1.6083,-1.6083,-1.6083,-1.611,-1.6185,-1.6123,-1.611,-1.6185,-1.6123,-1.4165,-1.0045,-0.8639,-0.6063,-0.1942,-0.0617,0.0,0.0,0.0,0.0,0.0,-0.1384,-0.4357,-0.8593,-0.9968,-1.2937,-1.6978,-1.6978,-1.6937,-1.6863,-1.6781,-1.6707,-1.6625,-1.6476,-1.6463,-1.5705,0.0,0.0,0.0,0.0,0.0,0.0,0.0,0.0,0.0,-1.5411,-1.5391,-1.5377,-1.5404,-1.5364,-1.5357,0.0,0.0,0.0,-1.5628,-1.5689,-1.5947,-1.6463,-1.651,-1.6639,-1.6897,-1.6775,-1.6564,-1.6273,-1.6015,-1.5744,-1.5452,-1.5425,-1.5411,-1.5425,-1.5696,-1.5832,-1.5859,-1.5988,-1.5967,-1.5852,-1.5825,-1.5635,-1.5371,-1.5343,-1.5316,-1.5276,-1.5153,-1.5187,-1.5282,-1.5181,0.0,0.0,0.0,0.0,-1.5004,-1.4977,-1.5004,-1.5092,-1.5309,-1.5499,-1.5683,-1.5852,-1.5872,-1.5825,-1.5703,-1.5771,-1.5852,-1.5852,-1.5872,-1.5934,-1.6056,-1.6083,-1.6083,-1.6083,-1.6083,-1.6083,-1.6083,-1.6083,-1.6083,-1.6083,-1.6083,-1.6083,-1.6083,-1.6083,-1.6137,-1.6259,-1.6151,-1.6137,-1.6266,-1.6151,-1.4869,-1.2148,-0.944,-0.6671,-0.3989,-0.1343,0.0,0.0,0.0,-0.0213,-0.0852,-0.3615,-0.6266,-0.8699,-1.1446,-1.4312,-1.6978,-1.6951,-1.6863,-1.6748,-1.6693,-1.6598,-1.6469,-1.6327,-1.6361,-1.5762,0.0,0.0,0.0,0.0,0.0,0.0,0.0,0.0,0.0,0.0,-1.5296,-1.5262,-1.5398,-1.5181,-1.5133,-1.5391,-1.5289,-1.5337,-1.5622,0.0,0.0,-1.6327,-1.6456,-1.6537,-1.6585,-1.6564,-1.6408,-1.611,-1.6069,-1.59,-1.5608,-1.5472,-1.5411,-1.5418,-1.5588,-1.5737,-1.5852,-1.5872,-1.5872,-1.5845,-1.5716,-1.5486,-1.5201,-1.5079,-1.4943,-1.4828,-1.4808,-1.4814,-1.4848,-1.4957,-1.4997,0.0,0.0,0.0,-1.5126,-1.5004,-1.5153,-1.533,-1.5242,-1.5418,-1.5703,-1.5981,-1.5954,-1.5845,-1.5825,-1.5839,-1.5852,-1.5852,-1.5961,-1.6056,-1.6076,-1.6083,-1.6083,-1.6083,-1.6083,-1.6083,-1.6083,-1.6083,-1.6083,-1.6083,-1.6083,-1.6083,-1.6083,-1.6083,-1.609,-1.611,-1.6096,-1.609,-1.611,-1.609,-1.4869,-1.2148,-0.944,-0.669,-0.4027,-0.1347,0.0,0.0,0.0,-0.1278,-0.3722,-0.6581,-0.817,-0.8699,-1.1446,-1.4312,-1.6971,-1.6836,-1.6768,-1.6727,-1.6469,-1.6354,-1.632,-1.6171,-1.6205,-1.5841,0.0,0.0,0.0,0.0,0.0,0.0,0.0,0.0,0.0,0.0,0.0,-1.4964,-1.5025,-1.4916,-1.4862,-1.4903,-1.5004,-1.5228,-1.5615,-1.5839,-1.6062,-1.63,-1.6368,-1.6442,-1.6517,-1.6442,-1.6341,-1.6212,-1.5961,-1.5852,-1.5879,-1.5649,-1.5493,-1.5418,-1.5655,-1.575,-1.5737,-1.5737,-1.5737,-1.571,-1.5479,-1.5357,-1.5276,-1.4964,-1.4957,-1.5086,-1.4828,-1.4794,-1.4869,-1.4848,-1.4903,-1.4957,-1.4869,0.0,0.0,0.0,-1.5052,-1.5323,-1.5506,-1.5655,-1.5832,-1.6137,-1.6096,-1.6001,-1.609,-1.6042,-1.5981,-1.5981,-1.6035,-1.6083,-1.6083,-1.6083,-1.6083,-1.6083,-1.6083,-1.6083,-1.6083,-1.6157,-1.6178,-1.609,-1.6157,-1.6178,-1.609,-1.6083,-1.6151,-1.6313,-1.6252,-1.6246,-1.6327,-1.6327,-1.5776,-1.448,-1.0375,-0.76,-0.6454,-0.2193,0.0,0.0,-0.1597,-0.2979,-0.4359,-0.8805,-1.0813,-1.1024,-1.3891,-1.5803,-1.6971,-1.6815,-1.67,-1.6598,-1.6388,-1.6259,-1.6178,-1.6103,-1.6178,-1.5923,0.0,0.0,0.0,0.0,0.0,0.0,0.0,0.0,0.0,0.0,0.0,-1.474,-1.474,0.0,0.0,0.0,-1.478,-1.5099,-1.5554,-1.575,-1.5954,-1.6185,-1.6232,-1.63,-1.6408,-1.6266,-1.6191,-1.6191,-1.5859,-1.5825,-1.6076,-1.5934,-1.5784,-1.5649,-1.5872,-1.5886,-1.575,-1.575,-1.575,-1.5723,-1.5425,-1.5343,-1.5371,-1.5038,-1.5092,-1.5296,-1.4889,-1.4814,-1.4889,-1.4733,-1.476,-1.4848,-1.4814,-1.4875,0.0,0.0,0.0,-1.5276,-1.5689,-1.5771,-1.5825,-1.6164,-1.6137,-1.6076,-1.6266,-1.6191,-1.6083,-1.6083,-1.6083,-1.6083,-1.6083,-1.6083,-1.6083,-1.6083,-1.6083,-1.6096,-1.6137,-1.6239,-1.6279,-1.6205,-1.6293,-1.632,-1.6205,-1.6191,-1.6286,-1.6503,-1.6422,-1.6408,-1.6517,-1.6524,-1.6469,-1.6368,-1.1106,-0.8297,-0.8267,-0.2736,0.0,0.0,-0.2872,-0.457,-0.5417,-1.0391,-1.3143,-1.3885,-1.6019,-1.6958,-1.691,-1.6754,-1.6605,-1.6456,-1.6307,-1.6185,-1.609,-1.6123,-1.6232,-1.6084,0.0,0.0,0.0,0.0,0.0,0.0,0.0,0.0,0.0,0.0,0.0,-1.474,-1.474,-1.4611,-1.4577,-1.4713,-1.4746,-1.4943,-1.5391,-1.5689,-1.5957,-1.5879,-1.6015,0.0,-1.6103,-1.5954,-1.5879,-1.5879,-1.5852,-1.5927,-1.609,-1.6354,-1.6402,-1.6266,-1.6279,-1.6198,-1.6056,-1.6056,-1.6056,-1.6035,-1.5737,-1.5533,-1.5411,-1.5384,-1.5303,-1.5153,-1.4848,-1.4746,-1.4726,-1.4577,-1.4529,-1.4584,-1.4869,-1.4964,-1.4997,0.0,0.0,0.0,-1.5567,-1.5547,0.0,-1.5981,-1.5981,-1.594,-1.6239,-1.6191,-1.6083,-1.6083,-1.6083,-1.6083,-1.6083,-1.6083,-1.6083,-1.6083,-1.6083,-1.613,-1.6279,-1.6307,-1.6354,-1.6483,-1.6503,-1.651,-1.6497,-1.6497,-1.6503,-1.6517,-1.6517,-1.6517,-1.6524,-1.6524,-1.6517,-1.651,-1.1143,-0.8297,-0.8267,-0.2752,0.0,0.0,-0.2872,-0.5629,-0.8382,-1.1341,-1.4207,-1.6768,-1.6978,-1.6897,-1.6748,-1.6598,-1.6449,-1.6307,-1.6151,-1.609,-1.6096,-1.6246,-1.6388,-1.6551,0.0,0.0,0.0,0.0,0.0,0.0,0.0,0.0,0.0,0.0,0.0,0.0,0.0,-1.4808,-1.4679,-1.4733,-1.4828,-1.5038,-1.5391,-1.5601,-1.5757,-1.5852,-1.6001,-1.6083,-1.6083,-1.5934,-1.5852,-1.5852,-1.5662,-1.5744,-1.6083,-1.609,-1.6218,-1.6442,-1.6347,-1.6225,-1.6062,-1.5778,-1.5649,-1.5635,-1.5432,-1.5371,-1.5398,-1.5303,-1.535,-1.5438,-1.5133,-1.4903,-1.4733,-1.4679,-1.4658,-1.4658,-1.4672,-1.4875,-1.5133,-1.5289,-1.5262,-1.5248,-1.5554,-1.5527,0.0,-1.5845,-1.5893,-1.5906,-1.6117,-1.6123,-1.6083,-1.6083,-1.6083,-1.6083,-1.6083,-1.6083,-1.6083,-1.6083,-1.6164,-1.6246,-1.63,-1.6476,-1.6571,-1.6524,-1.6605,-1.6625,-1.653,-1.6524,-1.6564,-1.6659,-1.6666,-1.6666,-1.6666,-1.6761,-1.6768,-1.6673,-1.3083,-0.9364,-0.5708,-0.1913,-0.0959,-0.2766,-0.5629,-0.8487,-1.1341,-1.4207,-1.5968,-1.6836,-1.6836,-1.6802,-1.6727,-1.6483,-1.6354,-1.6293,-1.6144,-1.6144,-1.6232,-1.6286,-1.6524,-1.6836,0.0,0.0,0.0,0.0,0.0,0.0,0.0,0.0,-1.5255,-1.5459,0.0,0.0,0.0,0.0,-1.4869,-1.4821,-1.4957,-1.5126,-1.5323,-1.5527,-1.5662,-1.5703,-1.5947,-1.6056,-1.6008,-1.5859,-1.5784,-1.5784,-1.5533,-1.5588,-1.5934,-1.5879,-1.6069,-1.6442,-1.6191,-1.6137,-1.6205,-1.5859,-1.5655,-1.5554,-1.5452,-1.5411,-1.5418,-1.5466,-1.5547,-1.5615,-1.5411,-1.5174,-1.4957,-1.4903,-1.4889,-1.4869,-1.4767,-1.4943,-1.5215,-1.5364,-1.5337,-1.5303,-1.5506,-1.5486,-1.5479,-1.5778,-1.5778,-1.5784,-1.609,-1.6076,-1.6022,-1.6069,-1.6083,-1.6083,-1.6083,-1.6083,-1.6096,-1.6151,-1.6246,-1.6347,-1.6442,-1.6625,-1.6727,-1.668,-1.6768,-1.6788,-1.6686,-1.6673,-1.672,-1.6822,-1.6829,-1.6829,-1.6829,-1.6924,-1.6086,-1.3983,-1.226,-0.859,-0.2872,-0.0958,-0.1384,-0.4253,-0.7111,-0.9968,-1.2821,-1.5647,-1.6849,-1.6637,-1.6646,-1.6605,-1.6585,-1.6388,-1.6279,-1.6225,-1.6123,-1.6178,-1.632,-1.6422,-1.668,-1.7005,0.0,0.0,0.0,0.0,0.0,0.0,-1.5547,-1.5391,-1.5309,-1.5608,0.0,0.0,0.0,0.0,0.0,-1.4997,-1.5113,-1.5194,-1.5187,-1.5479,-1.5581,-1.5425,-1.5845,-1.6008,-1.5859,-1.571,-1.5642,-1.5642,-1.5479,-1.5486,-1.5635,-1.5778,-1.6001,-1.6279,-1.5839,-1.5961,-1.649,-1.6341,-1.611,-1.5839,-1.5839,-1.5662,-1.5459,-1.59,-1.5893,-1.5649,-1.5649,-1.5554,-1.5398,-1.5248,-1.5187,-1.5181,-1.5181,-1.5181,-1.5208,-1.5357,-1.5404,-1.5404,0.0,0.0,0.0,-1.5757,-1.5615,0.0,-1.6144,0.0,-1.5893,-1.6042,-1.6076,-1.6076,-1.609,-1.609,-1.6137,-1.63,-1.632,-1.6415,-1.6707,-1.6754,-1.6809,-1.6965,-1.6978,-1.6978,-1.6978,-1.6978,-1.6978,-1.6978,-1.6978,-1.6978,-1.6978,-1.6978,-1.4423,-0.8911,-0.859,-0.5837,-0.032,-0.0213,-0.149,-0.4356,-0.7211,-1.0066,-1.2916,-1.5541,-1.6741,-1.672,-1.6435,-1.6307,-1.63,-1.63,-1.6218,-1.6083,-1.609,-1.6185,-1.6354,-1.6653,-1.6863,-1.7066,0.0,0.0,0.0,0.0,0.0,-1.5187,-1.5581,-1.5655,-1.5696,0.0,0.0,0.0,-1.5662,-1.5574,-1.5452,-1.5303,-1.5425,-1.5466,-1.5357,-1.5628,-1.573,-1.5581,-1.59,-1.6008,-1.5859,-1.571,-1.5642,-1.5642,-1.5377,-1.5323,-1.5472,-1.5513,-1.5696,-1.5974,-1.5852,-1.5886,-1.6015,-1.5649,-1.5513,-1.5527,-1.5411,-1.5384,-1.5438,-1.5669,-1.5845,-1.5961,-1.5961,-1.5791,-1.5567,-1.5527,-1.5364,-1.5181,-1.5181,-1.5113,-1.5059,-1.5201,-1.5248,-1.5248,-1.5248,0.0,0.0,0.0,0.0,0.0,-1.5459,0.0,-1.5744,-1.5886,-1.592,-1.5981,-1.6205,-1.6246,-1.6334,-1.6585,-1.6537,-1.653,-1.672,-1.6842,-1.6931,-1.6978,-1.6978,-1.6978,-1.6978,-1.6978,-1.6978,-1.6978,-1.6978,-1.6978,-1.6978,-1.6978,-1.6236,-1.4745,-1.0643,-0.7777,-0.6203,-0.3974,-0.4378,-0.7182,-0.9987,-1.2688,-1.5493,-1.6187,-1.653,-1.6429,-1.6347,-1.6246,-1.6144,-1.6144,-1.6123,-1.609,-1.6205,-1.6402,-1.6653,-1.6849,-1.7148,-1.748,0.0,0.0,-1.5357,-1.5594,-1.5384,-1.533,-1.5757,-1.5839,-1.592,0.0,0.0,0.0,-1.5852,-1.5778,-1.5642,-1.5432,-1.5493,-1.5479,-1.5323,-1.5533,-1.5601,-1.5452,-1.5737,-1.5852,-1.5764,-1.5622,-1.5574,-1.5642,-1.533,-1.5228,-1.5316,-1.5316,-1.5438,-1.5669,-1.5601,-1.5642,-1.5737,-1.535,-1.5235,-1.533,-1.5493,-1.5459,-1.535,-1.5696,-1.5852,-1.5913,-1.6035,-1.5893,-1.5655,-1.5784,-1.5581,-1.5276,-1.5276,-1.5133,-1.4984,-1.5072,-1.514,-1.5181,-1.5181,-1.512,-1.5072,-1.514,0.0,0.0,-1.5418,0.0,0.0,-1.5906,-1.5947,-1.6022,-1.6266,-1.6307,-1.6408,-1.67,-1.6673,-1.6673,-1.6822,-1.6924,-1.6978,-1.6978,-1.6978,-1.6978,-1.6978,-1.6978,-1.6978,-1.6978,-1.6978,-1.6978,-1.6978,-1.6978,-1.6446,-1.5271,-1.0826,-0.7957,-0.6703,-0.3847,-0.4346,-0.8362,-0.991,-1.2692,-1.6517,-1.6463,-1.6388,-1.6307,-1.6246,-1.6164,-1.6083,-1.6083,-1.6083,-1.6103,-1.6313,-1.6544,-1.6781,-1.706,-1.7372,-1.765,0.0,0.0,-1.5445,-1.5628,-1.5425,-1.5425,-1.5995,-1.5967,-1.6022,0.0,-1.6259,-1.6056,-1.592,-1.5906,-1.5791,-1.5513,-1.5466,-1.5398,-1.5242,-1.5357,-1.5371,-1.5215,-1.5499,-1.5649,-1.5615,-1.5513,-1.5513,-1.5615,-1.5343,-1.5201,-1.5181,-1.5181,-1.5255,-1.5377,-1.5242,-1.5337,-1.5574,-1.5337,-1.5215,-1.5228,-1.5764,-1.5683,-1.5289,-1.5832,-1.5886,-1.5723,-1.5988,-1.5913,-1.5723,-1.5974,-1.5778,-1.5432,-1.5398,-1.5228,-1.5038,-1.4984,-1.5099,-1.5228,-1.5194,-1.5167,-1.5194,-1.533,-1.5262,0.0,-1.5662,-1.5669,-1.5669,-1.5947,-1.6008,-1.6056,-1.6225,-1.6273,-1.6368,-1.6632,-1.672,-1.6802,-1.6958,-1.6978,-1.6978,-1.6978,-1.6978,-1.6978,-1.6978,-1.6978,-1.6978,-1.6978,-1.6978,-1.6978,-1.6978,-1.6978,-1.5796,-1.3227,-1.0077,-0.7211,-0.4706,-0.218,-0.3406,-0.8236,-0.8851,-1.173,-1.6469,-1.6341,-1.6286,-1.6279,-1.6144,-1.6083,-1.6083,-1.6083,-1.609,-1.6137,-1.6429,-1.6653,-1.6849,-1.7283,-1.7541,-1.7684,-1.5391,-1.5309,-1.535,-1.5744,-1.5669,-1.5669,-1.6029,-1.6056,-1.6069,-1.6157,-1.6225,-1.6252,-1.6225,-1.6218,-1.6151,-1.5967,-1.5839,-1.5703,-1.556,-1.5581,-1.5527,-1.5371,-1.5649,-1.5696,-1.5459,-1.5662,-1.5662,-1.5452,-1.5398,-1.5303,-1.5181,-1.5181,-1.5201,-1.5228,-1.5194,-1.5215,-1.5282,-1.5472,-1.5404,-1.5194,-1.5309,-1.5438,-1.556,-1.5683,-1.5839,-1.6001,-1.6062,-1.6042,-1.5988,-1.592,-1.5764,-1.5554,-1.5303,-1.5357,-1.5438,-1.5079,-1.5248,-1.5499,-1.5248,-1.5099,-1.5018,-1.5052,-1.5031,0.0,-1.512,-1.5208,-1.5323,0.0,-1.554,-1.5622,-1.5893,-1.6042,-1.6144,-1.6205,-1.6517,-1.6802,-1.6958,-1.6978,-1.6978,-1.6978,-1.6978,-1.6978,-1.6978,-1.6978,-1.6978,-1.6978,-1.6978,-1.6978,-1.6978,-1.6978,-1.6708,-1.595,-1.1122,-0.8153,-0.7482,-0.6806,-0.6973,-0.8082,-1.2521,-1.5151,-1.6164,-1.6137,-1.6123,-1.6123,-1.6096,-1.6083,-1.6083,-1.6083,-1.6151,-1.6293,-1.6592,-1.687,-1.7148,-1.748,-1.7704,-1.7826,-1.5398,-1.535,-1.5391,-1.5696,-1.5689,-1.5737,-1.6035,-1.6083,-1.6137,-1.6279,-1.6435,-1.6442,-1.6218,-1.6327,-1.6293,-1.5995,-1.59,-1.5757,-1.554,-1.5527,-1.5459,-1.5303,-1.5438,-1.552,-1.5527,-1.552,-1.552,-1.5527,-1.5371,-1.5255,-1.5181,-1.5181,-1.5262,-1.5404,-1.5248,-1.5269,-1.5411,-1.5411,-1.5323,-1.5208,-1.5513,-1.5635,-1.5655,-1.5805,-1.5954,-1.6083,-1.6083,-1.6083,-1.6056,-1.5906,-1.571,-1.5513,-1.5438,-1.5466,-1.5452,-1.5079,-1.5235,-1.5445,-1.5065,-1.4909,-1.4875,-1.495,-1.497,0.0,0.0,-1.5248,-1.5357,-1.5588,-1.5513,-1.5499,-1.5798,-1.5859,-1.5913,-1.6056,-1.6395,-1.6659,-1.6741,-1.6883,-1.6978,-1.6978,-1.6978,-1.6978,-1.6978,-1.6978,-1.6978,-1.6978,-1.6978,-1.6978,-1.6978,-1.6978,-1.6269,-1.4752,-1.0682,-0.7815,-0.6221,-0.6063,-0.6634,-0.8041,-1.2153,-1.4769,-1.6083,-1.6083,-1.6083,-1.6083,-1.6083,-1.6083,-1.609,-1.6164,-1.6279,-1.6442,-1.6748,-1.6998,-1.7236,-1.7616,-1.7806,-1.7846,-1.5323,-1.535,-1.5404,-1.5527,-1.5601,-1.573,-1.5995,-1.6062,-1.6171,-1.6402,-1.6571,-1.653,-1.6164,-1.6341,-1.6334,-1.5974,-1.5886,-1.5737,-1.5472,-1.5452,-1.5384,-1.5235,-1.5255,-1.5371,-1.5588,-1.5384,-1.5364,-1.5554,-1.5337,-1.5208,-1.5181,-1.5181,-1.533,-1.5588,-1.5398,-1.5432,-1.5628,-1.5404,-1.533,-1.5398,-1.5852,-1.5845,-1.5581,-1.5886,-1.5995,-1.6001,-1.6062,-1.6103,-1.6096,-1.5913,-1.5716,-1.554,-1.5547,-1.5567,-1.5499,-1.5092,-1.5242,-1.5438,-1.4957,-1.4828,-1.4848,-1.4943,-1.4991,-1.5065,0.0,0.0,0.0,-1.5676,-1.5513,-1.5398,0.0,-1.5588,-1.5594,-1.5866,0.0,0.0,0.0,-1.6741,0.0,-1.6937,-1.6965,-1.6978,-1.6978,-1.6951,-1.6951,-1.6978,-1.6951,-1.6951,-1.6978,-1.6951,-1.5597,-1.273,-0.993,-0.7284,-0.4986,-0.4847,-0.6132,-0.884,-1.1549,-1.396,-1.6083,-1.6083,-1.6083,-1.6083,-1.6083,-1.6083,-1.6096,-1.6246,-1.6395,-1.6551,-1.6863,-1.7066,-1.7243,-1.7636,-1.7772,-1.7758,-1.5018,-1.512,-1.5215,-1.5228,-1.5459,-1.5689,-1.5852,-1.5995,-1.6096,-1.613,-1.6266,-1.6341,-1.6286,-1.6313,-1.6313,-1.6259,-1.6008,-1.5784,-1.5622,-1.5615,-1.5547,-1.5391,-1.5513,-1.554,-1.5438,-1.5533,-1.5472,-1.5235,-1.5337,-1.5316,-1.5181,-1.5181,-1.5276,-1.5445,-1.5676,-1.5723,-1.5642,-1.5737,-1.5852,-1.5974,-1.5906,-1.5622,-1.5269,-1.5574,-1.5689,-1.5723,-1.5988,-1.6171,-1.6239,-1.5947,-1.592,-1.5913,-1.5398,-1.5683,-1.6049,-1.5215,-1.5466,-1.5879,-1.5289,-1.5133,-1.5106,-1.4997,-1.5065,-1.5133,-1.5038,0.0,-1.5215,-1.5248,0.0,-1.5031,-1.5065,0.0,0.0,-1.5255,-1.5649,-1.6022,-1.6293,-1.6592,-1.6775,-1.6775,-1.6897,-1.6978,-1.6978,-1.6856,-1.6836,-1.6971,-1.6849,-1.6836,-1.6971,-1.6849,-1.5453,-1.2621,-0.9742,-0.813,-0.755,-0.7543,-0.894,-1.1644,-1.4364,-1.5778,-1.6083,-1.6083,-1.6083,-1.6083,-1.6083,-1.6083,-1.6096,-1.6246,-1.6395,-1.6551,-1.6863,-1.7066,-1.7216,-1.7399,-1.7473,-1.7467,-1.495,-1.5086,-1.5181,-1.5181,-1.5364,-1.5588,-1.5818,-1.5981,-1.6083,-1.6083,-1.6218,-1.6279,-1.6185,-1.6259,-1.6273,-1.6185,-1.6062,-1.5886,-1.5655,-1.5642,-1.5533,-1.5289,-1.5343,-1.5384,-1.5411,-1.5384,-1.5357,-1.5316,-1.5289,-1.5248,-1.5181,-1.5181,-1.5357,-1.5676,-1.5798,-1.592,-1.6022,-1.5906,-1.5791,-1.5689,-1.5622,-1.5432,-1.5242,-1.5811,-1.6029,-1.6042,-1.6171,-1.6307,-1.6415,-1.6286,-1.611,-1.5947,-1.5961,-1.594,-1.5845,-1.5466,-1.552,-1.5581,-1.5065,-1.5052,-1.5126,-1.4896,-1.5079,-1.5255,-1.5025,-1.5079,-1.5208,-1.5296,0.0,0.0,0.0,0.0,0.0,0.0,-1.5506,-1.59,0.0,0.0,-1.6592,0.0,0.0,0.0,-1.6714,-1.6734,-1.6815,-1.6971,-1.6917,-1.691,-1.6978,-1.6836,-1.4692,-1.0325,-0.891,-0.7408,-0.5733,-0.7236,-0.9344,-1.2148,-1.4869,-1.6083,-1.6083,-1.6083,-1.6083,-1.6083,-1.6083,-1.6083,-1.6096,-1.6334,-1.6469,-1.6551,-1.6863,-1.7066,-1.7209,-1.7365,-1.7419,-1.7405,-1.4889,-1.5059,-1.516,-1.5072,-1.5255,-1.5513,-1.5805,-1.5913,-1.5988,-1.6069,-1.6144,-1.6178,-1.6144,-1.6205,-1.6218,-1.6151,-1.6103,-1.5974,-1.5716,-1.5696,-1.5601,-1.5377,-1.533,-1.5357,-1.5472,-1.5323,-1.5276,-1.535,-1.5235,-1.5201,-1.5242,-1.5201,-1.5398,-1.5798,-1.592,-1.6076,-1.6239,-1.6096,-1.5934,-1.5771,-1.5689,-1.5615,-1.5601,-1.6069,-1.63,-1.6368,-1.6368,-1.6463,-1.6571,-1.649,-1.6273,-1.6076,-1.6327,-1.6164,-1.5866,-1.5784,-1.5737,-1.5608,-1.512,-1.5147,-1.5215,-1.4835,-1.5045,-1.5269,-1.4977,-1.5086,-1.5262,-1.5337,-1.5086,0.0,0.0,0.0,-1.4855,-1.5004,0.0,-1.5764,0.0,-1.6042,0.0,0.0,0.0,0.0,0.0,-1.6585,-1.6693,-1.6842,-1.6856,-1.687,-1.6917,-1.6768,-1.4444,-0.9704,-0.868,-0.7591,-0.6233,-0.7437,-0.9744,-1.3256,-1.5174,-1.6083,-1.6083,-1.6083,-1.6083,-1.6083,-1.6083,-1.6083,-1.6103,-1.6402,-1.6524,-1.6551,-1.6863,-1.7046,-1.7148,-1.7256,-1.7297,-1.7283,-1.4746,-1.4984,-1.5092,-1.4801,-1.512,-1.5513,-1.5805,-1.5737,-1.5757,-1.6042,-1.5954,-1.5981,-1.6273,-1.6178,-1.6144,-1.6293,-1.6164,-1.6015,-1.5859,-1.5845,-1.5845,-1.5832,-1.5696,-1.5628,-1.5635,-1.5479,-1.5337,-1.5187,-1.5181,-1.5255,-1.5398,-1.5248,-1.535,-1.5662,-1.6103,-1.6218,-1.6103,-1.6381,-1.6578,-1.668,-1.6395,-1.6361,-1.6449,-1.6191,-1.6266,-1.6517,-1.6517,-1.6612,-1.67,-1.6415,-1.6395,-1.6456,-1.6185,-1.6279,-1.6435,-1.6151,-1.6266,-1.6354,-1.5771,-1.5615,-1.5479,-1.4889,-1.4964,-1.5113,-1.4814,-1.5086,-1.5364,-1.5221,-1.5181,-1.5126,-1.4997,-1.497,-1.5011,-1.5153,-1.5316,0.0,0.0,0.0,0.0,0.0,0.0,0.0,0.0,-1.6402,-1.6381,0.0,-1.6537,-1.6598,-1.6748,-1.6612,-1.5283,-1.2492,-0.954,-0.9244,-1.1848,-0.924,-1.0649,-1.5977,-1.6083,-1.6083,-1.6083,-1.6083,-1.6083,-1.6083,-1.6083,-1.6083,-1.6103,-1.6402,-1.6524,-1.6551,-1.6863,-1.6985,-1.6985,-1.6992,-1.6992,-1.6992,-1.4909,-1.5215,-1.5357,-1.4964,-1.5092,-1.5364,-1.5662,-1.5669,-1.5744,-1.6042,-1.5947,-1.5934,-1.6137,-1.611,-1.6103,-1.6151,-1.611,-1.6015,-1.5866,-1.5764,-1.571,-1.571,-1.5567,-1.5486,-1.5486,-1.5438,-1.5337,-1.5181,-1.5181,-1.5262,-1.5404,-1.5255,-1.5343,-1.5655,-1.6001,-1.6185,-1.6246,-1.6435,-1.6497,-1.6449,-1.6347,-1.6395,-1.651,-1.6408,-1.6435,-1.6524,-1.6524,-1.6686,-1.689,-1.6788,-1.6653,-1.6537,-1.6646,-1.6469,-1.6246,-1.6347,-1.6307,-1.6185,-1.5988,-1.6076,-1.6056,-1.5357,-1.5404,-1.5499,-1.5004,-1.5011,-1.5133,-1.5174,-1.5106,-1.5025,-1.4977,-1.5052,-1.5126,-1.5174,-1.5398,-1.5594,0.0,0.0,0.0,0.0,0.0,0.0,0.0,0.0,0.0,0.0,-1.6612,-1.6693,-1.6748,-1.67,-1.5377,-1.26,-1.1425,-1.1215,-1.2048,-1.1144,-1.2552,-1.6083,-1.6083,-1.6083,-1.6083,-1.6083,-1.6083,-1.6083,-1.6083,-1.6083,-1.6103,-1.6402,-1.6524,-1.6551,-1.6863,-1.6978,-1.6978,-1.6978,-1.6978,-1.6978,-1.5153,-1.5404,-1.5499,-1.5052,-1.5133,-1.535,-1.5601,-1.5642,-1.5744,-1.6042,-1.5947,-1.5934,-1.6137,-1.6117,-1.6103,-1.6157,-1.611,-1.6015,-1.5866,-1.5764,-1.5716,-1.5716,-1.5622,-1.5594,-1.5649,-1.5547,-1.5445,-1.5343,-1.5289,-1.5343,-1.5486,-1.5337,-1.5398,-1.5649,-1.5893,-1.6083,-1.6246,-1.6497,-1.6578,-1.6551,-1.6551,-1.6571,-1.6605,-1.6605,-1.6571,-1.6537,-1.6646,-1.6815,-1.6978,-1.6978,-1.6849,-1.672,-1.6917,-1.6714,-1.6442,-1.6632,-1.6551,-1.6374,-1.6266,-1.6374,-1.6368,-1.573,-1.575,-1.5791,-1.5248,-1.5208,-1.5296,-1.5337,-1.5228,-1.5174,-1.5337,-1.5357,-1.5343,-1.5343,-1.5513,0.0,0.0,-1.552,0.0,0.0,0.0,0.0,0.0,0.0,0.0,0.0,0.0,0.0,0.0,-1.672,-1.5847,-1.3939,-1.2893,-1.2669,-1.3555,-1.2547,-1.3456,-1.6083,-1.6083,-1.6083,-1.6083,-1.6083,-1.6083,-1.6083,-1.6083,-1.611,-1.6185,-1.6422,-1.6551,-1.6625,-1.6883,-1.6978,-1.6978,-1.6978,-1.6978,-1.6978,-1.5445,-1.5527,-1.5499,-1.5079,-1.5228,-1.5466,-1.5628,-1.5635,-1.5737,-1.6042,-1.5947,-1.5967,-1.6279,-1.6178,-1.6151,-1.63,-1.6178,-1.6029,-1.5872,-1.5859,-1.5957,-1.5872,-1.5859,-1.5927,-1.609,-1.5798,-1.5642,-1.5642,-1.5479,-1.5479,-1.5628,-1.5472,-1.5479,-1.5635,-1.5778,-1.5934,-1.611,-1.6551,-1.6829,-1.6978,-1.6978,-1.6883,-1.6741,-1.6754,-1.6659,-1.6558,-1.6863,-1.6971,-1.6978,-1.6978,-1.6978,-1.6978,-1.6978,-1.6978,-1.6978,-1.6978,-1.6978,-1.6917,-1.6625,-1.6544,-1.6435,-1.5995,-1.5988,-1.5981,-1.554,-1.5655,-1.5818,-1.5689,-1.5547,-1.5567,-1.5988,-1.5825,-1.5635,0.0,0.0,0.0,0.0,0.0,0.0,0.0,0.0,0.0,0.0,0.0,0.0,0.0,0.0,0.0,0.0,-1.6673,-1.668,-1.6537,-1.3926,-1.3699,-1.6096,-1.3561,-1.3555,-1.6083,-1.6083,-1.6083,-1.6083,-1.6083,-1.6083,-1.6083,-1.609,-1.6178,-1.632,-1.6469,-1.6619,-1.6768,-1.6917,-1.6978,-1.6978,-1.6978,-1.6978,-1.6978,-1.5459,-1.5445,-1.5466,-1.5466,-1.5438,-1.5499,-1.5757,-1.5608,-1.5615,-1.6029,-1.5947,-1.5967,-1.6279,-1.6273,-1.6266,-1.6307,-1.6273,-1.6185,-1.6035,-1.592,-1.5954,-1.6185,-1.5974,-1.5981,-1.6246,-1.5852,-1.5642,-1.5642,-1.5371,-1.5316,-1.5466,-1.5309,-1.5323,-1.5479,-1.5628,-1.5839,-1.6103,-1.6435,-1.6734,-1.6978,-1.6978,-1.6822,-1.6605,-1.6836,-1.6754,-1.6544,-1.6741,-1.6883,-1.6978,-1.6978,-1.6978,-1.6978,-1.6978,-1.6978,-1.6978,-1.6978,-1.6978,-1.6965,-1.6883,-1.6863,-1.6781,-1.6435,-1.63,-1.6191,-1.5961,-1.5879,-1.5872,-1.5954,-1.5934,-1.5879,-1.5771,-1.5689,-1.5567,-1.5337,0.0,0.0,0.0,0.0,0.0,-1.5296,0.0,0.0,0.0,0.0,0.0,0.0,0.0,0.0,0.0,0.0,-1.663,-1.6693,-1.5821,-1.5678,-1.6252,-1.5425,-1.5373,-1.6083,-1.6083,-1.6083,-1.6083,-1.6083,-1.6083,-1.609,-1.6198,-1.6273,-1.6327,-1.6585,-1.6714,-1.6768,-1.6917,-1.6978,-1.6978,-1.6978,-1.6978,-1.6978,-1.5635,-1.5601,-1.5655,-1.5805,-1.5655,-1.5588,-1.5818,-1.5771,-1.5798,-1.6049,-1.6062,-1.6117,-1.6293,-1.6368,-1.6374,-1.6313,-1.6368,-1.6313,-1.6096,-1.6123,-1.6191,-1.6307,-1.6205,-1.6259,-1.6497,-1.613,-1.59,-1.5832,-1.5594,-1.5452,-1.5411,-1.5323,-1.533,-1.5418,-1.5567,-1.5764,-1.6008,-1.6435,-1.668,-1.6788,-1.6924,-1.6876,0.0,-1.6917,-1.687,-1.6734,-1.6822,-1.6904,-1.6978,-1.6978,-1.6978,-1.6978,-1.6978,-1.6978,-1.6978,-1.6978,-1.6978,-1.6978,-1.6978,-1.6978,-1.6937,-1.6768,-1.6666,-1.6544,-1.6327,-1.6205,-1.6151,-1.6178,-1.6076,-1.5988,-1.6022,-1.5757,-1.5438,-1.514,-1.5031,0.0,0.0,0.0,0.0,0.0,-1.5432,0.0,0.0,0.0,0.0,0.0,0.0,0.0,0.0,0.0,-1.6822,-1.6754,-1.6598,-1.6456,-1.6313,-1.6157,-1.6083,-1.6083,-1.6083,-1.6083,-1.6083,-1.6083,-1.6117,-1.6185,-1.6273,-1.6381,-1.6517,-1.668,-1.6788,-1.6863,-1.6944,-1.6978,-1.6978,-1.6978,-1.6978,-1.6978,-1.5859,-1.5866,-1.592,-1.6035,-1.5852,-1.5737,-1.5866,-1.5995,-1.609,-1.611,-1.6246,-1.6347,-1.6368,-1.6476,-1.6503,-1.6381,-1.6483,-1.6435,-1.6157,-1.6381,-1.6476,-1.6374,-1.6469,-1.6605,-1.6775,-1.6469,-1.6232,-1.6083,-1.5906,-1.5676,-1.5377,-1.5377,-1.5377,-1.5391,0.0,0.0,0.0,-1.6497,-1.6666,-1.6605,-1.687,-1.6978,-1.6978,-1.6978,-1.6978,-1.6978,-1.6978,-1.6978,-1.6978,-1.6978,-1.6978,-1.6978,-1.6978,-1.6978,-1.6978,-1.6978,-1.6978,-1.6978,-1.6978,-1.6978,-1.6978,-1.6978,-1.6965,-1.6876,-1.6612,-1.6537,-1.6483,-1.6361,-1.6123,-1.6049,-1.6395,-1.5886,-1.5316,-1.5018,-1.4855,-1.4828,-1.5004,0.0,0.0,0.0,0.0,0.0,0.0,0.0,0.0,0.0,0.0,0.0,0.0,0.0,-1.6849,-1.6651,-1.6585,-1.6435,-1.6313,-1.6157,-1.6083,-1.6083,-1.6083,-1.609,-1.611,-1.611,-1.6191,-1.6341,-1.6361,-1.651,-1.6754,-1.6768,-1.6863,-1.6978,-1.6978,-1.6978,-1.6978,-1.6978,-1.6978,-1.6978,-1.5879,-1.5954,-1.6008,-1.5913,-1.5954,-1.6015,-1.6035,-1.6062,-1.613,-1.6252,-1.6395,-1.653,-1.6659,-1.6693,-1.67,-1.6673,-1.6693,-1.6632,-1.6456,-1.649,-1.6564,-1.6666,-1.6578,-1.6653,-1.6937,-1.6524,-1.6232,-1.6083,-1.5811,-1.552,-1.5221,-1.5221,-1.5221,0.0,0.0,0.0,-1.6408,-1.6517,-1.6693,-1.6904,-1.6958,-1.6978,-1.6978,-1.6978,-1.6978,-1.6978,-1.6978,-1.6978,-1.6978,-1.6978,-1.6978,-1.6978,-1.6978,-1.6978,-1.6978,-1.6978,-1.6978,-1.6978,-1.6978,-1.6978,-1.6978,-1.6978,-1.6883,-1.6775,-1.672,-1.6612,-1.6517,-1.649,-1.6442,-1.6354,-1.6191,-1.575,-1.5316,-1.5018,-1.495,-1.5025,-1.5296,0.0,0.0,0.0,0.0,-1.5689,0.0,0.0,0.0,0.0,0.0,0.0,0.0,0.0,0.0,0.0,-1.649,-1.6334,-1.6307,-1.6157,-1.6083,-1.6083,-1.6083,-1.6151,-1.6273,-1.6273,-1.6347,-1.649,-1.6619,-1.67,-1.6761,-1.689,-1.6958,-1.6978,-1.6978,-1.6978,-1.6978,-1.6978,-1.6978,-1.6978,-1.6103,-1.6151,-1.6178,-1.6103,-1.6083,-1.611,-1.6191,-1.6259,-1.6313,-1.6307,-1.6503,-1.6666,-1.6741,-1.6822,-1.6836,-1.6754,-1.6822,-1.6802,-1.6653,-1.6714,-1.6795,-1.687,-1.6795,-1.6829,-1.6978,-1.6768,-1.6469,-1.6083,-1.594,-1.5635,-1.5181,-1.5181,-1.5221,-1.5316,0.0,-1.5981,0.0,-1.651,-1.668,-1.6754,-1.6917,-1.6978,-1.6978,-1.6978,-1.6978,-1.6978,-1.6978,-1.6978,-1.6978,-1.6978,-1.6978,-1.6978,-1.6978,-1.6978,-1.6978,-1.6978,-1.6978,-1.6965,-1.6883,-1.6863,-1.6842,-1.6761,-1.6686,-1.6632,-1.6632,-1.6571,-1.6503,-1.6429,-1.6415,-1.63,-1.592,-1.5608,-1.5337,-1.512,-1.5018,-1.5072,-1.5371,0.0,-1.5384,0.0,0.0,0.0,0.0,0.0,0.0,0.0,0.0,0.0,0.0,0.0,0.0,0.0,0.0,-1.6307,-1.6307,-1.6157,-1.6083,-1.6083,-1.6164,-1.6239,-1.6313,-1.6388,-1.6503,-1.6646,-1.672,-1.6795,-1.6876,-1.6951,-1.6978,-1.6978,-1.6978,-1.6978,-1.6978,-1.6978,-1.6978,-1.6978,-1.6313,-1.6334,-1.6334,-1.6273,-1.6191,-1.6171,-1.6293,-1.6456,-1.653,-1.6415,-1.6632,-1.6802,-1.6802,-1.691,-1.6931,-1.6809,-1.691,-1.6931,-1.6809,-1.691,-1.6978,-1.6978,-1.6978,-1.6978,-1.6978,-1.6978,-1.6714,-1.6178,-1.611,-1.5805,-1.5276,-1.5215,-1.5296,-1.552,-1.5845,-1.6008,-1.6076,-1.6517,-1.6666,-1.6639,-1.6883,-1.6978,-1.6978,-1.6978,-1.6978,-1.6978,-1.6978,-1.6978,-1.6978,-1.6978,-1.6978,-1.6978,-1.6978,-1.6978,-1.6971,-1.6944,-1.6931,-1.6897,-1.6741,-1.67,-1.6673,-1.6551,-1.6497,-1.6476,-1.6476,-1.6449,-1.6395,-1.6286,-1.6259,-1.6144,-1.5757,-1.5615,-1.5499,-1.535,-1.5208,-1.5215,-1.5513,0.0,0.0,0.0,0.0,0.0,-1.6069,0.0,0.0,0.0,0.0,0.0,0.0,0.0,0.0,0.0,0.0,-1.6259,-1.6259,-1.6144,-1.6083,-1.6083,-1.6239,-1.6327,-1.6361,-1.6503,-1.6653,-1.6802,-1.6802,-1.687,-1.6978,-1.6978,-1.6978,-1.6978,-1.6978,-1.6978,-1.6978,-1.6978,-1.6978,-1.6978,-1.6334,-1.6415,-1.6415,-1.6151,-1.6205,-1.6293,-1.6307,-1.6544,-1.672,-1.6714,-1.6856,-1.6958,-1.6958,-1.6971,-1.6978,-1.6958,-1.6971,-1.6978,-1.6958,-1.6971,-1.6978,-1.6978,-1.6978,-1.6978,-1.6978,-1.6978,-1.6815,-1.6483,-1.6212,-1.5913,-1.5588,-1.5309,-1.5411,-1.5805,-1.5716,-1.6049,-1.6659,-1.6578,-1.6693,-1.6937,-1.6971,-1.6978,-1.6978,-1.6978,-1.6978,-1.6978,-1.6978,-1.6978,-1.6978,-1.6978,-1.6978,-1.6978,-1.6978,-1.6978,-1.6951,-1.6809,-1.6768,-1.6741,-1.6585,-1.6544,-1.6537,-1.6524,-1.6422,-1.6327,-1.6327,-1.6225,-1.6117,-1.6103,-1.6103,-1.6049,-1.5866,-1.5934,-1.5967,-1.5818,-1.5669,-1.5683,-1.5974,-1.5791,-1.573,-1.6022,0.0,0.0,0.0,-1.5839,0.0,0.0,0.0,0.0,0.0,0.0,0.0,-1.6347,-1.6191,-1.6103,-1.6103,-1.609,-1.6083,-1.6083,-1.6239,-1.6374,-1.651,-1.6659,-1.6815,-1.6958,-1.6958,-1.6965,-1.6978,-1.6978,-1.6978,-1.6978,-1.6978,-1.6978,-1.6978,-1.6978,-1.6978,-1.6978,-1.632,-1.6354,-1.6381,-1.6347,-1.6327,-1.6368,-1.6544,-1.6673,-1.6781,-1.6876,-1.6944,-1.6978,-1.6978,-1.6978,-1.6978,-1.6978,-1.6978,-1.6978,-1.6978,-1.6978,-1.6978,-1.6978,-1.6978,-1.6978,-1.6978,-1.6978,-1.6829,-1.6524,-1.632,-1.6062,-1.5764,-1.5642,-1.573,-1.6001,-1.6212,-1.6422,-1.6619,-1.6741,-1.687,-1.6978,-1.6978,-1.6978,-1.6978,-1.6978,-1.6978,-1.6978,-1.6978,-1.6917,-1.6842,-1.6842,-1.6904,-1.6978,-1.6978,-1.6917,-1.6829,-1.6768,-1.6686,-1.6578,-1.6435,-1.6395,-1.6374,-1.6279,-1.6218,-1.6171,-1.6171,-1.6123,-1.6083,-1.6083,-1.6083,-1.6062,-1.6001,-1.5967,-1.5954,-1.5988,-1.5866,-1.5839,-1.6049,-1.6056,0.0,-1.632,0.0,0.0,0.0,0.0,0.0,0.0,0.0,0.0,0.0,0.0,0.0,-1.6307,0.0,-1.6083,-1.6083,-1.6083,-1.613,-1.6218,-1.6368,-1.6517,-1.6666,-1.6815,-1.6924,-1.6978,-1.6978,-1.6978,-1.6978,-1.6978,-1.6978,-1.6978,-1.6978,-1.6978,-1.6978,-1.6978,-1.6978,-1.6978,-1.63,-1.6307,-1.6327,-1.6381,-1.6381,-1.6442,-1.6653,-1.6761,-1.6856,-1.6965,-1.6978,-1.6978,-1.6978,-1.6978,-1.6978,-1.6978,-1.6978,-1.6978,-1.6978,-1.6978,-1.6978,-1.6978,-1.6978,-1.6978,-1.6978,-1.6978,-1.6876,-1.6653,-1.6463,-1.6259,-1.6049,-1.5961,-1.6022,-1.6225,-1.6544,-1.6673,-1.6673,-1.689,-1.6978,-1.6978,-1.6978,-1.6978,-1.6978,-1.6978,-1.6978,-1.6978,-1.6931,-1.6842,-1.6637,-1.67,-1.6754,-1.6849,-1.6849,-1.6768,-1.6673,-1.6632,-1.6544,-1.6429,-1.6279,-1.6246,-1.6218,-1.611,-1.6083,-1.6083,-1.6083,-1.6083,-1.6083,-1.6083,-1.6083,-1.6083,-1.6083,-1.5995,-1.5954,-1.6062,-1.5988,-1.5961,-1.6069,-1.6212,0.0,-1.6388,-1.6449,-1.6537,-1.6673,-1.6341,0.0,0.0,0.0,0.0,0.0,-1.6239,0.0,0.0,-1.6137,-1.6083,-1.6083,-1.6123,-1.6205,-1.6313,-1.6503,-1.6646,-1.6754,-1.691,-1.6978,-1.6978,-1.6978,-1.6978,-1.6978,-1.6978,-1.6978,-1.6978,-1.6978,-1.6978,-1.6978,-1.6978,-1.6978,-1.6978,-1.6279,-1.6307,-1.6259,-1.611,-1.6327,-1.6517,-1.6524,-1.6781,-1.6978,-1.6978,-1.6978,-1.6978,-1.6978,-1.6978,-1.6978,-1.6978,-1.6978,-1.6978,-1.6978,-1.6978,-1.6978,-1.6978,-1.6978,-1.6978,-1.6978,-1.6978,-1.6978,-1.6978,-1.6666,-1.6517,-1.651,-1.6218,-1.6232,-1.6517,-1.6524,-1.6693,-1.6978,-1.6978,-1.6978,-1.6978,-1.6978,-1.6978,-1.6978,-1.6978,-1.6978,-1.6958,-1.6809,-1.6754,-1.6727,-1.6578,-1.6524,-1.6524,-1.6524,-1.6524,-1.6497,-1.6354,-1.6313,-1.6279,-1.6123,-1.6083,-1.6083,-1.6083,-1.6083,-1.6083,-1.6083,-1.6083,-1.6083,-1.6083,-1.6083,-1.6083,-1.6083,-1.6083,-1.6083,-1.6083,-1.6083,-1.6083,-1.6083,-1.6212,-1.6252,-1.6103,-1.5954,-1.6035,-1.6483,-1.5995,0.0,0.0,0.0,0.0,-1.6096,-1.6225,-1.6239,-1.609,-1.6083,-1.6083,-1.6083,-1.6232,-1.6307,-1.6313,-1.6605,-1.6748,-1.6754,-1.691,-1.6978,-1.6978,-1.6978,-1.6978,-1.6978,-1.6978,-1.6978,-1.6978,-1.6978,-1.6978,-1.6978,-1.6978,-1.6978,-1.6978,-1.6123,-1.6239,-1.6354,-1.651,-1.6612,-1.6714,-1.6815,-1.6917,-1.6978,-1.6978,-1.6978,-1.6978,-1.6978,-1.6978,-1.6978,-1.6978,-1.6978,-1.6978,-1.6978,-1.6978,-1.6978,-1.6978,-1.6978,-1.6978,-1.6978,-1.6978,-1.6978,-1.6978,-1.6775,-1.668,-1.6673,-1.6578,-1.6646,-1.6836,-1.6836,-1.689,-1.6978,-1.6978,-1.6978,-1.6978,-1.6978,-1.6978,-1.6978,-1.6978,-1.6917,-1.6815,-1.6768,-1.6619,-1.6442,-1.6395,-1.6307,-1.6225,-1.6225,-1.6293,-1.6368,-1.6327,-1.6239,-1.6144,-1.6096,-1.6083,-1.6083,-1.6083,-1.6083,-1.6083,-1.6083,-1.6083,-1.6083,-1.6083,-1.6083,-1.6083,-1.6083,-1.6083,-1.6083,-1.6083,-1.6083,-1.6083,-1.6083,-1.6212,-1.6327,-1.6374,-1.6429,-1.6564,-1.6809,-1.6476,-1.6341,0.0,0.0,0.0,-1.6232,-1.6286,-1.6239,-1.609,-1.6083,-1.6083,-1.6083,-1.6232,-1.6361,-1.6456,-1.6653,-1.6802,-1.691,-1.6958,-1.6978,-1.6978,-1.6978,-1.6978,-1.6978,-1.6978,-1.6978,-1.6978,-1.6978,-1.6978,-1.6978,-1.6978,-1.6978,-1.6978,-1.6218,-1.6327,-1.6449,-1.6632,-1.6714,-1.6781,-1.6876,-1.6944,-1.6978,-1.6978,-1.6978,-1.6978,-1.6978,-1.6978,-1.6978,-1.6978,-1.6978,-1.6978,-1.6978,-1.6978,-1.6978,-1.6978,-1.6978,-1.6978,-1.6978,-1.6978,-1.6978,-1.6978,-1.6883,-1.6836,-1.6836,-1.6836,-1.689,-1.6978,-1.6978,-1.6978,-1.6978,-1.6978,-1.6978,-1.6978,-1.6978,-1.6978,-1.6971,-1.6917,-1.6836,-1.6734,-1.6625,-1.6469,-1.63,-1.6246,-1.6157,-1.6083,-1.6083,-1.6144,-1.6225,-1.6225,-1.6157,-1.6083,-1.6083,-1.6083,-1.6083,-1.6083,-1.6083,-1.6083,-1.6083,-1.6083,-1.6083,-1.6083,-1.6083,-1.6083,-1.6083,-1.6083,-1.6083,-1.6083,-1.6083,-1.6083,-1.6083,-1.6212,-1.632,-1.6354,-1.649,-1.6646,-1.6795,-1.6632,-1.6571,-1.6686,0.0,0.0,-1.6388,-1.6286,-1.6178,-1.6083,-1.6083,-1.611,-1.6164,-1.6313,-1.6463,-1.6612,-1.6761,-1.689,-1.6978,-1.6978,-1.6978,-1.6978,-1.6978,-1.6978,-1.6978,-1.6978,-1.6978,-1.6978,-1.6978,-1.6978,-1.6978,-1.6978,-1.6978,-1.6978,-1.651,-1.6537,-1.6537,-1.6551,-1.6673,-1.6768,-1.6768,-1.689,-1.6978,-1.6978,-1.6978,-1.6978,-1.6978,-1.6978,-1.6978,-1.6978,-1.6978,-1.6978,-1.6978,-1.6978,-1.6978,-1.6978,-1.6978,-1.6978,-1.6978,-1.6978,-1.6978,-1.6978,-1.6978,-1.6978,-1.6978,-1.6978,-1.6978,-1.6978,-1.6978,-1.6978,-1.6978,-1.6978,-1.6978,-1.6978,-1.6978,-1.6971,-1.6951,-1.6802,-1.6734,-1.668,-1.6408,-1.63,-1.6273,-1.613,-1.6083,-1.6083,-1.6083,-1.6083,-1.6083,-1.6083,-1.6083,-1.6083,-1.6083,-1.6083,-1.6083,-1.6083,-1.6083,-1.6083,-1.6083,-1.6083,-1.6083,-1.6083,-1.6083,-1.6083,-1.6083,-1.6083,-1.6083,-1.6083,-1.6083,-1.6083,-1.6083,-1.6205,-1.6246,-1.613,-1.6239,-1.6381,-1.6537,-1.6551,-1.6666,-1.6944,-1.6951,-1.6822,-1.6524,-1.6246,-1.609,-1.6083,-1.609,-1.6164,-1.6307,-1.6463,-1.6612,-1.6768,-1.691,-1.6978,-1.6978,-1.6978,-1.6978,-1.6978,-1.6978,-1.6978,-1.6978,-1.6978,-1.6978,-1.6978,-1.6978,-1.6978,-1.6978,-1.6978,-1.6978,-1.6985,-1.6666,-1.6693,-1.6734,-1.6849,-1.6904,-1.6924,-1.6924,-1.6958,-1.6978,-1.6978,-1.6978,-1.6978,-1.6978,-1.6978,-1.6978,-1.6978,-1.6978,-1.6978,-1.6978,-1.6978,-1.6978,-1.6978,-1.6978,-1.6978,-1.6978,-1.6978,-1.6978,-1.6978,-1.6978,-1.6978,-1.6978,-1.6978,-1.6978,-1.6978,-1.6978,-1.6978,-1.6978,-1.6978,-1.6978,-1.6978,-1.6978,-1.691,-1.6802,-1.6761,-1.6612,-1.6402,-1.6334,-1.6232,-1.613,-1.6096,-1.6083,-1.6083,-1.6083,-1.6083,-1.6083,-1.6083,-1.6083,-1.6083,-1.6083,-1.6083,-1.6083,-1.6083,-1.6083,-1.6083,-1.6083,-1.6083,-1.6083,-1.6083,-1.6083,-1.6083,-1.6083,-1.6083,-1.6083,-1.6083,-1.6083,-1.6083,-1.6083,-1.611,-1.6205,-1.6395,-1.6449,-1.6578,-1.6849,-1.687,-1.6856,-1.6809,-1.6693,-1.6551,-1.6368,-1.6293,-1.6205,-1.6083,-1.6198,-1.6273,-1.6307,-1.6564,-1.6775,-1.6924,-1.6965,-1.6978,-1.6978,-1.6978,-1.6978,-1.6978,-1.6978,-1.6978,-1.6978,-1.6978,-1.6978,-1.6978,-1.6978,-1.6978,-1.6978,-1.6978,-1.6978,-1.6998,-1.6836,-1.6856,-1.6883,-1.6965,-1.6978,-1.6978,-1.6978,-1.6978,-1.6978,-1.6978,-1.6978,-1.6978,-1.6978,-1.6978,-1.6978,-1.6978,-1.6978,-1.6978,-1.6978,-1.6978,-1.6978,-1.6978,-1.6978,-1.6978,-1.6978,-1.6978,-1.6978,-1.6978,-1.6978,-1.6978,-1.6978,-1.6978,-1.6978,-1.6978,-1.6978,-1.6978,-1.6978,-1.6978,-1.6937,-1.6876,-1.6876,-1.6781,-1.6639,-1.6571,-1.6449,-1.63,-1.6232,-1.6151,-1.609,-1.6164,-1.6137,-1.6096,-1.6164,-1.6137,-1.6083,-1.6083,-1.6083,-1.6083,-1.6083,-1.6083,-1.6083,-1.6083,-1.6083,-1.6083,-1.6083,-1.6083,-1.6083,-1.6083,-1.6083,-1.6083,-1.6083,-1.6083,-1.6083,-1.6083,-1.6083,-1.6103,-1.6178,-1.6185,-1.6293,-1.6592,-1.6625,-1.672,-1.6958,-1.6978,-1.6944,-1.6863,-1.6714,-1.6592,-1.6517,-1.6442,-1.6341,-1.6191,-1.6327,-1.6442,-1.651,-1.6741,-1.6897,-1.6978,-1.6978,-1.6978,-1.6978,-1.6978,-1.6978,-1.6978,-1.6978,-1.6978,-1.6978,-1.6978,-1.6978,-1.6978,-1.6978,-1.6978,-1.6978,-1.6978,-1.7019,-1.7087,-1.6978,-1.6978,-1.6978,-1.6978,-1.6978,-1.6978,-1.6978,-1.6978,-1.6978,-1.6978,-1.6978,-1.6978,-1.6978,-1.6978,-1.6978,-1.6978,-1.6978,-1.6978,-1.6978,-1.6978,-1.6978,-1.6978,-1.6978,-1.6978,-1.6978,-1.6978,-1.6978,-1.6978,-1.6978,-1.6978,-1.6978,-1.6978,-1.6978,-1.6978,-1.6978,-1.6978,-1.6978,-1.6958,-1.687,-1.6748,-1.6727,-1.6625,-1.6476,-1.6354,-1.6307,-1.6293,-1.6164,-1.613,-1.6164,-1.6273,-1.6225,-1.6137,-1.6239,-1.6185,-1.6083,-1.6083,-1.6083,-1.6083,-1.6083,-1.6083,-1.6083,-1.6083,-1.6083,-1.6083,-1.6083,-1.6083,-1.6083,-1.6083,-1.6096,-1.6117,-1.6117,-1.6137,-1.6144,-1.6123,-1.6137,-1.6185,-1.6293,-1.6327,-1.6442,-1.672,-1.6748,-1.6809,-1.6965,-1.6978,-1.6978,-1.6978,-1.6815,-1.6727,-1.6748,-1.6605,-1.6476,-1.6381,-1.649,-1.6625,-1.6781,-1.6917,-1.6978,-1.6978,-1.6978,-1.6978,-1.6978,-1.6978,-1.6978,-1.6978,-1.6978,-1.6978,-1.6978,-1.6978,-1.6978,-1.6978,-1.6978,-1.6978,-1.6985,-1.7005,-1.7087,-1.7202,-1.6978,-1.6978,-1.6978,-1.6978,-1.6978,-1.6978,-1.6978,-1.6978,-1.6978,-1.6978,-1.6978,-1.6978,-1.6978,-1.6978,-1.6978,-1.6978,-1.6978,-1.6978,-1.6978,-1.6978,-1.6978,-1.6978,-1.6978,-1.6978,-1.6978,-1.6978,-1.6978,-1.6978,-1.6978,-1.6978,-1.6978,-1.6978,-1.6978,-1.6978,-1.6978,-1.6978,-1.6971,-1.6842,-1.6768,-1.6741,-1.6612,-1.6469,-1.6341,-1.632,-1.6307,-1.6307,-1.6286,-1.6354,-1.6435,-1.6341,-1.6293,-1.6252,-1.6151,-1.6103,-1.6083,-1.6083,-1.6083,-1.6083,-1.6083,-1.6083,-1.6083,-1.6083,-1.6083,-1.6083,-1.6083,-1.6083,-1.6083,-1.6083,-1.6185,-1.6273,-1.6273,-1.6374,-1.6415,-1.6293,-1.6374,-1.6422,-1.6327,-1.6415,-1.6551,-1.6727,-1.6748,-1.6809,-1.6965,-1.6978,-1.6978,-1.6978,-1.672,-1.6612,-1.6637,-1.6605,-1.6571,-1.668,-1.67,-1.6788,-1.6944,-1.6971,-1.6978,-1.6978,-1.6978,-1.6978,-1.6978,-1.6978,-1.6978,-1.6978,-1.6978,-1.6978,-1.6978,-1.6978,-1.6978,-1.6978,-1.6978,-1.6978,-1.6992,-1.7114,-1.7175,-1.7229,-1.6978,-1.6978,-1.6978,-1.6978,-1.6978,-1.6978,-1.6978,-1.6978,-1.6978,-1.6978,-1.6978,-1.6978,-1.6978,-1.6978,-1.6978,-1.6978,-1.6978,-1.6978,-1.6978,-1.6978,-1.6978,-1.6978,-1.6978,-1.6978,-1.6978,-1.6978,-1.6978,-1.6978,-1.6978,-1.6978,-1.6978,-1.6978,-1.6937,-1.6863,-1.6944,-1.6937,-1.6849,-1.6781,-1.67,-1.6619,-1.6551,-1.6435,-1.632,-1.6395,-1.6422,-1.6422,-1.6422,-1.6463,-1.6524,-1.6537,-1.649,-1.6415,-1.6341,-1.6266,-1.6191,-1.6103,-1.6083,-1.6083,-1.6083,-1.6083,-1.6083,-1.6083,-1.6083,-1.6103,-1.6185,-1.6205,-1.6225,-1.63,-1.6374,-1.6422,-1.6422,-1.6476,-1.6503,-1.6435,-1.6476,-1.6524,-1.6544,-1.6605,-1.67,-1.6856,-1.6876,-1.6904,-1.6971,-1.6978,-1.6978,-1.6978,-1.6775,-1.6714,-1.6863,-1.6727,-1.6714,-1.687,-1.6876,-1.691,-1.6978,-1.6978,-1.6978,-1.6978,-1.6978,-1.6978,-1.6978,-1.6978,-1.6978,-1.6978,-1.6978,-1.6978,-1.6978,-1.6978,-1.6978,-1.6978,-1.6978,-1.6978,-1.6998,-1.7141,-1.7243,-1.7344,-1.6978,-1.6978,-1.6978,-1.6978,-1.6978,-1.6978,-1.6978,-1.6978,-1.6978,-1.6978,-1.6978,-1.6978,-1.6978,-1.6978,-1.6978,-1.6978,-1.6978,-1.6978,-1.6978,-1.6978,-1.6978,-1.6978,-1.6978,-1.6978,-1.6978,-1.6978,-1.6978,-1.6978,-1.6978,-1.6978,-1.6978,-1.7012,-1.6965,-1.6856,-1.7012,-1.7019,-1.6904,-1.6836,-1.6734,-1.6619,-1.6551,-1.6456,-1.6374,-1.6476,-1.6544,-1.6571,-1.6571,-1.6598,-1.6639,-1.672,-1.6673,-1.6571,-1.653,-1.6422,-1.6286,-1.6171,-1.611,-1.6083,-1.6083,-1.6083,-1.609,-1.6123,-1.6137,-1.6178,-1.6327,-1.6361,-1.6388,-1.6497,-1.6551,-1.6571,-1.6571,-1.6605,-1.6619,-1.6578,-1.6605,-1.6659,-1.6734,-1.6781,-1.6849,-1.6965,-1.6978,-1.6978,-1.6978,-1.6978,-1.6965,-1.6931,-1.6815,-1.6802,-1.6917,-1.6815,-1.6822,-1.6978,-1.6978,-1.6978,-1.6978,-1.6978,-1.6978,-1.6978,-1.6978,-1.6978,-1.6978,-1.6978,-1.6978,-1.6978,-1.6978,-1.6978,-1.6978,-1.6978,-1.6978,-1.6978,-1.6978,-1.6978,-1.7005,-1.7182,-1.7317,-1.7446,-1.6978,-1.6978,-1.6978,-1.6978,-1.6978,-1.6978,-1.6978,-1.6978,-1.6978,-1.6978,-1.6978,-1.6978,-1.6978,-1.6978,-1.6978,-1.6978,-1.6978,-1.6978,-1.6978,-1.6978,-1.6978,-1.6978,-1.6978,-1.6978,-1.6978,-1.6978,-1.6978,-1.6978,-1.6978,-1.6978,-1.6985,-1.7114,-1.7168,-1.7168,-1.7317,-1.7378,-1.7351,-1.708,-1.6958,-1.6924,-1.6639,-1.6517,-1.651,-1.6517,-1.6612,-1.6734,-1.6734,-1.6822,-1.6924,-1.6795,-1.6637,-1.6707,-1.6564,-1.6422,-1.6307,-1.6293,-1.6191,-1.6083,-1.6083,-1.6083,-1.6117,-1.6259,-1.6293,-1.6334,-1.6476,-1.6503,-1.651,-1.6517,-1.6632,-1.6734,-1.6734,-1.6849,-1.6897,-1.6754,-1.6856,-1.6904,-1.6768,-1.6876,-1.6971,-1.6978,-1.6978,-1.6978,-1.6978,-1.6978,-1.6924,-1.6781,-1.6754,-1.6754,-1.6768,-1.6754,-1.6822,-1.6978,-1.6978,-1.6978,-1.6978,-1.6978,-1.6978,-1.6978,-1.6978,-1.6978,-1.6978,-1.6978,-1.6978,-1.6978,-1.6978,-1.6978,-1.6978,-1.6978,-1.6978,-1.6978,-1.6978,-1.6978,-1.7019,-1.7297,-1.7412,-1.746,-1.6978,-1.6978,-1.6978,-1.6978,-1.6978,-1.6978,-1.6978,-1.6978,-1.6978,-1.6978,-1.6978,-1.6978,-1.6978,-1.6978,-1.6978,-1.6978,-1.6978,-1.6978,-1.6978,-1.6978,-1.6978,-1.6978,-1.6978,-1.6978,-1.6978,-1.6978,-1.6978,-1.6978,-1.6978,-1.7026,-1.7114,-1.7168,-1.7195,-1.7202,-1.7351,-1.7317,-1.7141,-1.7026,-1.6924,-1.6829,-1.6707,-1.6666,-1.6673,-1.6768,-1.6842,-1.6897,-1.6897,-1.6931,-1.6971,-1.691,-1.6897,-1.6863,-1.6714,-1.6625,-1.6564,-1.6469,-1.6341,-1.6225,-1.6225,-1.6151,-1.6096,-1.6151,-1.6239,-1.6347,-1.649,-1.6592,-1.6693,-1.6788,-1.6856,-1.6897,-1.6897,-1.6944,-1.6992,-1.7019,-1.7073,-1.7093,-1.7032,-1.7073,-1.7046,-1.6863,-1.6924,-1.6944,-1.6849,-1.6836,-1.6849,-1.689,-1.6802,-1.6795,-1.689,-1.6897,-1.6917,-1.6978,-1.6978,-1.6978,-1.6978,-1.6978,-1.6978,-1.6978,-1.6978,-1.6978,-1.6978,-1.6978,-1.6978,-1.6978,-1.6978,-1.6978,-1.6978,-1.6978,-1.6978,-1.6978,-1.6978,-1.6978,-1.7019,-1.7311,-1.7419,-1.746,-1.6978,-1.6978,-1.6978,-1.6978,-1.6978,-1.6978,-1.6978,-1.6978,-1.6978,-1.6978,-1.6978,-1.6978,-1.6978,-1.6978,-1.6978,-1.6978,-1.6978,-1.6978,-1.6978,-1.6978,-1.6978,-1.6978,-1.6978,-1.7005,-1.7046,-1.7046,-1.7073,-1.7121,-1.7121,-1.7168,-1.7263,-1.7311,-1.7311,-1.727,-1.7473,-1.7392,-1.7121,-1.7121,-1.7032,-1.6883,-1.6842,-1.6822,-1.6836,-1.6937,-1.6978,-1.6978,-1.6978,-1.6978,-1.6978,-1.6978,-1.6978,-1.6965,-1.6856,-1.6788,-1.672,-1.6564,-1.6449,-1.6374,-1.6374,-1.63,-1.6218,-1.6218,-1.6334,-1.6483,-1.6632,-1.6748,-1.6849,-1.6958,-1.6978,-1.6992,-1.7039,-1.7046,-1.708,-1.7175,-1.7195,-1.7175,-1.7134,-1.7127,-1.7053,-1.6842,-1.687,-1.6883,-1.6829,-1.6734,-1.6741,-1.6897,-1.6809,-1.6815,-1.6971,-1.6978,-1.6978,-1.6978,-1.6978,-1.6978,-1.6978,-1.6978,-1.6978,-1.6978,-1.6978,-1.6978,-1.6978,-1.6978,-1.6978,-1.6978,-1.6978,-1.6978,-1.6978,-1.6978,-1.6978,-1.6978,-1.6978,-1.6978,-1.7019,-1.7311,-1.7419,-1.746,-1.6985,-1.6985,-1.6985,-1.6985,-1.6978,-1.6978,-1.6978,-1.6978,-1.6978,-1.6978,-1.6978,-1.6978,-1.6978,-1.6978,-1.6978,-1.6978,-1.6978,-1.6978,-1.6978,-1.6985,-1.6985,-1.6985,-1.6985,-1.7046,-1.7188,-1.7195,-1.727,-1.7419,-1.7419,-1.7419,-1.7426,-1.7575,-1.7568,-1.7433,-1.7724,-1.7704,-1.7419,-1.7419,-1.7331,-1.7175,-1.7039,-1.6978,-1.6978,-1.6978,-1.6978,-1.6978,-1.6978,-1.6978,-1.6978,-1.6978,-1.6978,-1.6978,-1.6978,-1.6876,-1.672,-1.6571,-1.6524,-1.6524,-1.6524,-1.6524,-1.6524,-1.6524,-1.6639,-1.6788,-1.6944,-1.6978,-1.6978,-1.6985,-1.6978,-1.7026,-1.7168,-1.7188,-1.7188,-1.7195,-1.7195,-1.7141,-1.7005,-1.6985,-1.6978,-1.6978,-1.6842,-1.6809,-1.6965,-1.67,-1.6585,-1.6734,-1.6754,-1.6822,-1.6971,-1.6978,-1.6978,-1.6978,-1.6978,-1.6978,-1.6978,-1.6978,-1.6978,-1.6978,-1.6978,-1.6978,-1.6978,-1.6978,-1.6978,-1.6978,-1.6978,-1.6978,-1.6978,-1.6978,-1.6978,-1.6978,-1.6978,-1.6978,-1.7019,-1.7311,-1.7419,-1.7467,-1.729,-1.7202,-1.7127,-1.7127,-1.7046,-1.6978,-1.6978,-1.6978,-1.6978,-1.6978,-1.6978,-1.6978,-1.6978,-1.6978,-1.6978,-1.6978,-1.6978,-1.6978,-1.6978,-1.7073,-1.7127,-1.7127,-1.7127,-1.7202,-1.7351,-1.7351,-1.7372,-1.7419,-1.7419,-1.7419,-1.7419,-1.7467,-1.7467,-1.7426,-1.7514,-1.7446,-1.7263,-1.7263,-1.7175,-1.7039,-1.6998,-1.6978,-1.6978,-1.6978,-1.6978,-1.6978,-1.6978,-1.6978,-1.6978,-1.6978,-1.6978,-1.6978,-1.6978,-1.6951,-1.6904,-1.6856,-1.6768,-1.668,-1.668,-1.668,-1.6659,-1.6544,-1.6639,-1.6761,-1.6809,-1.6904,-1.7012,-1.7107,-1.7053,-1.7026,-1.7168,-1.7114,-1.7073,-1.7175,-1.7195,-1.7175,-1.7134,-1.7127,-1.7053,-1.6842,-1.6876,-1.6842,-1.6673,-1.6673,-1.67,-1.6748,-1.6849,-1.6931,-1.6978,-1.6978,-1.6978,-1.6978,-1.6978,-1.6978,-1.6978,-1.6978,-1.6978,-1.6978,-1.6978,-1.6978,-1.6978,-1.6978,-1.6978,-1.6978,-1.6978,-1.6978,-1.6978,-1.6978,-1.6978,-1.6978,-1.6978,-1.7039,-1.7154,-1.7351,-1.7487,-1.7609,-1.7249,-1.7175,-1.7107,-1.7107,-1.7039,-1.6978,-1.6978,-1.6978,-1.6978,-1.6978,-1.6978,-1.6978,-1.6978,-1.6978,-1.6978,-1.6978,-1.6978,-1.6978,-1.6978,-1.7114,-1.7216,-1.7283,-1.7338,-1.7419,-1.7507,-1.7507,-1.7541,-1.7595,-1.7595,-1.7595,-1.7595,-1.7534,-1.7507,-1.7507,-1.7507,-1.7426,-1.7283,-1.7283,-1.7195,-1.706,-1.7005,-1.6978,-1.6978,-1.6978,-1.6978,-1.6978,-1.6978,-1.6978,-1.6978,-1.6978,-1.6978,-1.6978,-1.6978,-1.6978,-1.6978,-1.6978,-1.6951,-1.691,-1.6856,-1.6883,-1.689,-1.6741,-1.6775,-1.6856,-1.691,-1.6998,-1.7107,-1.7249,-1.7168,-1.7107,-1.7256,-1.7161,-1.7093,-1.7175,-1.7195,-1.7175,-1.7114,-1.7107,-1.7039,-1.6863,-1.687,-1.6842,-1.6714,-1.6673,-1.6686,-1.6748,-1.6897,-1.6978,-1.6978,-1.6978,-1.6978,-1.6978,-1.6978,-1.6978,-1.6978,-1.6978,-1.6978,-1.6978,-1.6978,-1.6978,-1.6978,-1.6978,-1.6978,-1.6978,-1.6978,-1.6978,-1.6978,-1.6978,-1.6978,-1.6985,-1.7039,-1.7114,-1.7216,-1.7433,-1.7568,-1.767,-1.7019,-1.7012,-1.6998,-1.6998,-1.6992,-1.6978,-1.6978,-1.6978,-1.6978,-1.6978,-1.6978,-1.6978,-1.6978,-1.6978,-1.6978,-1.6978,-1.6978,-1.6985,-1.6998,-1.7134,-1.7283,-1.7433,-1.7589,-1.767,-1.767,-1.767,-1.7738,-1.786,-1.786,-1.7846,-1.7826,-1.7704,-1.7629,-1.7609,-1.7623,-1.7548,-1.7419,-1.7405,-1.7317,-1.7182,-1.7039,-1.6978,-1.6978,-1.6978,-1.6978,-1.6978,-1.6978,-1.6978,-1.6978,-1.6978,-1.6978,-1.6978,-1.6978,-1.6978,-1.6985,-1.6998,-1.708,-1.7148,-1.7032,-1.7087,-1.7148,-1.7026,-1.6998,-1.7032,-1.7161,-1.7202,-1.7249,-1.7392,-1.7297,-1.7236,-1.7372,-1.7277,-1.7175,-1.7175,-1.7175,-1.7127,-1.6998,-1.6978,-1.6978,-1.6978,-1.6856,-1.6822,-1.6944,-1.6707,-1.6605,-1.6761,-1.6904,-1.6978,-1.6978,-1.6978,-1.6978,-1.6978,-1.6978,-1.6978,-1.6978,-1.6978,-1.6978,-1.6978,-1.6978,-1.6978,-1.6978,-1.6978,-1.6978,-1.6978,-1.6978,-1.6978,-1.6978,-1.6978,-1.6978,-1.6992,-1.7141,-1.7202,-1.7249,-1.7541,-1.765,-1.7684,-1.7324,-1.7229,-1.7148,-1.7148,-1.7053,-1.6978,-1.6978,-1.6978,-1.6978,-1.6978,-1.6978,-1.6978,-1.6978,-1.6978,-1.6978,-1.6978,-1.6978,-1.7026,-1.7141,-1.729,-1.7439,-1.7595,-1.7738,-1.7812,-1.7812,-1.7812,-1.7826,-1.786,-1.786,-1.7738,-1.7521,-1.7609,-1.7521,-1.7297,-1.7419,-1.7453,-1.7412,-1.729,-1.7222,-1.7182,-1.7039,-1.6978,-1.6978,-1.6978,-1.6978,-1.6978,-1.6978,-1.6978,-1.6978,-1.6978,-1.6978,-1.6978,-1.6978,-1.6978,-1.7005,-1.7114,-1.7087,-1.7046,-1.7127,-1.7087,-1.7046,-1.7127,-1.7148,-1.7154,-1.7182,-1.7283,-1.7378,-1.7412,-1.7297,-1.7202,-1.7236,-1.7121,-1.7026,-1.7026,-1.7026,-1.7019,-1.6985,-1.6978,-1.6978,-1.6978,-1.6951,-1.6897,-1.6809,-1.6741,-1.6761,-1.6917,-1.6965,-1.6978,-1.6978,-1.6978,-1.6978,-1.6978,-1.6978,-1.6978,-1.6978,-1.6978,-1.6978,-1.6978,-1.6978,-1.6978,-1.6978,-1.6978,-1.6978,-1.6978,-1.6978,-1.6978,-1.6978,-1.6978,-1.6978,-1.6992,-1.7141,-1.7263,-1.7392,-1.7582,-1.7717,-1.7826,-1.7209,-1.7148,-1.7093,-1.7093,-1.7032,-1.6978,-1.6978,-1.6978,-1.6978,-1.6978,-1.6978,-1.6978,-1.6978,-1.6978,-1.7005,-1.7073,-1.7148,-1.7222,-1.7297,-1.7446,-1.7561,-1.765,-1.7792,-1.786,-1.786,-1.786,-1.786,-1.786,-1.786,-1.7792,-1.7629,-1.765,-1.7602,-1.7514,-1.7528,-1.7528,-1.7521,-1.7365,-1.7256,-1.7182,-1.7039,-1.6978,-1.6978,-1.6978,-1.6978,-1.6978,-1.6978,-1.6978,-1.6978,-1.6978,-1.6978,-1.6978,-1.6978,-1.6978,-1.7012,-1.7148,-1.7195,-1.7209,-1.7283,-1.7304,-1.7283,-1.7209,-1.7249,-1.7304,-1.7304,-1.7365,-1.7419,-1.7419,-1.7297,-1.7195,-1.7195,-1.7073,-1.6978,-1.6978,-1.6978,-1.6978,-1.6978,-1.6978,-1.6978,-1.6978,-1.6978,-1.6951,-1.687,-1.6863,-1.6897,-1.6978,-1.6978,-1.6978,-1.6978,-1.6978,-1.6978,-1.6978,-1.6978,-1.6978,-1.6978,-1.6978,-1.6978,-1.6978,-1.6978,-1.6978,-1.6978,-1.6978,-1.6978,-1.6978,-1.6978,-1.6978,-1.6978,-1.6978,-1.6978,-1.7005,-1.7216,-1.7351,-1.7446,-1.767,-1.7792,-1.786,-1.6978,-1.6978,-1.6978,-1.6978,-1.6978,-1.6978,-1.6978,-1.6978,-1.6978,-1.6978,-1.7005,-1.7019,-1.7019,-1.7039,-1.7107,-1.7222,-1.7344,-1.7433,-1.746,-1.7582,-1.7663,-1.7684,-1.7792,-1.786,-1.786,-1.786,-1.786,-1.786,-1.786,-1.7846,-1.7826,-1.7738,-1.7738,-1.7826,-1.7704,-1.765,-1.7629,-1.746,-1.7311,-1.7182,-1.7039,-1.6978,-1.6978,-1.6978,-1.6978,-1.6978,-1.6978,-1.6978,-1.6978,-1.6978,-1.6978,-1.6978,-1.6978,-1.6978,-1.7012,-1.7182,-1.7304,-1.7385,-1.7412,-1.7494,-1.7507,-1.7256,-1.729,-1.7385,-1.7385,-1.7399,-1.7412,-1.7385,-1.7283,-1.7182,-1.7161,-1.706,-1.6978,-1.6978,-1.6978,-1.6978,-1.6978,-1.6978,-1.6978,-1.6978,-1.6978,-1.6978,-1.6978,-1.6978,-1.6978,-1.6978,-1.6978,-1.6978,-1.6978,-1.6978,-1.6978,-1.6978,-1.6978,-1.6978,-1.6978,-1.6978,-1.6978,-1.6978,-1.6978,-1.6965,-1.6944,-1.6944,-1.6931,-1.6904,-1.6931,-1.6944,-1.6944,-1.6971,-1.6978,-1.7012,-1.7304,-1.7419,-1.7453,-1.7758,-1.786,-1.786,-1.6978,-1.6978,-1.6978,-1.6978,-1.6978,-1.6978,-1.6978,-1.6978,-1.6978,-1.6978,-1.7087,-1.7161,-1.7161,-1.7283,-1.7372,-1.7385,-1.7405,-1.7473,-1.7609,-1.7629,-1.7704,-1.7826,-1.7846,-1.786,-1.786,-1.786,-1.786,-1.786,-1.786,-1.7792,-1.7684,-1.7792,-1.7772,-1.7684,-1.765,-1.765,-1.7629,-1.7344,-1.7209,-1.7182,-1.7039,-1.6978,-1.6978,-1.6978,-1.6978,-1.6978,-1.6978,-1.6978,-1.6978,-1.6978,-1.6978,-1.6978,-1.6978,-1.6978,-1.7032,-1.7311,-1.7311,-1.7249,-1.7385,-1.7338,-1.7243,-1.7202,-1.7209,-1.7222,-1.7222,-1.7324,-1.7385,-1.7249,-1.7209,-1.7154,-1.7032,-1.6992,-1.6978,-1.6978,-1.6978,-1.6978,-1.6978,-1.6978,-1.6978,-1.6978,-1.6978,-1.6978,-1.6978,-1.6978,-1.6978,-1.6978,-1.6978,-1.6978,-1.6978,-1.6978,-1.6978,-1.6978,-1.6978,-1.6978,-1.6978,-1.6978,-1.6978,-1.6978,-1.6978,-1.691,-1.6781,-1.6781,-1.6707,-1.6592,-1.672,-1.6781,-1.6788,-1.6924,-1.6978,-1.7012,-1.7304,-1.7419,-1.7453,-1.7758,-1.786,-1.786,-1.6978,-1.6978,-1.7005,-1.7087,-1.71,-1.7127,-1.7216,-1.7229,-1.7229,-1.7229,-1.7283,-1.7317,-1.7317,-1.7453,-1.7548,-1.7548,-1.7623,-1.7704,-1.7758,-1.7772,-1.7792,-1.786,-1.786,-1.786,-1.786,-1.786,-1.786,-1.786,-1.786,-1.7826,-1.7772,-1.7826,-1.7792,-1.765,-1.765,-1.7555,-1.7385,-1.7249,-1.7148,-1.7066,-1.7005,-1.6978,-1.6978,-1.6978,-1.6978,-1.6978,-1.6978,-1.6978,-1.6978,-1.6978,-1.6978,-1.6978,-1.6978,-1.6978,-1.7019,-1.7229,-1.7243,-1.7222,-1.7378,-1.7372,-1.7297,-1.7216,-1.7195,-1.7168,-1.7093,-1.7127,-1.7154,-1.7087,-1.7073,-1.7053,-1.6992,-1.6978,-1.6978,-1.6978,-1.6978,-1.6978,-1.6978,-1.6978,-1.6978,-1.6978,-1.6978,-1.6978,-1.6978,-1.6978,-1.6978,-1.6978,-1.6978,-1.6978,-1.6978,-1.6978,-1.6978,-1.6978,-1.6978,-1.6978,-1.6978,-1.6978,-1.6978,-1.6978,-1.6978,-1.6897,-1.6748,-1.6748,-1.6666,-1.6524,-1.6592,-1.672,-1.6876,-1.6863,-1.6951,-1.7121,-1.7338,-1.7521,-1.7684,-1.7812,-1.786,-1.786]}]]